GEFSSE_500_meanwind_000.txt.gz
Wind_Speed
17 16 16 16 17 18 19 20 20 20 20 21 21 20 19 17 16 16 14 14 14 14 13 12 11 12 12 12 11 11 10 9 9 10 10 10 10 10 10 10 11 11 14
19 19 19 20 20 21 22 22 22 22 22 23 23 21 21 19 17 17 17 17 18 18 17 16 15 16 16 16 15 15 14 13 12 12 12 12 13 12 12 12 12 12 12
20 21 22 22 23 23 22 22 23 24 24 24 24 23 22 21 19 18 18 19 20 21 21 20 19 19 19 19 17 17 17 16 15 14 15 15 15 14 14 14 14 13 12
21 22 23 24 24 24 23 23 24 25 25 24 24 22 22 22 21 20 21 21 22 22 23 23 22 22 21 21 20 19 18 16 15 15 16 17 16 15 15 15 14 14 14
25 25 26 26 26 26 25 25 26 26 25 25 24 23 23 23 23 23 23 24 24 24 24 25 24 24 24 23 23 22 20 18 15 15 18 18 17 15 16 16 16 15 15
25 26 26 27 27 27 27 27 27 27 27 27 26 26 26 27 26 26 25 25 25 25 24 25 25 24 24 23 23 23 22 21 17 17 18 19 17 16 17 16 16 15 14
24 26 28 27 27 27 28 28 28 28 28 29 29 29 29 29 29 28 27 26 26 25 25 24 25 24 24 24 24 24 24 23 21 20 19 19 18 17 16 15 15 15 14
26 26 28 28 29 30 31 31 31 31 32 32 32 33 33 32 31 30 29 28 28 27 27 26 26 26 26 26 27 28 27 26 25 22 21 21 20 19 17 16 15 14 14
31 30 31 31 33 34 34 35 36 36 36 36 35 35 34 34 33 31 30 30 29 30 29 29 29 29 30 30 31 31 30 28 26 24 24 24 22 20 18 17 16 15 14
35 34 34 34 34 34 34 35 36 36 36 36 36 35 35 33 32 30 29 29 29 29 30 30 30 30 30 30 30 29 29 28 27 25 25 25 25 23 21 19 17 16 15
35 34 33 33 30 30 30 32 33 34 35 36 36 35 34 33 31 29 29 28 29 29 29 29 30 30 30 30 29 28 27 27 27 25 25 26 27 25 23 22 20 19 18
32 31 30 31 28 27 28 30 32 33 34 35 36 35 35 34 33 31 30 30 30 30 30 30 30 31 31 31 31 29 28 28 27 26 25 26 28 27 26 25 23 22 21
29 30 30 31 32 31 30 31 31 33 35 37 37 37 38 38 37 36 34 34 33 33 32 32 31 31 31 31 30 30 30 30 29 28 27 28 30 30 29 29 28 26 26
32 32 33 35 36 37 36 35 35 35 36 38 39 40 41 42 41 39 37 37 37 37 37 36 36 35 35 34 33 32 32 32 32 32 31 31 33 33 33 33 32 32 31
36 35 35 38 39 40 41 40 40 40 40 41 41 41 42 43 43 42 41 40 40 40 40 39 39 38 39 39 38 38 38 37 37 37 37 37 36 36 37 37 36 36 35
35 35 36 38 41 43 43 44 43 43 43 44 45 45 45 44 44 44 44 44 44 44 43 42 41 41 40 40 40 39 40 40 41 42 42 44 43 42 42 42 42 41 41
38 39 39 39 40 42 44 45 45 45 45 45 46 47 47 47 47 47 47 47 47 47 46 45 45 45 44 44 44 43 43 43 42 41 41 42 43 44 45 45 45 45 45
42 44 45 46 46 47 48 50 51 51 52 52 52 52 53 53 53 53 53 53 53 52 51 50 49 49 48 48 48 47 47 46 46 45 44 44 43 43 44 44 44 43 42
45 47 48 48 49 51 52 54 55 55 56 57 57 58 59 59 60 59 59 59 59 59 58 57 55 54 54 53 52 52 51 51 50 49 48 48 47 47 47 48 48 47 46
46 47 48 49 50 52 53 54 56 58 60 61 60 61 62 62 63 64 65 65 64 64 63 63 62 61 61 60 59 58 57 56 55 54 54 53 52 52 52 52 52 51 51
49 51 54 58 60 59 58 58 59 60 61 62 63 63 63 63 62 63 65 68 68 67 67 67 66 66 66 66 65 63 63 61 59 59 59 58 57 56 55 55 55 55 54
57 58 59 60 62 63 65 67 64 63 64 65 66 67 68 67 66 65 65 66 67 67 67 67 67 66 66 66 67 67 66 66 65 64 63 61 60 59 58 58 57 57 57
66 64 64 66 68 69 72 75 75 71 70 71 71 71 72 72 73 72 71 70 71 70 70 69 68 67 65 63 64 65 66 67 66 66 65 64 63 62 60 60 60 60 59
69 68 68 71 74 76 78 79 80 77 75 75 76 75 75 76 77 79 78 77 76 76 76 75 74 72 71 67 65 65 65 64 64 64 64 64 62 62 62 61 60 59 58
75 76 77 77 78 80 82 83 81 80 79 77 77 77 77 77 78 80 82 82 81 80 80 80 78 77 77 74 72 70 67 66 64 63 62 62 62 63 63 63 62 62 60
83 83 81 81 81 82 83 82 79 75 71 69 69 70 71 72 74 77 80 82 82 83 81 81 81 80 80 77 75 75 73 72 71 69 67 66 65 64 64 64 64 64 64

GEFSSE_500_meanwind_006.txt.gz
Wind_Speed
21 21 20 20 20 20 19 20 21 21 21 20 19 19 18 18 17 17 17 15 14 13 14 14 14 14 13 12 12 12 11 10 9 9 9 8 8 8 9 9 9 10 13
23 23 23 23 23 23 23 23 24 24 23 22 22 22 21 20 20 19 19 18 17 17 17 17 17 17 17 17 16 15 15 14 13 13 12 12 11 10 10 11 11 11 12
24 23 24 24 25 26 26 26 27 27 26 25 25 24 23 23 23 22 22 22 21 20 20 20 20 21 21 21 21 19 18 17 16 15 15 14 13 12 12 13 13 13 15
23 23 23 24 26 27 28 28 29 29 29 28 27 25 25 25 25 24 25 25 24 23 23 22 23 24 25 25 25 24 22 20 19 18 17 16 15 14 14 16 17 16 17
21 22 23 25 26 28 28 29 29 30 29 29 29 27 27 27 27 27 27 28 27 26 25 26 26 27 28 28 28 27 26 24 22 21 19 18 17 16 17 18 19 19 18
22 23 24 26 27 28 29 30 30 31 30 30 30 30 30 30 30 30 30 30 29 28 28 28 29 30 31 31 31 30 29 27 25 24 22 21 20 19 19 19 19 19 19
24 25 26 27 28 29 31 31 31 32 32 32 33 32 32 33 33 33 33 32 32 31 31 30 30 31 31 32 33 32 31 29 27 26 25 24 23 22 20 20 19 19 19
26 28 29 30 31 32 33 34 34 35 35 36 36 36 36 36 36 35 35 35 34 33 33 33 32 31 31 32 33 33 32 30 27 27 27 26 25 24 22 21 19 19 19
30 32 34 35 36 36 37 37 38 39 39 39 40 40 40 40 40 39 38 37 36 36 36 35 34 33 32 32 32 32 32 30 28 28 28 28 28 28 25 23 21 20 19
30 32 34 36 37 37 38 38 38 38 39 39 39 40 41 41 41 41 41 40 39 39 39 39 38 36 35 34 34 33 33 32 31 30 30 31 31 31 29 26 24 22 21
30 31 32 34 36 37 37 38 38 38 37 37 38 38 39 40 41 42 42 42 41 41 41 41 41 40 38 37 37 36 35 34 34 33 32 32 32 33 31 28 26 25 23
34 34 35 36 37 38 39 40 40 40 40 39 39 39 39 40 40 41 42 43 43 42 41 41 41 41 40 39 39 38 37 37 35 33 31 31 32 33 31 28 28 27 25
35 36 36 37 38 40 41 43 44 44 44 44 44 43 43 42 41 42 42 43 43 42 42 42 41 41 41 40 40 40 39 39 37 35 33 32 32 33 32 29 29 29 28
36 37 38 39 40 41 42 43 45 47 48 49 49 49 48 48 47 45 45 45 44 43 43 44 44 43 43 42 42 42 42 40 39 38 36 34 33 34 33 30 29 30 30
40 41 42 43 44 45 46 46 46 46 48 50 51 52 52 52 52 51 50 49 48 47 46 45 46 47 46 45 45 45 43 42 41 40 39 38 36 36 35 33 30 30 31
44 46 48 49 51 51 51 51 51 51 51 51 52 53 54 54 54 54 54 54 53 51 50 49 48 49 50 51 50 49 48 46 44 42 41 40 39 39 38 37 35 33 33
49 51 52 54 56 56 56 56 56 56 56 56 56 57 57 57 57 56 56 56 55 54 54 53 52 51 51 51 52 52 52 50 49 47 46 44 43 42 42 41 39 38 36
55 57 58 59 60 61 61 61 61 61 61 60 60 60 61 62 62 62 61 59 59 58 56 56 56 55 54 54 54 53 53 53 52 51 50 49 47 47 46 46 45 44 43
59 60 62 63 65 66 66 66 66 65 65 64 64 64 63 63 63 64 65 64 63 62 61 59 58 57 57 57 57 57 57 55 55 54 53 51 50 49 48 48 48 47 46
66 65 65 66 67 69 70 70 69 69 68 66 67 67 67 66 66 66 66 66 66 65 64 63 62 61 60 60 60 60 60 59 58 57 56 54 53 51 50 49 48 47 45
76 75 74 72 72 73 74 75 76 76 75 74 74 74 74 74 74 74 73 71 71 70 69 67 67 66 64 63 64 64 63 63 62 61 60 59 57 56 54 53 51 49 48
84 85 85 84 81 80 80 81 82 82 82 82 80 79 80 80 80 80 79 77 76 76 75 73 71 70 68 66 66 67 68 67 65 64 64 63 62 61 59 58 56 54 53
88 89 89 89 89 89 88 88 88 87 87 87 87 86 86 86 84 84 84 83 82 81 80 78 76 75 73 70 67 66 67 67 68 69 68 67 67 65 64 62 60 59 58
86 86 85 84 84 84 84 85 86 87 87 86 86 86 87 88 88 88 89 89 88 86 85 84 82 80 78 75 72 69 67 67 67 67 69 70 70 70 69 67 66 63 62
77 75 71 67 65 65 65 65 64 63 63 63 65 67 72 75 77 80 84 87 88 88 88 87 87 84 83 81 79 76 73 71 70 69 68 68 70 71 71 71 70 69 67
63 58 55 55 55 55 53 51 47 43 41 39 38 40 44 50 56 61 67 72 76 79 82 84 86 86 85 84 83 81 78 76 75 74 72 69 68 68 69 70 71 71 71

GEFSSE_500_meanwind_012.txt.gz
Wind_Speed
24 24 24 24 24 24 24 24 24 24 24 24 23 22 21 21 20 19 19 18 18 18 17 17 17 17 16 16 17 17 17 15 14 13 12 11 10 10 10 10 11 14 18
24 23 24 25 26 27 27 28 28 28 28 28 27 26 25 25 24 23 22 21 21 21 21 21 21 21 20 20 20 20 20 19 18 17 16 15 14 14 13 13 12 13 14
23 22 23 24 25 27 28 29 30 31 31 31 31 30 29 29 28 27 26 25 24 24 25 26 26 25 24 23 23 23 23 23 22 21 20 20 19 18 17 16 15 14 15
19 21 22 24 26 28 29 29 30 31 33 33 33 33 32 32 31 31 30 29 28 28 28 29 29 30 29 28 27 26 26 26 25 24 23 23 22 22 21 20 19 17 16
18 20 22 24 26 28 29 30 31 32 33 34 34 35 34 34 34 33 33 32 32 31 31 31 32 33 33 32 31 30 30 29 28 27 27 26 25 25 24 23 22 20 19
18 20 23 25 27 29 30 31 32 33 34 35 36 36 37 37 36 36 36 35 35 34 34 34 34 35 35 35 35 34 33 32 31 30 30 29 28 28 27 27 25 23 21
23 24 26 28 30 32 34 35 35 36 37 38 39 39 39 40 39 39 39 38 38 38 37 37 37 36 36 37 38 38 37 36 34 33 33 33 32 31 30 30 28 25 24
24 26 28 30 32 34 36 38 39 40 41 42 43 43 43 43 43 42 42 42 41 41 41 40 40 39 39 39 40 40 39 38 37 36 36 35 35 34 33 32 31 29 27
23 26 28 31 33 35 37 38 39 40 41 42 43 45 47 48 48 48 47 46 45 45 44 43 43 43 43 42 42 42 42 40 39 39 38 38 37 37 35 33 31 30 29
25 28 30 33 35 38 40 42 43 44 44 44 43 43 45 47 49 51 51 50 50 49 48 47 47 46 46 46 45 44 44 42 42 42 41 40 39 38 37 35 32 30 30
29 32 34 35 37 39 41 43 45 47 48 48 48 48 47 47 47 49 50 51 51 51 51 51 50 50 49 48 48 47 47 46 45 45 43 42 41 40 39 37 34 33 32
35 37 40 42 43 45 46 48 49 50 51 51 51 51 51 51 50 50 50 50 51 51 51 51 51 51 51 51 51 50 49 49 48 47 45 43 43 42 41 39 37 35 34
41 43 46 48 50 52 53 54 55 55 56 56 56 56 55 54 53 53 54 53 52 51 51 51 51 51 52 52 52 52 51 51 50 50 48 46 45 45 44 42 40 37 36
49 52 55 57 58 60 61 62 62 62 62 62 62 61 61 60 59 57 57 57 56 55 53 52 52 53 53 52 52 52 52 53 53 52 51 50 48 47 46 44 42 39 38
57 61 64 65 67 68 69 70 70 70 69 69 69 68 67 65 64 63 61 60 60 59 58 57 56 55 55 54 53 53 53 53 54 55 54 53 52 50 49 46 44 41 39
64 67 69 72 73 75 76 77 78 78 76 75 74 74 74 72 70 67 66 66 64 63 62 62 61 60 59 57 55 54 54 54 54 55 55 55 55 53 51 49 47 43 41
71 73 76 78 80 81 82 82 83 83 82 81 79 78 78 77 76 74 71 70 69 68 67 66 65 65 63 61 58 56 55 56 56 56 56 56 56 55 53 52 50 47 44
78 80 83 84 85 86 86 86 85 84 83 81 80 80 80 80 80 79 77 75 73 72 71 70 69 68 67 66 63 61 59 58 58 58 57 56 56 56 55 54 52 50 48
83 85 87 89 90 89 87 84 82 80 79 78 76 76 79 82 82 82 81 80 78 77 75 74 73 71 70 69 68 66 63 62 60 60 60 59 57 56 56 56 55 54 52
86 88 90 90 87 81 75 72 69 68 65 63 64 65 67 73 82 86 85 83 82 81 80 79 77 75 73 71 71 69 67 65 64 63 62 62 61 59 58 57 57 56 55
86 87 87 82 72 66 62 60 58 54 50 48 49 51 53 57 65 78 89 89 87 85 84 82 81 79 76 74 73 71 69 67 67 66 65 64 63 63 62 60 60 59 58
85 84 79 67 60 58 57 56 54 51 48 47 47 48 50 50 52 59 73 87 92 90 88 86 85 83 80 78 76 74 72 70 68 68 68 67 67 66 65 64 63 63 62
80 75 64 56 55 55 55 54 52 51 50 49 48 47 48 49 50 50 54 69 85 94 94 91 89 87 84 81 79 77 75 73 71 70 69 69 69 68 67 67 66 66 65
73 65 56 54 55 56 57 56 55 53 52 50 48 46 45 45 46 47 47 51 65 82 93 96 94 92 89 85 83 81 79 77 75 73 72 70 70 70 69 68 68 68 68
66 58 54 55 58 60 60 59 57 56 54 52 50 47 44 43 43 43 43 43 47 59 75 90 96 95 93 90 86 84 82 80 78 76 74 73 72 71 71 70 69 69 69
60 56 56 59 63 64 65 63 61 58 55 53 51 48 45 42 40 39 39 38 38 42 51 65 81 91 94 92 90 87 85 84 82 80 77 75 74 73 72 72 71 70 69

GEFSSE_500_meanwind_018.txt.gz
Wind_Speed
23 26 27 28 29 31 32 32 32 32 31 30 29 28 28 28 28 27 27 26 25 24 24 24 24 24 24 23 23 21 20 19 18 16 14 13 12 10 9 9 10 12 16
23 25 28 28 30 31 33 35 36 36 36 35 34 33 32 32 31 32 31 31 30 29 28 27 27 27 27 26 26 25 24 23 22 20 18 16 15 14 12 11 11 12 13
20 22 24 27 28 30 32 34 35 36 37 37 37 37 37 36 36 35 35 35 35 34 33 31 30 29 29 29 29 28 28 27 26 24 22 21 20 19 17 16 15 14 14
16 18 19 21 23 25 27 28 30 32 33 35 36 37 37 38 38 39 38 38 38 37 37 35 34 33 32 32 33 32 31 30 29 28 27 25 24 22 21 20 19 18 17
17 18 20 21 23 25 27 28 30 31 32 34 35 37 38 38 39 40 40 41 41 41 40 39 38 37 36 36 36 36 36 34 33 32 31 29 28 27 24 23 23 22 20
18 20 22 23 25 27 29 31 32 34 35 37 38 39 40 41 42 43 43 43 43 44 43 42 41 40 39 39 39 39 39 39 37 36 34 33 32 31 29 27 26 25 24
20 22 24 26 28 29 31 33 35 36 38 39 40 42 43 44 45 46 47 47 46 46 46 46 45 44 43 42 41 41 41 42 41 40 38 37 36 35 33 31 29 28 28
23 25 28 30 32 34 36 38 40 41 42 43 44 45 46 47 47 48 49 50 51 51 49 49 48 48 47 45 44 44 43 44 43 43 41 40 39 39 38 35 33 31 31
28 31 34 36 39 42 44 45 47 48 49 50 50 51 51 51 52 52 52 52 52 53 53 54 53 52 51 49 48 47 46 46 45 45 45 44 43 42 41 39 36 35 34
35 39 42 45 47 50 52 54 56 57 58 58 59 58 58 58 57 57 56 56 56 56 55 55 56 57 55 54 52 51 50 49 47 47 47 48 47 45 44 42 39 38 36
43 46 49 52 55 58 60 62 64 65 66 67 67 67 66 65 65 63 62 61 60 59 59 58 57 58 59 58 57 56 54 52 51 50 49 50 49 48 46 45 43 41 39
49 53 57 60 62 65 67 70 71 72 73 74 74 73 72 71 70 69 68 67 66 64 62 62 61 60 60 60 60 60 59 56 55 54 53 52 51 49 48 46 45 44 42
54 58 62 65 68 71 73 76 77 78 79 79 79 79 77 75 74 73 72 71 70 70 68 66 65 64 63 62 61 61 62 62 60 59 57 56 55 52 50 48 47 46 45
58 62 66 70 73 76 78 80 81 83 84 84 84 84 84 82 79 77 75 74 73 72 72 71 69 68 67 65 64 63 62 64 64 64 62 60 59 56 54 51 49 48 47
63 67 71 74 77 79 80 82 83 85 86 87 87 88 88 88 86 82 79 77 75 74 74 74 74 72 71 69 67 66 64 64 65 66 66 64 62 60 58 56 53 51 50
69 73 77 79 81 82 84 85 87 89 90 90 91 90 89 88 87 85 82 79 77 76 76 76 76 76 75 73 72 70 68 66 65 65 67 67 66 64 62 60 57 55 54
75 78 80 82 84 86 88 89 90 90 89 87 84 81 78 75 75 74 73 72 71 72 73 76 78 79 78 77 76 74 72 71 69 66 66 67 66 66 66 63 60 58 57
78 80 83 85 87 88 89 88 86 82 78 74 69 65 63 61 60 60 59 60 62 64 67 71 76 80 81 81 80 78 77 75 73 70 68 66 65 64 66 66 64 61 59
80 82 85 87 88 87 84 80 75 71 68 65 62 59 57 56 56 55 54 54 55 57 60 64 71 77 82 84 84 83 81 79 77 75 72 69 66 64 64 67 66 64 62
82 84 87 87 86 82 78 73 70 67 66 64 63 62 61 60 59 58 56 54 54 54 56 58 63 71 80 86 87 86 84 83 81 79 76 73 69 66 64 64 67 66 64
83 85 86 86 82 78 75 72 70 68 67 66 65 64 64 63 62 61 60 57 55 55 54 55 56 61 72 83 88 89 87 86 84 82 81 77 73 70 67 64 65 66 66
85 86 85 82 79 77 75 73 69 66 63 60 59 58 58 58 59 60 60 59 58 56 55 55 54 54 60 72 84 90 90 89 88 85 83 81 78 74 70 67 65 66 67
84 83 82 80 78 75 71 66 62 59 56 54 52 51 51 51 51 52 53 55 56 57 56 55 54 53 53 58 71 85 92 92 90 88 86 84 82 79 75 71 68 67 68
83 82 80 77 73 69 65 62 60 57 55 53 52 51 50 50 49 48 47 48 51 54 55 55 55 53 52 52 58 72 86 94 94 90 88 86 84 82 79 77 73 69 69
82 80 77 72 68 64 63 61 59 58 57 56 56 54 52 50 48 47 46 45 45 48 51 54 54 54 52 51 52 59 74 89 95 94 90 87 85 82 80 79 78 74 71
81 78 72 67 65 64 62 61 60 59 59 58 55 52 49 48 46 45 44 43 42 43 46 50 52 53 52 50 50 52 61 78 92 96 93 89 87 84 81 79 78 77 74

GEFSSE_500_meanwind_024.txt.gz
Wind_Speed
14 16 18 20 22 24 26 28 29 30 32 33 35 37 38 38 38 38 38 37 36 35 35 34 33 32 31 31 31 30 29 28 27 25 23 21 19 18 17 17 17 19 22
11 13 14 16 18 21 23 24 26 28 30 32 34 37 39 41 42 42 42 42 41 41 40 39 38 37 35 34 34 33 33 32 31 30 28 25 23 21 19 18 17 18 19
11 12 14 16 18 20 21 23 24 26 27 29 32 34 36 39 41 43 44 45 45 45 44 43 42 41 40 39 38 37 36 35 34 34 32 30 28 25 23 21 19 19 19
13 15 17 18 20 21 23 24 26 28 29 30 32 33 35 37 38 40 42 44 45 47 47 47 47 46 45 44 43 41 40 39 38 37 36 35 32 30 27 25 23 22 20
16 17 19 21 23 25 27 28 30 31 33 34 35 36 37 38 40 41 42 43 44 46 47 49 49 50 49 48 47 46 44 43 42 41 40 39 37 35 32 30 27 25 24
19 21 24 26 28 31 33 35 36 38 39 40 41 42 43 44 45 45 45 46 46 46 47 48 50 51 52 52 51 50 49 48 46 45 44 43 41 40 37 35 32 29 27
24 26 29 32 35 37 39 42 44 45 47 48 49 50 51 52 52 52 52 52 52 51 50 50 50 51 53 53 54 54 53 52 51 49 48 47 45 44 42 40 37 34 32
29 32 35 38 40 43 46 48 51 53 55 57 58 59 59 60 60 60 60 60 59 58 57 55 54 53 53 54 55 56 56 56 54 53 52 51 49 48 47 45 42 39 36
34 37 40 43 47 50 53 56 59 61 64 65 67 68 68 69 69 68 68 68 66 65 64 62 60 59 57 56 57 57 58 58 58 56 55 54 52 51 51 49 47 44 41
39 42 46 49 52 56 59 62 66 69 71 73 75 76 77 77 77 76 75 74 73 72 70 68 67 65 64 62 60 59 59 60 60 59 58 57 56 54 54 54 51 48 46
44 47 50 54 57 61 64 68 71 74 77 79 80 82 83 83 83 83 82 81 79 77 75 73 71 70 69 67 66 64 62 62 62 62 61 59 58 57 57 57 56 53 50
47 51 54 58 62 66 69 72 75 77 80 82 84 85 86 87 88 88 88 86 85 83 81 78 75 73 72 71 71 69 67 65 63 63 63 62 61 59 59 59 59 57 54
51 55 59 63 67 71 74 77 80 81 83 85 87 88 89 91 92 92 92 92 91 88 86 83 81 78 76 75 74 74 72 70 68 66 65 65 64 62 61 60 61 60 58
56 60 64 68 73 76 79 81 83 84 86 88 91 93 95 96 97 96 96 95 94 93 90 87 85 83 80 78 78 77 76 74 72 70 68 67 67 65 63 62 62 62 61
60 64 68 73 77 79 81 82 84 87 91 95 97 98 97 97 95 93 92 90 90 90 89 87 87 85 84 82 81 80 80 78 76 74 71 69 69 69 67 65 63 63 62
63 68 73 76 79 80 82 85 89 92 96 97 94 91 87 84 82 80 79 79 79 80 81 81 82 82 82 83 83 84 84 83 81 78 76 73 71 71 71 69 67 65 63
67 72 75 78 80 82 85 89 93 95 93 89 83 79 76 73 71 69 68 68 69 70 71 73 75 77 78 80 82 85 86 86 85 83 80 78 75 73 73 73 71 69 66
71 75 77 79 82 85 89 92 92 89 85 80 76 74 72 71 69 68 66 64 64 64 66 67 69 71 73 77 80 84 86 88 89 87 85 83 80 77 76 75 75 74 71
74 77 79 81 84 87 90 90 86 81 78 76 74 73 71 69 67 65 63 62 61 61 62 64 67 68 70 72 76 81 85 89 91 92 90 87 84 81 79 78 78 78 76
77 78 80 83 85 87 87 83 78 75 74 74 72 70 68 65 62 60 59 58 57 57 59 61 63 66 69 70 72 76 82 88 92 94 94 92 89 86 82 79 79 79 79
78 80 82 84 86 86 83 78 74 72 72 72 70 67 63 59 57 55 54 52 52 52 54 56 59 63 67 69 70 71 76 83 89 94 96 95 93 90 86 82 80 80 79
79 81 83 85 86 83 79 75 73 73 72 69 65 60 57 54 52 50 48 47 47 47 49 52 55 57 62 67 70 70 71 76 83 89 95 98 96 94 90 85 82 81 79
79 81 83 85 83 79 76 74 73 71 68 63 57 53 51 50 50 49 48 46 44 44 44 46 49 52 56 62 68 71 71 72 76 82 90 96 98 97 94 90 85 84 81
80 81 84 83 79 76 75 74 73 69 64 58 52 49 50 51 51 50 49 48 46 44 42 42 43 47 51 56 63 69 72 71 72 76 83 91 97 99 97 93 89 85 82
80 82 83 80 76 75 75 74 72 67 61 53 50 50 51 53 54 53 52 50 49 46 43 41 41 42 46 51 57 64 71 72 72 72 76 84 93 98 100 97 93 87 83
80 81 81 77 74 74 75 73 70 64 57 51 51 53 54 56 56 56 54 52 51 48 45 42 40 40 41 46 52 58 66 72 73 71 71 76 86 94 100 100 98 93 89

GEFSSE_500_meanwind_030.txt.gz
Wind_Speed
9 10 12 13 14 15 16 18 19 20 21 23 24 25 27 28 31 34 36 38 40 41 41 41 41 41 40 39 38 37 37 36 35 33 31 29 27 24 23 22 23 24 26
9 10 11 12 13 14 16 17 19 20 22 23 25 26 27 28 29 30 32 35 37 40 42 44 45 45 45 45 44 43 41 40 39 38 36 34 31 29 26 25 24 25 26
11 11 12 13 15 17 19 21 23 24 26 28 30 31 32 33 33 34 34 35 37 38 40 42 44 46 48 49 49 48 47 45 43 42 41 39 36 33 31 29 27 27 27
12 14 16 18 20 22 24 26 28 30 32 34 36 38 39 40 41 41 41 42 42 42 42 43 44 45 47 49 51 52 52 51 49 47 45 43 41 38 35 33 31 30 29
16 19 21 24 26 28 30 33 35 37 39 40 42 44 46 47 48 49 49 50 50 49 49 48 48 47 48 48 50 53 55 55 54 52 50 48 46 43 40 38 36 34 32
21 24 27 29 32 34 36 38 41 43 45 47 49 50 52 54 55 56 57 58 58 57 57 56 55 54 53 52 52 52 54 56 58 57 55 53 50 48 45 42 40 38 36
27 29 32 35 37 40 42 44 47 49 51 53 55 57 59 61 63 64 65 66 66 66 65 64 63 62 61 59 58 56 55 55 57 59 59 58 55 53 50 47 44 43 41
32 34 37 39 42 44 47 49 52 54 57 59 62 64 66 68 70 72 73 74 74 74 74 72 71 69 68 66 64 63 61 58 57 59 61 61 60 58 55 52 49 47 46
36 38 40 43 45 48 51 54 56 59 62 65 68 70 73 75 77 78 79 80 81 81 81 80 79 77 75 72 71 69 67 65 62 60 61 62 63 62 60 57 54 52 50
38 41 44 46 49 52 55 59 62 64 67 70 72 75 77 79 80 82 83 84 84 85 85 84 83 82 80 78 76 75 73 71 69 66 64 63 64 65 64 62 59 57 54
41 44 47 50 53 56 59 62 65 68 71 74 76 77 79 80 82 83 85 86 87 88 88 89 88 87 86 84 82 80 78 76 74 72 70 67 66 66 66 65 64 62 59
44 47 50 53 56 59 62 65 68 71 74 76 78 79 81 83 85 87 88 90 92 93 94 95 95 94 93 91 88 85 83 81 79 77 75 73 71 69 68 68 67 66 64
47 50 53 56 59 62 65 68 71 74 76 79 81 82 84 86 88 91 92 93 94 95 96 98 99 99 99 98 95 92 89 86 84 82 80 79 77 74 71 70 69 68 67
50 53 56 59 63 66 69 72 74 77 79 81 84 86 88 90 92 93 94 93 91 91 91 91 92 94 97 99 99 97 95 92 89 87 85 84 82 79 76 74 72 70 69
53 56 59 62 66 69 72 75 78 81 83 86 89 91 93 93 93 91 89 87 85 84 83 82 83 84 86 89 93 95 95 95 93 91 89 89 87 85 82 79 76 73 71
55 58 61 65 68 71 75 78 81 85 87 90 93 93 93 91 89 86 84 82 80 78 77 75 75 75 77 79 82 86 90 91 92 93 93 93 92 90 88 84 81 77 75
56 60 63 67 71 75 78 82 85 88 90 92 93 92 90 87 84 82 80 77 74 71 69 67 66 67 68 71 74 78 82 85 88 91 93 95 96 95 93 90 86 82 78
58 62 66 70 74 77 81 85 88 90 92 92 90 88 85 83 81 78 74 70 66 62 59 57 55 56 58 62 67 71 76 80 84 89 93 96 98 99 97 95 91 87 82
60 64 68 72 77 80 83 87 89 91 91 88 86 84 82 80 77 73 68 63 58 54 52 50 49 49 49 53 58 64 70 75 80 86 92 97 100 102 101 99 96 92 87
63 67 71 75 79 82 85 87 89 89 87 85 83 82 81 78 73 68 62 58 54 52 51 51 50 49 48 48 50 54 62 70 77 83 90 97 102 105 104 103 100 96 92
66 70 74 77 80 83 85 87 88 86 84 82 81 80 78 74 69 64 60 57 56 55 55 55 54 52 51 50 48 48 52 62 72 79 86 95 102 106 107 106 104 100 96
68 72 76 79 81 84 86 88 87 84 82 81 80 78 74 70 65 62 60 60 60 60 60 60 60 57 54 53 51 48 48 53 64 74 82 90 98 105 108 109 107 104 100
70 73 77 79 82 85 87 87 84 81 80 79 77 74 70 66 64 63 63 64 65 66 66 66 65 62 58 56 55 51 48 49 55 66 77 85 93 100 106 110 109 107 103
71 74 77 80 83 86 87 85 82 80 79 78 76 72 67 65 65 66 67 69 70 71 71 70 68 66 62 58 56 54 51 48 51 58 69 79 87 93 101 107 109 109 106
72 75 77 81 83 85 85 83 80 79 79 77 74 69 66 65 67 69 71 73 73 72 71 69 67 65 63 59 56 53 52 49 48 53 61 72 81 88 93 101 107 109 108
72 75 78 81 83 84 82 80 79 78 77 75 72 68 66 67 69 72 73 72 68 64 61 60 59 58 58 56 53 51 50 49 49 49 55 64 75 82 87 93 101 106 108

GEFSSE_500_meanwind_036.txt.gz
Wind_Speed
5 5 6 7 8 10 11 13 14 16 18 19 21 22 23 24 26 27 28 29 30 32 33 35 38 40 42 43 44 44 43 42 41 39 37 34 31 29 27 25 25 26 28
5 6 8 10 11 13 16 18 19 21 23 24 26 27 28 30 31 32 33 34 34 35 36 36 37 38 40 42 44 46 47 47 46 45 43 40 37 35 32 30 28 28 29
8 10 12 15 17 19 21 23 25 26 28 30 31 33 34 35 36 37 38 39 40 41 41 42 42 42 42 42 43 45 47 49 50 50 49 47 44 41 38 35 32 31 31
13 15 17 19 21 24 26 28 29 31 33 34 35 37 38 40 41 42 43 44 45 46 47 47 48 48 48 48 48 48 48 49 50 52 53 53 51 48 45 42 39 36 34
17 19 21 23 25 27 29 31 32 34 36 37 39 40 42 44 45 46 48 49 50 51 52 53 53 54 54 54 54 53 53 52 52 53 55 56 56 54 52 49 45 42 39
21 23 24 26 28 30 32 34 36 38 40 41 43 45 47 48 50 51 53 54 55 56 57 58 59 59 60 60 60 60 59 58 57 56 56 57 58 59 58 55 52 49 45
23 25 27 29 31 33 36 38 40 42 45 47 49 51 52 54 56 57 59 60 61 62 63 64 65 65 65 65 65 65 65 65 64 62 62 61 60 61 61 61 59 55 51
25 27 29 32 35 37 40 42 45 47 49 51 53 55 57 59 61 63 64 66 67 68 69 70 71 71 71 71 71 71 71 71 70 69 68 67 65 64 63 64 63 61 58
27 29 32 35 38 41 44 46 49 51 53 55 57 59 61 64 66 68 69 71 73 74 75 76 77 77 77 77 77 77 77 76 76 75 75 73 72 69 67 66 66 65 64
30 33 36 39 42 45 48 51 53 55 57 59 61 64 66 68 71 73 75 77 79 80 82 83 83 83 83 84 84 83 83 82 82 81 80 79 78 76 73 71 69 69 68
34 37 41 44 47 50 53 55 56 58 61 63 66 68 71 74 76 78 81 83 85 87 88 89 90 90 90 90 89 89 89 88 88 86 85 84 83 82 80 77 74 72 71
38 41 45 48 51 53 55 57 59 62 65 67 70 73 76 79 82 84 87 90 92 93 94 95 96 96 95 95 94 94 94 93 93 92 91 90 89 87 86 84 80 77 74
41 45 48 50 53 55 57 59 62 65 68 71 74 77 80 84 87 91 94 96 97 98 98 98 98 98 98 97 97 97 97 97 97 97 96 95 94 93 91 89 86 83 80
44 47 50 52 54 56 59 62 65 68 72 75 78 82 86 90 94 98 100 101 101 100 99 97 96 95 94 94 95 95 96 97 99 100 101 100 100 99 96 94 92 89 86
46 49 51 54 56 58 61 65 68 72 75 78 82 86 91 95 99 102 102 101 100 97 95 93 91 89 88 88 88 89 91 93 96 99 101 103 104 104 102 99 97 95 92
48 50 52 54 57 60 64 67 71 74 77 81 86 91 95 99 100 100 98 95 92 89 87 86 85 84 83 83 83 83 84 86 89 93 98 101 105 106 106 104 102 100 98
48 50 53 55 59 62 66 70 73 76 80 85 90 94 97 98 97 94 90 87 85 84 83 82 81 80 78 77 77 77 78 79 82 85 90 96 101 106 108 108 107 105 103
49 51 53 57 61 65 68 72 74 78 83 87 92 94 95 94 90 87 84 82 82 81 80 78 75 73 71 70 69 69 70 72 74 78 83 89 95 101 106 109 110 109 107
49 51 55 59 63 67 70 73 76 80 85 89 92 93 91 87 84 81 80 80 80 77 75 73 72 70 69 67 66 65 65 66 67 70 75 82 89 96 102 108 111 112 111
50 53 56 61 65 68 71 74 78 82 86 90 91 89 85 82 80 78 79 78 76 74 74 74 75 74 73 71 68 66 64 64 64 66 69 74 82 90 98 104 109 112 114
51 54 58 62 66 68 71 75 79 83 87 89 88 85 81 79 77 77 76 75 73 75 77 78 76 74 73 73 72 70 67 65 66 66 65 67 74 83 92 100 106 112 115
52 56 60 64 67 69 72 76 80 83 86 87 84 81 78 77 76 75 74 73 75 78 76 71 68 65 63 65 68 70 70 69 71 68 66 66 68 75 84 95 103 110 115
53 57 61 64 67 69 73 77 80 84 86 84 80 77 76 75 75 74 74 74 77 77 71 65 61 58 55 53 57 62 67 72 72 68 68 67 66 68 75 86 98 107 114
54 58 61 65 67 70 73 77 81 83 83 81 77 75 74 74 73 73 73 75 77 73 66 61 58 54 49 43 42 48 57 66 72 70 69 68 66 64 67 76 90 102 111
55 58 62 65 68 71 74 77 81 82 81 78 75 73 73 72 72 72 73 75 74 68 61 57 53 48 43 36 30 32 41 52 64 69 68 68 66 64 63 68 79 94 106
56 59 63 66 68 71 74 78 80 81 79 75 73 72 71 70 70 71 72 73 70 63 57 52 48 44 39 32 23 19 25 37 51 62 65 65 65 64 62 62 70 84 99

GEFSSE_500_meanwind_042.txt.gz
Wind_Speed
8 9 9 10 12 13 15 16 18 20 22 24 25 27 28 29 30 32 33 34 35 36 36 36 35 36 36 36 36 37 37 38 39 39 40 39 37 35 32 29 28 27 27
9 10 11 13 15 16 18 20 22 24 25 27 29 30 32 33 34 35 37 38 39 40 41 41 41 41 41 40 40 40 39 38 39 40 42 42 41 40 38 36 33 31 30
11 12 14 16 18 19 21 23 25 26 28 30 32 33 35 36 38 39 40 41 42 43 44 45 46 46 46 46 45 45 44 43 42 42 43 43 43 44 43 41 39 37 35
14 15 17 18 20 21 23 25 27 29 31 32 34 36 38 39 41 42 44 45 46 47 48 49 49 50 51 51 51 50 49 48 48 47 47 46 45 45 45 45 44 42 40
16 18 19 20 22 23 25 27 30 32 34 36 38 39 41 43 44 46 47 49 50 51 52 53 54 54 55 55 55 55 55 54 53 53 52 51 50 49 48 47 47 46 45
18 20 21 22 24 26 28 31 33 35 37 39 41 43 44 46 48 49 51 52 53 55 56 57 58 59 59 60 60 60 60 59 58 58 57 57 56 55 53 51 50 49 48
20 21 23 25 27 29 31 34 36 38 40 42 44 45 47 48 50 52 54 55 57 59 60 62 63 64 64 65 65 65 65 65 64 63 63 62 61 60 59 57 55 53 51
22 24 26 28 30 33 35 37 39 41 42 44 46 47 49 51 53 55 58 60 62 64 66 67 68 70 70 71 71 71 71 70 70 69 68 67 67 66 65 63 61 59 57
25 27 29 31 33 35 37 39 41 43 44 46 48 50 53 56 59 61 64 66 68 70 71 73 74 76 77 77 78 78 78 77 76 75 74 73 72 72 70 68 67 65 62
28 30 32 34 36 38 39 41 42 44 46 49 52 55 58 61 64 67 70 72 75 77 79 81 82 84 85 86 86 87 86 85 84 82 81 79 78 77 76 74 72 71 68
30 33 35 37 38 40 41 43 45 47 49 52 55 59 62 65 68 71 74 76 79 83 86 89 92 94 96 97 98 98 97 96 94 91 89 87 85 83 81 79 78 76 74
32 35 36 38 40 41 43 45 47 50 53 55 59 62 65 68 71 73 76 80 84 88 92 97 102 105 108 109 110 111 110 108 106 102 99 96 93 90 88 85 84 81 79
34 36 38 39 42 44 46 48 50 52 55 59 62 65 68 71 73 76 79 83 88 94 99 105 109 113 115 116 117 116 115 115 113 111 109 105 102 99 96 92 90 87 85
36 37 39 41 44 46 48 50 52 55 58 62 65 68 70 73 76 79 84 90 96 101 106 110 111 110 109 108 106 105 105 106 108 110 111 110 109 107 103 100 97 94 91
37 39 41 43 45 47 50 52 55 58 61 64 67 70 72 75 78 83 89 95 101 106 108 106 102 97 93 90 89 89 89 91 94 98 103 106 109 110 109 107 104 100 98
38 41 43 45 47 49 52 54 57 60 63 66 68 71 73 77 82 88 94 100 103 103 99 93 88 85 83 82 82 83 84 85 86 88 92 96 101 105 108 109 108 106 104
40 42 44 46 48 51 53 55 58 61 64 67 69 72 76 81 86 93 98 100 99 93 87 84 81 80 80 81 81 82 83 84 85 86 87 90 93 98 103 106 109 109 108
41 43 45 47 49 51 54 56 59 62 65 67 70 74 78 84 90 96 98 96 91 85 82 80 79 79 79 80 81 82 82 83 84 85 86 87 90 92 96 101 106 108 110
42 44 46 48 50 52 54 57 59 63 65 68 72 76 81 87 93 96 95 90 84 81 78 77 77 77 78 79 78 75 72 72 74 78 82 85 87 90 93 96 102 107 110
43 45 47 49 50 52 55 58 60 63 66 69 73 78 84 90 94 94 90 84 80 77 76 75 74 75 77 76 71 66 63 63 65 67 72 78 84 87 90 94 99 105 109
44 47 49 50 51 53 55 58 61 64 67 71 75 80 86 91 93 90 85 80 77 75 74 73 74 75 73 70 66 60 56 56 58 59 62 67 74 82 88 92 97 102 107
47 49 51 52 53 54 56 59 62 65 68 72 77 82 87 91 90 86 81 77 75 73 72 72 74 74 69 65 62 59 55 49 47 48 51 57 64 74 83 90 94 99 104
49 52 54 55 55 56 58 60 63 66 69 73 78 84 88 89 87 83 78 75 73 71 71 72 74 72 66 59 57 56 55 50 41 36 37 44 55 66 76 85 90 94 100
51 55 57 58 59 59 60 62 64 68 70 74 79 84 87 87 84 80 75 73 72 71 71 72 73 69 64 57 51 49 48 46 41 31 25 30 42 57 70 79 85 90 94
53 56 60 62 62 62 62 64 66 69 72 75 80 84 86 85 81 77 73 72 71 70 70 71 71 66 60 55 49 44 40 37 35 30 21 19 30 46 62 71 78 83 87
55 58 61 64 66 65 65 66 68 70 72 76 80 84 85 83 78 74 72 71 70 70 70 70 70 65 58 51 46 42 38 34 30 26 20 16 21 35 51 63 71 77 80

GEFSSE_500_meanwind_048.txt.gz
Wind_Speed
5 6 7 8 10 11 12 13 14 16 17 18 19 20 22 23 24 25 26 28 29 30 31 32 32 33 33 34 34 34 34 34 34 35 36 36 37 37 37 37 36 34 32
7 8 9 11 12 13 14 15 16 18 19 21 22 23 25 26 27 29 30 31 32 33 34 35 36 36 37 38 38 39 39 39 39 39 40 40 40 40 40 41 41 40 38
9 10 11 12 13 14 15 17 18 20 22 24 26 27 28 29 31 32 33 34 35 35 36 37 38 39 40 41 42 43 43 44 44 44 44 45 45 44 44 44 44 44 44
11 12 13 14 15 16 18 20 22 24 26 27 28 30 31 32 33 34 34 35 36 37 38 39 40 41 42 43 45 46 47 48 48 49 49 50 50 50 49 48 47 47 47
13 14 15 16 18 19 22 23 25 27 28 30 31 32 33 34 34 35 36 37 38 39 40 41 42 43 45 46 47 49 50 51 52 53 54 54 55 55 55 54 53 51 51
14 15 17 19 20 22 24 26 28 29 31 32 33 33 34 34 35 36 37 39 40 42 43 45 46 47 49 50 51 52 53 54 55 57 58 59 60 61 61 61 59 58 56
16 18 20 21 23 25 27 28 30 31 32 32 33 33 35 36 37 38 40 41 43 45 47 49 50 52 53 55 56 57 58 59 60 61 62 63 65 65 66 66 65 64 62
19 20 22 24 26 27 29 30 31 32 32 33 34 35 37 38 39 41 43 45 47 49 51 53 55 57 59 61 62 63 65 66 66 67 68 69 70 71 71 72 71 70 68
21 23 24 26 28 29 30 31 32 33 34 35 36 37 39 41 42 44 46 48 50 53 56 58 60 62 65 67 69 71 73 74 75 75 76 76 77 77 77 77 77 76 75
22 24 25 26 28 29 30 31 33 34 36 37 38 40 41 43 45 46 49 51 54 57 60 63 65 68 72 75 78 81 83 85 86 87 87 86 86 86 85 84 83 82 81
22 23 25 26 27 29 31 32 34 36 38 39 41 42 44 45 47 49 52 54 57 60 64 67 70 74 78 82 86 90 94 96 98 99 99 99 98 96 95 93 91 89 87
22 23 24 26 28 30 32 34 36 38 40 41 43 45 46 48 49 52 54 57 60 63 67 71 75 79 83 88 94 99 103 107 110 111 111 110 109 107 106 103 100 97 95
21 23 25 27 28 30 33 35 37 39 41 43 45 47 48 50 52 54 57 60 63 66 70 74 78 83 88 94 99 105 109 113 114 114 114 113 113 114 115 114 112 108 104
21 23 25 27 29 31 34 36 38 41 43 44 46 48 49 51 53 56 58 61 65 68 72 76 81 87 93 99 104 108 109 108 105 102 100 99 100 103 109 115 119 118 115
21 23 25 27 30 32 34 36 39 41 43 44 46 48 50 52 54 57 59 63 66 70 74 79 85 91 96 101 104 103 101 98 95 92 89 88 87 89 93 101 112 120 122
22 24 26 28 30 32 34 37 39 41 43 45 47 48 50 52 54 57 60 64 67 71 76 82 88 94 98 99 98 95 92 90 87 86 86 85 86 87 88 91 98 108 118
23 25 27 29 31 33 35 37 40 42 44 46 47 49 51 53 55 58 61 65 69 74 79 85 91 94 95 94 91 88 84 83 82 83 83 83 83 84 87 90 94 99 107
25 27 29 31 32 34 36 38 41 43 46 48 49 51 52 54 56 59 63 67 71 76 82 88 92 93 91 88 85 81 78 78 79 79 77 76 74 75 79 85 92 96 100
26 28 30 33 34 36 38 40 42 45 48 50 52 53 54 56 58 61 64 68 73 79 85 89 91 90 87 84 80 76 75 75 75 74 72 69 67 66 67 73 82 92 98
26 29 32 34 36 38 39 42 44 47 50 53 55 56 57 58 60 62 66 70 75 81 86 89 88 86 83 80 77 74 73 72 71 68 66 64 62 61 61 64 70 80 91
27 30 33 35 38 40 42 44 46 49 52 55 58 60 60 61 62 64 68 72 78 83 86 87 86 83 79 78 76 73 70 68 65 63 61 59 58 57 57 59 62 71 81
28 31 34 37 39 42 44 46 48 51 54 57 60 62 63 64 64 66 70 74 79 84 86 85 83 80 77 76 76 75 70 62 57 56 55 54 54 53 52 52 56 63 72
30 32 35 38 41 44 46 48 50 53 56 59 62 64 66 66 67 69 72 76 81 84 84 83 80 78 75 73 74 75 72 65 57 49 47 48 48 47 46 44 46 53 65
31 34 37 40 43 46 48 50 52 55 57 60 63 66 68 69 69 70 74 77 81 83 83 80 78 76 75 73 71 71 69 66 61 51 42 41 42 42 40 39 37 43 55
34 36 38 41 44 47 50 52 54 56 58 61 65 67 69 70 71 72 75 78 81 82 80 78 75 74 74 73 71 68 64 61 58 55 46 37 34 36 36 35 33 33 43
37 39 41 43 45 48 51 53 56 58 60 62 65 68 70 72 73 74 76 78 80 80 78 75 73 72 72 72 70 67 63 58 54 51 46 38 31 29 31 31 30 28 33

GEFSSE_500_meanwind_054.txt.gz
Wind_Speed
1 2 3 4 5 6 7 9 10 12 13 14 16 17 18 19 20 21 21 22 22 23 23 23 23 23 23 24 24 24 24 25 25 27 28 28 28 28 28 28 29 29 30
3 4 5 6 8 9 10 12 13 15 16 18 19 20 21 22 22 23 23 24 24 24 24 24 25 25 25 25 25 25 25 26 27 28 30 30 31 31 32 32 33 33 33
5 7 8 9 10 12 13 15 17 19 20 21 22 23 23 24 24 24 24 24 25 25 25 26 26 26 27 27 27 27 28 28 29 30 31 33 33 34 34 36 36 37 37
8 9 11 12 13 15 17 18 20 21 22 23 24 24 24 24 25 25 25 25 25 26 26 27 28 28 29 29 30 30 31 32 33 33 34 36 37 37 38 38 39 41 42
11 12 13 15 16 18 20 21 22 23 24 24 24 25 25 25 26 26 26 27 28 28 28 29 30 31 31 32 33 34 34 35 36 37 38 39 40 42 42 42 43 43 45
13 14 16 17 19 20 21 23 23 24 24 24 25 25 26 27 27 28 29 30 30 31 32 32 33 33 34 35 36 37 38 38 39 40 41 43 44 46 47 48 48 48 48
15 16 18 19 20 21 22 23 23 24 24 24 25 26 27 28 29 30 31 32 33 34 34 35 36 37 38 39 40 40 41 42 43 44 45 46 48 49 51 52 53 54 54
16 17 18 19 20 21 21 22 23 23 24 25 26 27 28 29 30 31 32 34 35 36 37 38 39 40 41 42 43 44 45 46 47 48 49 50 52 53 55 56 57 59 60
16 17 18 19 20 20 21 22 22 23 24 25 26 27 29 30 31 32 34 35 36 37 38 40 41 43 44 45 46 47 49 50 51 52 54 56 57 59 60 61 63 65 66
16 17 18 18 19 20 20 21 22 23 24 25 27 28 29 30 31 33 34 35 36 38 39 41 43 44 46 47 49 50 52 53 55 56 58 60 62 64 66 69 70 72 73
16 16 17 18 19 20 20 21 22 24 25 26 27 28 29 30 31 32 33 35 37 38 40 42 43 45 47 49 51 53 54 56 57 59 62 65 67 70 74 76 79 81 82
15 15 17 18 18 20 21 22 24 25 26 27 28 28 30 31 32 33 34 36 38 39 41 43 44 46 49 51 53 55 57 59 61 64 66 69 73 76 80 84 88 92 94
14 15 16 17 19 21 22 23 25 26 27 29 29 30 31 32 34 35 36 38 39 41 43 45 46 48 50 52 54 57 59 61 64 67 70 74 78 82 87 92 98 101 103
14 15 16 18 20 21 23 24 26 28 29 30 31 32 34 35 36 37 38 40 41 43 45 47 48 50 52 54 56 58 61 64 67 70 74 79 83 89 94 99 103 105 108
14 15 17 18 20 22 24 26 27 29 31 33 34 35 36 37 38 39 40 42 43 45 47 49 50 52 53 56 58 60 63 67 70 74 79 84 89 95 99 101 103 105 106
14 16 17 19 21 23 25 27 28 30 32 34 36 37 38 39 40 42 43 44 45 47 49 51 53 54 56 57 60 63 66 70 74 78 83 88 94 98 100 102 102 100 99
16 17 18 20 21 23 25 27 29 31 33 35 37 38 39 41 42 44 45 46 47 49 51 54 55 57 58 60 62 65 69 73 78 82 87 92 96 98 100 100 99 96 92
18 19 20 22 23 25 26 28 30 32 35 37 38 40 41 42 43 45 46 48 49 51 53 56 58 60 61 62 65 68 71 76 81 85 89 93 95 97 97 96 93 89 85
20 22 23 25 26 27 28 30 32 34 36 38 40 42 43 44 45 47 48 49 51 53 55 58 60 62 64 65 67 70 74 78 83 87 90 92 94 94 93 91 87 83 79
24 25 26 27 28 29 31 32 34 36 38 40 42 43 44 46 47 48 50 51 53 55 57 60 62 64 66 68 69 72 76 80 84 87 89 90 91 90 89 86 81 76 72
27 28 29 30 31 32 33 35 36 38 40 42 44 45 47 48 49 50 51 53 55 57 59 61 64 66 69 70 72 74 76 80 83 84 85 86 86 85 83 81 76 71 67
30 31 32 34 35 36 36 38 39 41 42 44 46 47 49 50 51 52 53 55 56 58 61 63 66 68 71 73 75 77 78 79 81 82 82 82 82 80 79 76 72 68 64
32 34 35 36 37 38 39 40 41 43 45 47 48 49 51 52 53 54 55 56 58 60 63 65 67 70 72 75 78 80 82 82 83 80 77 77 76 74 74 71 68 65 61
35 37 38 39 40 41 42 43 44 46 47 49 50 52 53 54 55 56 57 58 60 62 65 67 70 72 74 77 79 82 83 85 86 83 76 72 71 69 68 67 65 61 57
38 39 41 42 42 44 45 46 47 48 49 51 52 54 54 56 57 57 58 60 62 64 66 69 72 74 76 78 80 81 82 83 84 84 78 70 65 64 63 63 62 59 54
41 42 43 44 45 46 47 48 49 50 52 53 54 56 56 57 58 59 60 62 64 66 68 71 73 75 77 79 80 81 81 81 81 81 79 72 65 59 58 58 58 57 53

GEFSSE_500_meanwind_060.txt.gz
Wind_Speed
3 3 3 3 4 5 5 6 7 8 10 11 13 14 15 16 17 18 18 18 18 18 18 18 18 18 18 19 20 21 21 22 22 22 22 22 22 22 23 23 23 22 23
2 3 3 4 5 6 7 8 10 11 13 14 15 17 18 18 18 18 18 18 18 18 18 17 18 18 18 19 20 21 21 22 22 23 23 23 24 24 25 25 26 26 26
4 5 5 6 7 8 10 11 12 14 15 16 17 18 18 18 18 19 19 19 19 19 19 19 19 19 20 20 21 22 23 23 24 24 24 24 25 25 26 27 28 28 29
6 7 8 8 9 11 12 13 14 15 16 16 17 17 17 18 18 19 19 20 20 20 21 22 22 22 23 23 24 25 25 26 26 27 27 28 28 28 28 29 30 30 31
9 10 10 11 12 12 13 14 14 15 16 16 16 16 17 17 18 19 19 20 21 22 22 23 24 24 25 26 26 27 28 29 30 30 31 32 32 33 33 33 33 34 34
11 11 12 12 13 13 13 14 14 15 15 15 16 16 17 17 18 18 19 20 21 22 23 24 25 26 27 28 29 30 31 32 33 34 35 36 36 37 37 37 38 38 38
12 12 12 12 13 13 13 13 14 14 14 15 15 16 16 17 18 19 19 20 21 22 23 24 25 26 27 28 30 31 32 34 35 36 38 39 40 41 41 42 42 42 43
13 12 12 12 12 12 13 13 13 14 14 15 15 16 17 18 19 19 20 21 21 22 23 24 24 25 26 28 29 31 32 34 36 37 39 40 42 43 44 45 45 46 47
12 12 12 12 12 12 12 12 13 14 15 16 17 18 18 19 20 21 21 22 23 23 24 24 25 26 26 27 29 30 32 33 35 38 39 41 43 44 46 47 48 49 50
12 11 11 11 11 11 12 12 13 14 16 17 18 19 20 21 22 23 24 25 25 26 26 27 28 28 29 29 30 30 32 33 35 37 39 41 43 45 47 49 50 51 52
11 11 10 10 10 11 11 12 14 15 16 18 19 20 21 22 24 25 26 27 28 29 30 30 31 31 32 32 33 33 33 34 35 37 38 40 42 45 47 50 52 54 55
10 10 10 10 10 11 12 13 14 16 17 19 20 21 22 24 25 27 28 29 30 31 32 33 33 34 35 35 36 36 37 37 37 38 39 41 42 44 47 49 52 54 56
10 10 10 10 10 11 12 14 15 17 18 19 21 22 23 25 26 27 29 30 31 32 33 34 35 36 37 38 39 39 40 40 41 41 42 43 44 45 47 50 52 54 57
11 11 11 11 12 12 14 15 16 17 19 20 22 23 24 25 27 28 30 31 33 34 35 36 37 38 39 40 41 41 42 43 43 44 45 46 47 48 50 52 53 56 58
12 12 13 13 14 15 16 17 18 20 21 23 24 25 26 27 28 30 31 33 35 36 37 38 39 40 41 42 43 44 45 45 46 47 48 49 50 52 53 54 56 58 60
14 14 15 16 17 18 19 20 22 23 24 25 27 28 29 30 31 32 34 36 37 38 39 40 41 42 43 44 45 46 47 48 49 50 51 52 54 55 57 58 59 61 62
16 17 18 18 19 21 22 23 25 26 28 29 30 31 33 34 35 36 37 39 40 41 42 43 44 45 45 46 47 48 49 51 52 53 54 56 57 59 60 62 63 65 66
20 20 21 22 23 24 25 27 28 30 31 32 33 35 36 37 38 39 40 41 43 44 46 47 47 48 48 48 49 50 51 53 54 56 58 59 61 62 64 65 66 68 69
23 24 24 25 27 28 29 30 31 33 34 35 36 38 39 39 40 41 43 44 45 47 49 50 51 51 51 51 51 52 54 55 56 58 60 62 64 65 66 68 68 70 71
26 27 28 29 30 31 32 33 34 36 37 38 40 41 41 42 43 44 46 47 48 50 52 53 53 53 53 53 53 54 55 57 59 60 62 64 66 67 68 69 70 71 73
29 30 31 32 33 34 35 36 37 38 40 41 43 44 45 45 46 47 48 49 51 52 54 55 55 55 56 56 56 56 57 58 60 62 63 65 67 68 69 71 72 73 74
32 33 35 35 37 37 39 40 40 42 43 44 46 47 48 49 49 49 51 52 53 55 57 57 57 57 57 58 58 58 59 60 60 61 64 66 68 69 71 72 73 75 76
35 37 38 39 40 41 42 43 43 45 45 47 48 50 51 52 52 53 53 55 55 57 58 59 59 59 59 59 59 60 61 62 63 63 64 67 69 70 72 73 75 77 79
39 41 41 42 43 44 46 46 47 48 49 50 52 53 54 55 55 55 56 57 58 58 60 60 60 60 60 60 60 61 63 64 65 65 66 68 69 71 72 74 76 78 81
42 43 44 46 47 48 49 50 51 51 52 53 54 55 56 57 58 58 59 60 60 60 61 62 62 62 61 61 62 63 64 66 67 67 66 68 70 71 73 75 77 79 81
45 46 48 49 50 51 52 53 53 54 55 56 57 57 58 59 59 60 62 62 62 61 62 63 63 63 62 62 63 65 66 67 68 68 68 68 69 70 73 75 78 80 81

GEFSSE_500_meanwind_066.txt.gz
Wind_Speed
3 3 4 5 5 6 6 7 8 9 10 11 12 13 13 13 13 14 14 14 14 14 14 15 16 16 17 17 17 17 17 17 17 18 18 19 19 19 20 20 20 20 20
2 3 4 5 6 7 8 9 10 11 12 13 13 13 14 14 13 13 13 13 14 14 14 15 15 16 17 17 17 18 18 18 18 19 19 19 20 20 21 22 22 23 23
3 5 6 7 8 9 10 11 12 13 13 14 14 14 13 13 13 13 13 14 14 14 14 15 16 16 17 18 19 19 20 20 20 20 21 21 21 21 22 22 23 23 24
5 7 8 9 10 11 12 12 13 13 14 14 14 13 13 13 13 13 13 13 14 14 15 15 16 17 18 19 20 21 22 22 23 23 23 23 24 24 24 25 25 25 26
8 9 10 11 12 12 13 13 13 14 14 14 13 13 13 13 13 13 13 14 14 14 15 15 16 17 18 19 20 21 22 23 24 25 26 26 27 27 28 28 28 28 28
10 11 12 13 13 13 14 14 14 14 13 13 13 12 12 12 13 13 14 14 15 15 16 16 17 18 18 19 20 21 22 23 24 25 26 27 28 29 30 31 32 32 32
13 13 14 14 14 14 14 14 14 13 13 12 12 12 12 13 13 14 15 16 17 17 18 18 19 19 20 20 21 21 22 23 24 25 26 27 28 29 31 32 33 34 35
15 15 15 14 15 14 14 14 13 13 12 12 12 12 13 14 15 16 16 17 18 19 20 20 21 22 22 22 23 24 24 25 25 26 27 27 28 29 31 32 33 35 36
16 15 16 15 15 15 14 14 13 13 12 12 12 13 14 15 15 17 18 19 20 21 21 22 23 24 25 25 26 26 27 27 28 28 29 29 30 30 31 32 33 34 36
17 16 16 16 15 15 14 14 13 13 12 12 13 13 14 15 16 17 18 19 21 22 23 24 24 25 26 27 28 29 29 30 31 31 32 32 32 33 33 34 35 35 36
17 17 16 16 16 15 15 14 14 13 13 13 14 14 15 16 17 18 19 20 21 22 24 24 25 26 27 28 29 30 31 32 33 34 34 35 35 36 36 37 38 38 39
18 17 17 16 16 16 15 15 14 14 14 14 15 16 16 18 18 20 21 22 23 24 25 26 26 27 28 29 30 31 32 33 34 35 36 37 38 39 39 40 40 41 42
18 18 18 17 17 17 16 16 16 16 16 16 17 18 19 20 21 22 23 24 25 26 27 28 29 29 30 31 31 32 33 34 35 36 38 39 40 41 42 43 43 44 44
19 20 19 19 19 18 18 18 19 19 19 19 20 21 22 23 24 25 26 27 28 29 30 31 32 32 33 33 34 34 35 36 37 38 39 41 42 43 44 45 46 47 47
21 21 21 21 21 21 21 21 22 22 22 23 23 24 25 26 27 28 29 30 31 32 33 34 35 35 36 37 37 38 38 39 39 40 41 42 43 44 46 47 48 49 49
22 23 23 23 24 24 24 24 25 25 26 26 27 28 29 30 31 32 33 34 35 36 37 37 38 39 39 40 41 42 42 43 43 43 44 44 45 46 47 48 49 50 51
24 25 25 26 27 27 28 28 29 29 29 30 32 33 33 34 35 36 36 38 39 39 40 41 42 42 43 44 44 45 46 47 47 47 47 47 48 48 49 50 51 52 52
27 27 28 29 29 30 31 32 32 33 33 34 36 37 38 39 39 40 40 41 42 43 44 45 45 46 47 47 48 49 50 50 51 51 51 51 51 51 51 52 52 53 54
30 30 30 31 32 34 35 35 36 36 37 38 39 40 41 42 43 43 44 45 45 46 47 48 49 50 50 51 51 52 53 53 54 54 54 54 54 54 54 54 54 54 55
32 32 33 34 35 37 38 38 39 40 40 42 43 43 44 45 47 47 47 48 49 49 50 51 52 53 54 54 54 55 55 56 56 57 57 57 57 57 56 56 56 56 57
33 34 35 37 38 39 40 41 42 43 44 44 44 45 46 47 49 51 51 51 52 53 53 54 56 56 57 57 58 58 58 58 58 59 59 59 59 59 59 58 58 58 59
33 35 37 38 39 41 42 43 44 45 45 45 46 47 49 51 52 53 54 54 55 56 56 57 58 59 59 60 60 61 61 60 60 60 59 59 59 60 60 60 60 60 60
33 35 37 38 40 41 43 44 45 46 47 47 48 50 52 54 54 55 56 58 58 59 59 59 60 61 62 62 62 63 63 63 62 60 58 58 59 60 61 61 61 61 61
33 34 36 38 40 42 44 45 46 47 48 49 51 53 54 55 56 57 58 59 60 61 61 62 63 63 64 65 65 64 65 64 63 62 60 59 59 60 61 60 60 61 62
34 35 37 39 41 43 44 46 48 49 50 52 54 55 55 57 58 59 60 61 62 63 64 64 65 66 66 66 66 66 64 63 62 62 61 60 60 60 61 60 60 61 62
36 37 39 40 42 44 46 47 49 50 52 54 55 56 57 58 59 60 61 63 64 65 65 66 67 67 67 67 66 65 64 63 63 62 61 60 61 61 61 60 61 62 62

GEFSSE_500_meanwind_072.txt.gz
Wind_Speed
7 6 6 6 6 6 6 7 7 7 8 9 9 10 11 12 12 13 13 13 12 12 12 12 12 12 12 12 13 13 14 14 15 16 16 17 17 17 18 18 19 19 19
6 6 6 6 6 6 6 7 8 8 9 10 10 11 12 12 12 12 12 13 12 12 13 13 13 12 13 13 13 13 14 14 15 16 16 17 18 18 19 20 20 21 21
5 5 6 6 6 7 7 8 9 9 10 11 11 12 12 12 12 12 12 12 12 12 13 13 13 13 13 14 14 15 16 16 16 17 18 18 19 20 20 21 21 22 22
5 6 6 7 7 8 9 9 10 10 11 12 12 12 12 12 12 12 12 12 12 12 12 13 13 13 14 14 15 16 17 17 18 19 20 20 21 22 22 23 23 24 24
7 7 8 9 9 9 10 10 10 11 12 12 13 12 12 12 12 12 12 12 12 12 13 13 14 14 14 15 15 16 17 18 19 20 21 22 23 24 25 26 26 27 27
9 9 10 11 11 11 11 11 11 12 12 12 12 12 12 12 11 12 12 12 12 13 13 14 14 15 15 16 16 17 18 18 19 20 21 22 23 25 26 27 28 29 30
12 12 12 12 12 12 12 12 12 12 12 12 12 12 12 12 12 12 12 12 13 13 14 14 15 15 16 17 17 18 19 19 20 21 22 22 23 25 26 27 28 29 30
14 14 13 13 13 13 13 13 13 13 13 12 12 12 12 12 12 13 13 13 13 14 14 14 15 16 16 17 18 19 20 21 22 23 23 24 25 26 26 27 28 29 30
15 15 14 14 14 14 14 14 14 14 13 13 13 13 13 13 13 13 13 13 13 14 14 15 16 16 17 18 19 20 20 21 22 23 24 26 27 28 29 29 30 30 31
16 16 15 15 15 15 15 15 15 14 14 14 14 14 14 14 14 14 14 14 14 15 16 16 17 18 18 19 20 20 21 22 23 24 25 26 27 29 30 31 32 33 33
16 16 16 16 16 16 16 16 16 15 15 15 15 15 15 15 15 16 16 16 17 17 18 19 19 20 20 21 22 22 23 24 25 25 26 27 28 29 31 32 33 34 35
16 17 17 17 17 17 17 17 17 17 17 17 17 17 18 18 18 18 19 19 20 20 21 22 22 23 24 24 25 26 26 27 27 28 29 29 30 31 32 33 34 36 37
16 18 18 18 18 18 18 18 19 19 19 20 20 20 20 21 21 22 22 23 23 24 24 25 26 27 27 28 28 29 29 30 31 32 32 33 33 34 35 36 36 37 38
17 18 19 19 19 19 20 20 21 21 22 23 23 23 23 24 25 25 25 26 27 27 28 29 29 30 31 31 32 32 33 34 34 35 36 36 37 38 38 39 40 40 41
19 19 20 20 21 22 22 23 24 25 25 26 26 26 27 28 29 29 29 30 31 31 32 32 33 34 34 35 35 36 37 37 38 39 39 40 41 41 42 43 43 44 44
21 21 21 22 23 24 25 26 27 28 28 29 30 30 31 32 33 33 34 34 35 36 36 36 37 38 39 39 39 40 40 41 41 42 43 44 44 45 46 46 47 47 47
22 23 23 24 25 26 27 29 30 31 32 32 33 34 35 35 36 37 38 39 40 40 40 40 41 42 42 43 43 44 44 45 45 46 46 47 48 48 49 50 50 51 51
23 24 25 26 27 28 29 31 32 33 34 35 36 37 38 39 40 41 42 43 44 44 44 44 45 45 46 46 47 48 48 48 49 49 49 50 51 52 52 53 53 54 54
24 25 26 28 29 30 31 32 34 35 36 38 39 40 41 43 44 45 45 46 47 48 48 48 49 50 50 50 51 51 51 51 52 52 52 53 54 54 55 55 56 56 57
24 25 26 28 30 32 33 34 35 36 37 39 40 42 43 44 46 47 48 49 50 51 51 52 53 53 54 54 55 55 55 55 55 55 55 56 56 56 57 57 58 59 59
24 26 27 28 30 32 34 35 36 37 38 39 41 42 44 45 47 49 50 52 53 54 55 55 56 56 57 58 59 58 58 58 57 57 58 58 58 59 59 60 61 61 61
25 27 28 29 31 33 35 37 38 39 39 40 41 43 45 48 50 52 53 54 56 57 57 58 59 60 60 62 62 62 61 60 59 59 60 59 60 61 61 62 62 62 62
27 28 29 30 32 33 35 37 38 40 41 42 44 46 48 50 52 53 55 56 58 59 60 61 62 62 63 64 65 65 65 63 62 61 60 60 61 61 62 62 62 61 62
28 29 30 31 32 34 35 37 39 41 42 44 47 48 50 52 54 56 57 59 60 61 62 63 64 65 66 66 67 67 67 67 67 64 61 61 61 61 61 62 62 62 61
29 31 32 33 34 35 37 39 40 42 43 45 47 49 51 54 56 57 59 61 62 64 65 66 67 68 69 69 69 69 69 68 68 67 65 63 62 61 62 62 62 61 61
30 31 33 34 35 36 37 39 40 42 43 45 47 49 52 54 57 59 61 63 64 65 66 67 68 69 69 70 70 70 69 69 68 68 68 65 64 63 63 62 61 61 60

GEFSSE_500_meanwind_078.txt.gz
Wind_Speed
11 12 12 11 11 11 11 10 10 10 10 10 10 10 10 10 11 11 11 11 12 12 12 12 12 12 13 13 14 14 15 15 16 17 17 18 18 18 19 19 20 20 20
10 10 10 10 10 10 9 10 10 10 10 10 11 11 11 11 11 11 11 11 11 11 12 12 12 12 13 13 13 14 14 15 15 16 16 17 18 19 19 20 21 21 22
8 8 8 8 9 9 9 10 10 11 11 11 11 11 11 11 11 11 11 11 11 11 11 12 12 12 12 13 13 14 14 15 16 16 17 17 18 18 19 20 21 22 23
8 8 8 9 9 10 10 11 11 11 12 12 12 12 12 12 11 11 11 11 11 11 11 11 11 11 12 12 13 14 14 15 16 17 18 18 19 20 20 21 22 22 23
8 9 9 10 11 11 12 12 12 12 12 12 12 12 12 12 11 11 10 10 10 10 11 11 11 12 12 13 14 14 15 15 16 17 18 19 19 20 22 22 23 24 25
9 10 11 12 12 13 13 13 13 13 13 13 13 13 12 12 11 11 10 10 10 10 11 11 12 12 13 13 14 14 15 16 16 17 18 19 20 21 22 23 24 25 26
12 12 13 14 14 14 14 14 14 14 14 14 14 13 13 12 12 12 11 11 11 12 12 12 13 13 14 14 14 15 16 16 17 18 19 20 20 21 22 23 24 25 26
13 14 14 15 15 16 16 16 16 16 15 15 15 14 14 13 13 13 13 13 13 13 14 14 14 14 14 15 15 16 16 17 18 19 20 21 21 22 23 24 25 26 27
15 15 16 16 17 17 17 17 17 17 17 17 16 16 15 15 15 14 14 15 15 15 15 15 15 15 16 16 16 17 17 18 18 19 20 21 22 22 23 24 25 26 27
17 17 17 18 18 18 18 19 19 19 19 18 18 17 17 17 16 16 17 17 17 17 17 17 17 17 18 18 18 19 19 19 20 20 21 22 22 23 24 25 25 26 27
17 18 18 19 19 20 20 20 20 20 20 20 19 19 19 19 19 19 19 19 19 19 19 20 20 20 21 21 22 22 22 23 23 24 24 24 25 25 26 26 27 28 29
18 18 19 20 20 20 21 21 21 21 21 21 21 21 22 22 22 22 22 22 22 22 23 23 23 24 24 25 25 26 26 26 27 27 27 28 28 29 29 30 30 31 32
19 20 20 20 21 21 22 22 22 23 23 23 24 24 24 24 25 25 25 26 26 26 27 27 27 28 28 29 29 30 30 30 31 31 31 31 32 32 33 33 34 35 35
20 21 21 21 22 22 23 24 24 25 25 26 26 26 27 27 28 29 29 29 30 31 31 32 32 32 33 33 34 34 35 35 35 35 35 36 36 36 37 37 38 38 39
21 22 23 23 23 24 25 26 26 27 28 28 29 30 30 31 32 32 33 34 34 35 36 36 36 37 37 38 38 39 39 39 40 40 40 40 40 41 41 41 42 42 43
22 23 23 24 25 25 26 27 28 29 30 31 32 32 33 34 35 36 37 37 39 40 40 41 41 41 42 42 43 44 44 44 44 44 44 44 44 45 45 45 46 46 46
22 23 24 25 25 26 27 29 30 31 31 32 34 35 36 37 38 39 40 41 42 44 44 45 45 46 46 47 48 48 48 48 48 48 48 48 48 49 49 49 49 50 50
22 23 24 25 26 27 28 29 30 31 32 34 35 36 37 39 40 41 42 44 46 46 47 47 48 49 50 51 51 52 52 52 51 52 52 51 52 52 52 53 53 53 53
23 23 24 25 26 27 28 29 30 32 33 35 36 37 39 40 42 43 44 45 47 48 49 50 50 51 52 53 54 55 55 54 54 55 54 54 55 55 55 56 56 56 56
24 25 26 26 27 28 29 30 31 32 34 35 37 38 40 41 43 44 45 46 48 49 50 52 52 53 54 55 56 56 56 57 57 57 56 57 57 58 58 58 59 58 58
26 27 27 28 28 29 30 30 31 32 33 35 37 38 40 42 43 45 46 47 49 50 52 53 54 55 56 57 58 58 58 59 59 58 59 59 59 60 60 61 61 61 61
27 28 28 29 29 29 30 30 31 32 33 35 37 38 40 42 44 45 47 48 50 51 53 54 56 57 58 59 61 62 61 60 60 61 62 62 62 62 63 63 63 64 64
29 30 30 30 31 31 31 31 32 33 34 36 38 39 41 42 44 45 47 49 50 52 53 55 57 59 60 61 63 64 65 63 62 63 64 64 65 65 65 65 66 66 67
30 31 31 31 31 31 32 32 33 34 35 37 38 40 41 43 44 46 47 49 51 52 54 56 58 60 62 63 64 66 67 67 67 65 64 65 66 67 67 67 68 69 69
30 30 30 30 30 30 31 32 33 34 35 37 38 40 41 43 45 47 49 51 53 55 56 58 60 62 64 65 67 68 69 70 71 71 68 67 68 68 69 70 70 71 71
30 30 30 29 29 30 31 32 34 35 36 38 40 41 43 45 47 49 51 53 55 57 59 61 63 65 67 68 69 71 71 72 73 74 73 71 71 70 71 71 72 72 72

GEFSSE_500_meanwind_084.txt.gz
Wind_Speed
13 14 14 14 14 14 15 15 15 15 15 15 15 15 16 16 16 17 17 17 17 17 17 17 17 17 17 17 18 18 18 18 19 19 19 19 20 20 21 21 21 21 21
13 13 13 14 14 14 14 15 15 15 15 15 15 16 16 16 17 17 17 18 18 17 17 17 17 17 17 17 17 17 18 18 18 18 19 19 20 20 21 21 21 22 22
13 13 13 13 13 13 14 14 14 15 15 15 16 16 16 17 17 18 18 18 18 17 17 17 16 17 17 17 17 17 18 18 18 18 19 19 19 20 20 21 21 22 22
12 13 13 13 13 13 13 13 14 15 15 16 16 16 17 17 18 18 18 18 17 17 17 17 16 16 16 16 16 17 17 17 18 18 18 19 19 20 21 21 22 22 23
12 12 12 13 13 14 14 14 15 15 16 16 16 16 17 17 18 18 18 18 17 17 17 16 16 16 15 15 16 16 16 16 17 18 18 19 19 19 20 21 21 22 23
12 13 13 13 14 15 15 15 16 16 16 17 17 17 17 17 17 17 17 17 17 17 16 16 16 16 16 16 16 16 16 17 17 18 18 19 19 20 21 21 22 23 23
13 14 14 15 15 15 16 16 17 17 17 17 18 18 18 17 18 17 17 17 17 17 17 17 16 16 16 16 17 17 17 18 18 18 19 19 20 21 21 22 23 24 25
15 15 16 16 17 17 17 18 18 18 18 18 19 19 19 18 18 18 18 18 18 18 18 18 17 18 18 18 18 18 18 18 18 19 19 20 20 21 22 23 23 24 25
16 17 18 18 19 19 19 19 19 19 20 20 20 20 20 20 20 20 20 19 19 19 19 19 19 19 19 19 19 19 19 19 20 20 21 21 21 22 22 23 24 24 25
18 19 20 20 21 21 21 21 21 21 21 22 22 22 22 22 22 22 22 21 21 21 21 21 21 21 21 21 21 21 21 22 22 22 23 23 23 24 24 25 25 26 26
19 19 21 22 22 22 22 23 23 23 23 24 24 24 24 24 24 24 24 24 23 23 23 23 23 23 23 23 24 24 24 24 24 25 25 25 26 26 27 27 27 28 28
18 19 21 22 23 23 24 24 24 25 25 25 25 26 26 26 26 26 26 26 26 26 26 26 26 26 26 26 27 27 27 28 28 28 28 29 29 29 30 30 30 31 31
19 20 21 22 23 24 24 25 25 26 26 26 27 27 27 28 28 28 28 29 29 29 29 29 30 30 30 30 31 31 31 32 32 32 32 32 33 33 33 34 34 34 34
20 20 21 22 23 24 25 26 26 27 27 28 28 28 29 29 30 30 31 31 32 32 33 33 33 33 34 35 35 36 36 36 36 37 37 37 37 37 37 38 38 38 38
21 21 21 22 23 24 25 26 27 27 28 29 29 30 30 31 32 32 33 34 35 35 36 36 37 37 38 39 39 40 41 41 41 41 41 41 41 41 41 42 42 42 42
21 21 22 22 23 24 25 26 27 27 28 29 30 30 31 32 33 34 35 35 37 38 39 39 40 41 41 42 43 44 45 45 46 46 46 46 46 45 46 46 46 46 46
21 21 22 22 22 23 24 25 26 27 28 29 30 31 32 33 34 35 35 36 38 39 39 40 41 42 43 45 46 47 48 48 49 49 49 49 49 50 50 50 50 50 50
20 21 21 22 23 23 24 25 26 28 28 29 30 31 33 34 34 35 36 37 38 39 40 41 42 43 44 46 47 48 49 50 51 51 52 52 52 53 53 53 54 54 54
21 21 22 23 24 25 26 27 28 29 30 31 32 33 34 34 35 36 36 38 39 40 41 42 43 44 45 47 48 49 50 51 52 53 53 54 54 55 55 56 57 57 57
22 23 23 24 25 26 27 28 29 30 31 31 32 33 34 34 35 36 36 38 39 40 41 43 44 45 46 48 49 50 51 52 53 53 54 55 56 56 57 58 59 59 60
23 24 25 26 27 28 29 29 30 30 31 32 33 33 34 35 36 37 37 39 40 41 42 44 45 46 47 49 50 51 52 52 53 54 55 57 58 59 60 61 62 62 62
25 26 26 27 28 29 29 30 30 31 32 33 33 34 35 35 36 37 38 40 41 42 43 45 46 48 48 50 52 53 53 53 54 55 57 59 60 62 63 64 65 65 66
27 27 28 29 29 30 30 30 30 31 31 32 32 33 34 35 36 37 39 40 42 43 44 46 48 49 50 52 54 56 58 58 58 58 59 61 63 65 66 67 68 69 69
28 29 29 30 30 30 29 29 29 29 30 31 32 33 34 36 37 39 40 42 43 45 47 49 51 53 55 56 58 60 63 65 66 65 64 65 66 67 69 71 72 73 73
29 30 30 30 30 30 29 29 29 30 31 32 33 34 36 38 39 41 43 45 47 49 51 53 56 58 60 62 64 66 68 70 72 74 73 72 72 72 73 74 75 76 77
30 31 31 31 30 30 30 30 31 32 33 34 35 37 39 41 43 45 47 49 52 54 56 59 61 63 66 68 70 72 74 76 77 80 81 80 80 80 80 80 79 80 80

GEFSSE_500_meanwind_090.txt.gz
Wind_Speed
11 12 13 14 14 15 15 15 16 16 16 17 17 17 17 17 17 18 18 18 18 18 18 19 19 19 20 20 20 20 20 20 19 19 19 19 19 19 19 19 19 19 19
11 12 13 14 14 15 15 16 16 17 17 17 17 17 18 18 18 18 18 18 19 19 19 19 20 20 20 20 20 20 20 20 20 19 19 19 19 19 19 19 19 19 19
11 12 13 14 14 15 16 16 17 17 17 17 17 18 18 18 19 19 19 19 19 19 20 19 19 19 20 20 19 19 19 19 19 19 19 19 19 19 19 19 19 19 19
11 12 13 14 15 15 16 16 17 17 17 18 18 18 19 19 19 19 19 19 19 19 19 19 19 19 19 19 19 19 19 18 18 18 18 18 18 18 18 19 19 19 19
10 12 13 14 15 15 16 16 17 17 18 18 19 19 19 19 19 19 19 19 19 19 19 19 19 19 18 18 18 18 18 17 17 17 17 17 18 18 18 18 18 19 19
11 12 13 14 15 16 16 17 17 18 18 19 19 19 19 19 19 19 19 19 19 19 19 18 18 18 18 18 18 18 18 17 17 17 17 18 18 18 18 18 18 19 19
12 13 14 14 15 16 17 18 18 19 19 19 19 19 19 19 19 19 19 19 19 19 19 18 18 18 18 18 18 18 18 18 18 18 18 18 18 18 18 19 19 20 20
13 14 15 16 17 17 18 19 19 19 20 20 20 20 20 20 20 20 20 20 20 20 20 20 19 19 19 19 18 19 19 19 19 19 19 19 19 19 19 19 20 20 20
15 15 17 18 19 19 20 20 21 21 21 21 22 22 22 22 22 22 22 22 22 22 21 21 20 20 20 20 20 20 20 20 20 20 20 20 20 20 21 21 21 21 22
17 17 18 19 20 21 21 22 22 23 23 23 23 23 23 23 24 24 24 24 24 23 23 23 22 22 22 22 23 23 22 22 22 22 22 22 22 22 22 23 23 23 24
18 18 19 20 21 22 23 23 23 24 24 24 25 25 25 25 25 26 26 25 25 25 25 25 25 25 25 25 25 25 25 25 25 25 25 25 25 25 25 26 26 26 27
19 19 20 20 21 22 23 24 24 25 25 25 26 26 26 26 26 27 27 27 27 27 27 27 27 27 28 28 28 28 28 28 28 28 29 29 29 29 29 30 30 30 30
20 21 21 21 22 23 23 24 25 25 25 26 26 27 27 27 28 28 28 28 28 29 29 29 30 30 30 31 31 31 31 32 32 33 33 33 34 34 34 34 34 35 35
21 22 22 22 22 23 24 24 24 25 26 26 26 27 27 28 28 29 29 29 30 30 31 31 32 33 33 34 34 35 35 36 36 37 37 38 38 39 39 39 40 40 40
22 22 22 23 23 23 24 24 24 25 25 26 26 27 27 28 29 29 29 30 31 32 32 33 34 34 35 36 37 38 39 39 40 40 41 42 43 43 44 44 45 45 45
22 22 22 23 23 24 24 24 24 24 25 25 26 27 28 28 29 30 30 31 32 33 34 34 35 36 37 38 39 40 41 42 43 43 44 45 46 47 47 48 49 50 50
22 22 22 23 23 23 24 24 24 25 25 26 27 28 29 29 30 30 31 32 33 33 34 35 36 37 38 39 39 41 42 43 43 44 46 46 48 49 50 51 52 53 54
22 22 22 23 23 23 24 25 25 26 26 27 28 29 30 30 31 31 32 32 33 34 34 35 36 37 38 39 40 41 42 43 44 45 46 47 48 49 50 52 53 54 55
22 22 22 23 23 24 25 25 26 27 28 29 30 31 31 32 32 32 32 33 34 34 34 35 36 37 38 39 40 41 42 43 44 45 46 48 49 50 51 52 53 55 56
21 22 22 23 23 24 25 26 27 28 29 30 31 32 32 33 33 33 34 34 34 35 35 36 37 38 39 40 41 41 42 43 44 45 47 48 49 50 51 52 53 55 56
22 22 22 23 23 25 26 27 28 29 30 30 31 32 32 32 33 33 33 33 34 34 35 36 37 38 40 41 42 42 42 43 45 46 47 48 49 51 52 53 55 56 58
22 23 23 24 25 27 28 29 29 30 30 30 30 31 31 31 32 32 33 34 35 36 37 38 39 40 41 43 44 45 44 44 46 48 49 50 52 53 55 56 58 60 61
23 24 25 26 27 28 29 30 30 31 31 31 31 32 32 33 33 34 35 36 37 38 39 40 42 43 44 45 48 50 51 51 51 51 53 55 57 58 59 60 62 64 66
24 25 26 28 29 30 31 32 32 32 32 32 32 33 34 35 36 36 37 38 39 40 42 44 46 47 49 50 52 54 57 58 59 58 57 59 61 63 64 66 67 68 70
26 27 29 30 31 32 33 33 33 33 33 34 35 35 36 37 38 39 40 41 43 45 47 48 50 52 54 55 57 59 60 62 64 66 65 64 65 66 69 71 72 74 75
28 29 31 32 33 34 34 35 35 35 36 36 37 38 39 40 41 42 44 45 47 49 51 52 54 56 58 60 61 63 65 66 68 70 72 71 72 71 73 74 76 78 79

GEFSSE_500_meanwind_096.txt.gz
Wind_Speed
7 8 9 9 10 10 11 11 12 12 13 13 14 14 15 15 16 16 16 17 17 17 18 18 18 18 18 19 19 19 19 19 19 19 18 18 18 18 18 17 17 17 17
7 8 8 9 9 10 11 12 12 13 14 14 15 15 15 16 16 17 17 18 18 18 19 19 19 19 19 19 19 19 19 19 19 19 19 19 19 18 18 18 18 18 17
8 8 9 9 10 10 11 11 12 13 14 14 15 15 16 16 17 17 18 18 19 19 19 19 20 20 20 20 19 19 19 19 19 19 19 19 19 19 19 18 18 18 18
8 8 9 9 10 10 11 11 12 12 13 14 15 15 16 17 17 18 18 19 19 19 19 19 20 20 20 19 19 19 19 19 19 19 19 19 19 19 19 18 18 18 18
7 8 8 9 10 10 11 11 12 13 14 14 15 16 17 17 18 18 19 19 19 19 20 20 20 20 20 19 20 19 19 19 19 20 19 19 19 19 19 18 18 18 18
8 8 9 9 10 11 11 12 13 14 14 15 16 16 17 18 18 18 19 19 19 20 20 20 20 20 20 20 20 20 20 20 20 20 20 20 20 19 19 19 19 19 19
8 8 9 10 10 11 12 13 14 15 15 16 17 17 18 18 19 19 20 20 20 20 21 21 21 21 21 21 21 21 21 21 21 21 21 21 21 21 21 21 21 21 21
10 9 10 11 11 12 13 14 15 15 16 17 18 19 19 20 20 21 21 21 22 22 22 22 22 23 23 23 22 22 22 23 23 23 23 23 23 23 23 23 23 22 22
11 11 12 12 13 14 15 16 16 17 18 18 19 20 20 21 22 22 23 23 24 24 24 24 25 25 25 25 24 24 24 25 25 25 25 25 25 25 25 25 25 25 24
12 13 14 15 15 16 17 17 18 19 19 20 21 21 22 23 23 24 24 25 25 26 26 26 26 27 27 27 27 27 27 27 28 28 28 28 28 28 28 28 28 27 27
14 15 15 16 17 18 18 19 20 20 21 22 22 23 24 24 25 26 26 27 27 27 28 28 28 28 28 29 29 29 30 30 30 31 31 31 31 31 31 31 31 31 31
15 16 17 18 19 19 19 20 21 21 22 23 23 24 25 26 26 27 27 28 28 28 29 29 30 30 31 31 31 32 32 33 33 34 34 34 34 35 35 35 35 35 35
16 17 18 19 20 20 21 21 21 22 23 23 24 25 25 26 26 27 28 28 29 29 30 31 31 32 32 33 34 34 35 35 36 36 37 37 38 38 38 39 39 40 40
18 19 20 20 21 21 21 22 22 23 24 24 25 25 26 26 27 27 28 29 30 30 31 32 32 33 34 35 35 36 36 37 38 38 39 40 41 41 42 42 43 43 44
20 19 20 21 21 22 22 23 23 24 25 25 25 25 26 27 27 28 29 30 31 32 32 33 34 34 35 36 37 37 38 38 39 39 40 41 42 43 44 45 46 46 47
21 21 21 21 22 22 23 24 24 25 25 26 26 26 27 28 28 29 30 31 32 33 33 34 35 35 36 36 37 37 38 39 39 40 41 42 43 44 45 46 47 48 49
22 22 22 22 23 23 24 24 25 25 26 27 27 28 29 29 30 31 32 33 33 34 34 35 35 36 36 37 37 38 38 39 40 41 41 42 44 45 46 47 48 49 49
22 23 23 24 24 24 25 25 26 26 27 28 28 29 30 30 31 32 33 34 34 35 35 35 36 36 37 37 37 38 39 40 40 41 42 43 44 45 46 47 48 49 50
23 23 23 24 24 25 25 26 26 27 27 28 29 30 31 32 33 33 34 34 34 35 35 36 36 36 37 38 38 38 39 39 40 41 42 43 44 45 46 48 49 50 51
23 23 23 24 24 24 25 26 27 27 28 29 30 31 32 33 33 34 34 34 34 35 35 36 36 37 37 38 38 38 39 40 41 42 43 44 45 46 47 48 50 51 52
23 23 23 23 24 24 25 26 27 28 29 30 31 32 33 34 34 34 34 35 35 36 36 37 37 38 39 40 40 40 40 41 42 44 44 45 47 48 49 50 51 52 54
23 23 23 23 23 24 26 27 28 29 30 32 33 34 34 35 35 35 35 36 36 37 38 38 39 40 41 43 43 43 42 42 44 45 47 48 49 51 53 54 56 57 58
23 23 23 23 24 25 27 29 30 31 32 34 34 35 35 36 36 37 37 38 38 39 40 41 42 43 43 45 47 48 48 47 47 47 49 51 53 55 57 58 60 61 62
23 23 24 25 26 27 28 30 31 33 34 35 36 36 37 38 39 39 40 40 41 42 43 43 45 46 46 47 49 52 53 54 54 53 52 53 56 57 59 61 63 65 66
24 24 25 26 27 29 30 32 33 34 35 36 37 38 39 40 40 41 42 43 43 44 45 46 47 49 50 51 53 54 56 58 60 61 59 58 59 60 62 64 66 67 69
25 26 27 28 29 31 32 33 35 36 37 38 39 40 41 41 42 43 44 44 45 46 48 49 50 52 53 55 56 57 59 60 62 64 65 65 64 64 65 66 68 70 72

GEFSSE_500_meanwind_102.txt.gz
Wind_Speed
9 10 10 10 10 11 11 12 12 12 12 12 13 13 13 14 14 14 15 15 16 16 17 17 18 19 19 20 20 21 21 21 21 21 21 21 22 22 21 22 22 22 22
10 10 10 11 11 11 12 12 13 13 13 14 14 14 14 15 15 15 16 16 17 18 19 19 20 20 21 21 22 22 23 23 23 23 23 23 23 23 23 23 23 23 23
11 11 11 11 12 12 13 13 13 13 14 14 14 15 15 16 16 17 17 18 19 19 20 20 21 21 22 22 23 24 24 24 24 24 24 24 24 24 24 25 25 24 24
11 11 12 12 12 13 13 14 14 14 14 15 15 16 16 17 17 18 18 19 19 20 21 21 22 22 22 23 23 24 25 25 25 25 25 25 25 25 25 25 25 25 25
10 10 11 11 12 13 13 14 14 15 15 16 16 17 18 18 19 19 20 20 21 21 22 22 22 23 23 24 24 25 25 25 25 25 26 26 26 26 26 26 26 26 26
10 10 11 11 12 13 14 14 15 15 16 17 17 18 19 19 20 20 21 21 22 22 22 22 23 23 24 24 25 25 25 25 25 26 26 26 26 26 26 26 27 27 26
11 11 12 12 13 14 14 15 16 16 17 17 18 19 19 20 21 21 21 22 22 23 23 24 24 24 25 25 25 26 26 26 26 27 27 27 27 28 28 27 27 27 27
11 12 12 13 14 14 15 15 16 17 17 18 19 19 20 21 21 22 23 23 24 24 25 25 25 26 26 26 27 27 27 28 28 28 29 29 29 29 29 29 29 29 29
12 13 13 14 15 15 16 17 17 18 18 19 19 20 21 21 22 23 24 25 25 26 26 27 27 27 28 28 28 29 29 30 30 30 30 31 31 31 31 31 31 31 31
13 14 15 15 16 16 17 17 18 19 19 20 20 21 22 22 23 24 25 26 27 27 28 28 29 29 29 29 30 30 31 31 32 32 32 33 33 33 33 33 33 33 33
15 15 16 17 17 17 18 19 19 19 20 21 21 22 23 23 24 25 26 27 27 28 29 29 30 30 31 31 31 32 32 33 33 33 34 34 35 35 35 35 35 36 36
17 17 18 19 19 19 19 20 20 20 21 22 22 23 24 25 25 26 27 27 28 29 29 30 31 32 32 33 33 33 34 34 35 35 35 36 37 37 37 38 38 38 38
20 20 20 21 21 21 21 21 21 21 22 23 23 24 25 25 26 27 28 28 29 29 30 30 31 32 33 33 34 35 35 36 36 37 37 38 38 39 39 40 40 41 41
22 22 22 22 22 22 22 22 22 22 23 24 24 25 26 26 27 28 28 29 29 30 31 31 32 33 34 34 35 35 36 36 37 38 39 39 40 41 41 42 42 43 43
24 24 24 24 24 23 23 23 23 23 24 25 25 26 26 27 28 29 29 30 30 31 32 33 33 34 35 35 36 36 37 37 38 39 39 40 40 41 42 42 43 44 44
25 25 25 25 25 25 25 25 25 25 25 26 26 27 27 28 28 29 30 31 32 32 33 34 35 35 36 36 37 37 38 38 39 39 40 40 41 41 42 43 43 44 45
26 26 26 26 26 26 26 26 26 26 26 26 27 28 28 29 29 30 31 32 32 33 34 35 36 36 37 37 38 38 38 39 40 40 41 42 42 43 43 43 44 45 45
27 27 28 27 27 27 27 27 27 27 27 27 28 28 29 30 30 31 32 33 34 35 36 36 37 37 38 38 38 38 38 39 40 40 41 42 42 43 44 44 44 45 45
28 28 28 28 28 28 28 28 27 27 28 28 29 29 30 31 31 32 33 34 35 36 37 37 38 38 38 38 38 38 39 40 41 41 42 43 43 44 45 46 46 46 47
29 29 29 29 29 28 28 28 28 28 29 29 30 30 31 32 33 34 35 36 37 37 37 38 38 38 38 38 38 39 40 40 42 42 43 44 45 46 47 48 48 49 49
30 30 30 30 30 29 29 29 29 29 29 30 31 31 32 33 35 35 36 37 38 38 38 39 39 40 40 40 40 40 41 42 43 44 45 46 47 48 48 49 49 50 51
31 31 31 31 31 30 30 30 30 30 30 31 32 33 34 35 36 36 38 39 39 40 40 40 41 41 42 43 43 43 42 43 44 45 46 47 49 50 51 52 52 53 54
32 32 32 32 31 31 31 31 31 31 32 33 34 35 36 37 38 38 39 40 41 41 42 42 43 43 44 45 46 46 46 45 45 45 47 49 51 52 53 54 55 56 57
33 33 33 32 32 31 31 32 32 33 34 35 36 37 38 38 39 40 41 42 43 43 43 44 44 45 46 46 48 49 50 51 50 48 47 49 51 53 54 56 57 58 60
34 33 33 33 32 32 32 33 34 35 36 36 37 38 39 40 41 42 43 43 44 45 45 45 46 47 48 49 50 51 52 53 55 55 52 51 52 53 55 57 59 60 62
33 33 33 33 33 33 34 34 35 36 37 38 39 40 41 42 43 43 44 45 46 46 47 47 48 49 51 52 53 54 54 55 56 58 58 57 56 55 57 58 60 62 63

GEFSSE_500_meanwind_108.txt.gz
Wind_Speed
11 11 11 12 12 12 13 13 13 13 14 14 14 15 15 15 16 16 16 17 17 17 18 18 18 19 19 20 20 20 21 21 21 22 22 22 22 23 23 23 23 24 24
11 11 12 12 13 13 14 14 14 15 15 15 15 16 16 17 17 17 18 18 18 19 19 19 20 20 21 21 21 21 22 22 22 23 23 23 24 24 24 24 24 25 25
11 11 12 12 13 13 14 14 14 15 15 16 16 16 17 17 17 18 19 19 19 20 20 20 21 21 22 22 22 22 23 23 23 23 23 24 24 24 25 25 25 25 25
11 11 11 12 12 13 14 14 14 15 15 16 17 17 18 18 19 19 20 20 21 21 21 21 22 22 22 23 23 23 23 23 24 24 24 24 24 24 25 25 25 25 26
11 11 11 12 12 12 13 14 14 15 16 17 18 18 19 19 20 20 20 21 21 21 22 22 22 22 22 22 23 23 23 24 24 24 25 25 25 25 25 25 26 26 26
11 11 11 12 12 13 14 14 15 16 17 17 18 19 19 19 20 20 21 21 22 22 22 22 22 23 23 23 23 23 24 24 25 25 25 25 25 25 26 26 26 26 26
11 12 12 13 14 14 15 16 16 17 18 18 19 19 20 20 20 21 21 22 22 22 22 23 23 24 24 24 24 25 25 25 25 26 26 26 26 27 27 27 27 27 27
12 12 13 13 14 14 15 16 17 18 18 19 19 20 20 21 21 21 21 21 22 22 23 24 24 24 25 25 26 26 26 27 27 27 27 28 28 28 29 29 29 29 29
13 13 14 14 15 16 17 17 18 19 19 20 20 21 21 21 21 21 22 22 23 23 24 24 25 25 26 26 27 27 28 28 29 29 29 29 30 30 30 31 31 31 31
14 15 16 16 17 17 18 19 19 20 20 21 21 21 22 22 22 23 23 23 24 24 25 25 26 26 27 27 27 28 28 29 29 30 31 31 32 32 32 32 33 33 33
14 15 16 17 17 18 19 19 20 20 21 22 22 23 23 23 23 24 24 24 25 26 26 26 27 27 27 28 28 29 29 29 30 31 31 32 32 33 34 34 35 35 36
15 16 17 18 18 19 20 20 21 22 22 23 23 24 24 24 24 24 25 25 26 26 26 27 27 28 28 29 29 30 30 30 31 31 32 32 33 34 34 35 36 37 37
17 18 18 19 20 21 21 22 23 23 23 24 24 24 25 25 25 26 26 26 27 27 27 27 28 28 29 30 30 31 31 31 32 32 32 33 33 34 35 35 36 37 38
20 20 20 21 22 22 23 23 24 24 25 25 26 26 26 26 26 27 27 27 27 28 28 28 29 29 30 30 31 31 32 33 33 34 34 34 34 35 36 36 37 37 38
22 22 22 23 23 24 25 25 25 26 26 27 27 27 27 27 27 28 28 28 28 28 29 29 29 30 30 31 32 33 33 34 34 35 35 35 36 36 37 37 38 39 39
24 24 24 24 25 26 26 26 27 27 28 28 28 28 28 28 28 28 28 28 28 29 29 30 30 31 32 33 33 34 35 35 36 36 36 37 37 37 37 38 39 39 40
26 26 26 26 26 27 27 28 28 29 29 29 29 29 29 29 29 29 29 29 29 30 30 31 32 32 33 34 35 35 36 36 37 37 37 37 38 38 38 39 39 40 41
27 27 28 28 27 28 28 29 29 30 30 30 30 30 30 30 29 29 30 30 31 31 31 32 33 34 34 35 36 36 37 37 37 38 38 38 39 39 40 40 41 41 42
29 29 29 29 29 30 30 30 31 31 31 31 31 31 31 31 31 31 31 31 32 32 33 34 34 35 36 37 37 38 38 38 39 39 40 40 41 41 42 42 43 43 44
31 31 31 31 31 31 31 31 32 32 32 32 31 32 32 32 31 31 32 32 33 34 35 35 36 37 37 38 38 39 39 40 41 41 42 42 43 43 44 44 45 46 46
32 32 32 32 32 32 32 32 32 32 32 32 32 32 32 32 32 33 33 34 35 35 36 37 38 38 38 39 40 40 41 41 42 43 43 44 45 45 46 47 47 48 49
33 33 32 32 32 33 33 33 33 33 33 33 33 33 33 33 34 34 35 36 37 37 38 39 39 40 40 41 41 41 41 41 43 44 45 46 47 48 48 49 50 51 51
34 34 33 33 33 33 33 33 34 34 34 34 34 34 34 34 35 36 37 37 38 39 40 40 41 42 42 43 43 43 43 42 42 43 45 47 48 50 51 51 52 53 54
34 34 34 34 33 33 34 34 34 34 34 34 34 34 35 35 36 37 38 39 40 40 41 42 43 43 44 44 44 45 45 45 45 44 44 47 48 50 51 53 54 55 56
35 34 34 33 33 34 34 34 34 34 34 34 34 35 35 36 37 38 39 40 41 42 43 43 44 44 45 46 46 47 47 48 48 48 47 48 49 50 51 53 54 55 57
34 34 34 34 34 34 33 33 33 34 34 34 35 35 36 37 38 39 40 42 43 43 44 45 45 46 47 47 48 48 49 49 50 51 51 50 50 50 51 53 54 56 57

GEFSSE_500_meanwind_114.txt.gz
Wind_Speed
12 12 11 11 11 11 12 12 12 12 12 13 13 13 13 13 14 14 14 15 15 16 16 17 17 18 18 18 19 19 19 20 20 20 20 20 20 21 21 21 21 21 21
12 12 12 12 12 12 12 12 13 13 13 13 13 13 14 14 14 15 16 16 17 17 18 18 19 19 19 20 20 20 20 20 21 20 20 21 21 21 22 22 22 22 23
11 11 11 11 11 11 12 12 12 12 12 13 13 13 14 14 15 16 17 18 18 18 19 20 20 20 20 21 21 21 21 21 21 21 21 22 22 22 23 23 23 23 24
10 11 11 11 11 11 11 12 12 12 12 13 13 14 14 15 16 17 18 18 19 19 19 20 20 21 21 22 22 22 23 23 22 22 22 23 23 23 24 24 24 24 24
10 11 11 11 11 11 11 11 12 12 13 13 14 15 16 16 17 17 18 19 19 20 20 20 21 21 22 22 23 23 23 24 24 24 24 24 24 25 25 25 25 25 25
10 11 11 11 11 11 12 12 12 13 14 15 15 16 17 17 18 18 19 19 20 21 21 21 22 22 22 23 23 24 25 25 25 26 26 26 26 26 26 26 26 27 27
10 11 11 11 12 13 13 14 14 14 15 16 16 17 17 18 18 19 19 20 21 21 22 22 22 23 23 24 25 25 26 27 27 27 27 27 28 28 28 28 28 28 28
11 12 12 12 13 13 14 14 14 15 16 17 17 17 18 18 19 20 20 21 22 22 22 23 23 24 25 25 26 27 27 28 28 28 28 28 29 29 29 29 30 30 30
12 13 13 13 14 14 14 15 16 17 17 18 18 18 19 20 20 21 21 22 23 23 24 24 25 25 26 27 27 28 28 28 29 29 29 29 30 30 30 31 31 31 32
13 13 14 14 15 16 16 17 18 18 18 18 19 19 20 21 21 22 23 23 24 25 25 26 26 27 27 28 28 28 29 29 29 30 30 31 31 31 32 32 32 33 33
14 15 15 16 16 17 18 18 18 18 19 19 20 20 21 22 22 23 24 25 25 26 27 27 28 28 28 29 29 29 29 30 30 30 31 32 32 32 33 33 34 34 34
16 16 17 17 17 18 18 19 19 20 20 21 21 22 22 23 24 25 25 26 27 27 28 28 29 29 29 29 30 30 30 31 31 31 32 32 33 33 34 34 35 35 35
18 18 18 18 19 19 20 20 21 22 22 22 23 23 24 25 25 26 27 27 28 28 29 29 29 30 30 30 30 31 31 32 32 32 32 33 34 34 35 35 35 36 36
20 20 20 20 21 21 22 22 23 23 24 24 25 25 26 26 27 27 28 29 29 29 30 30 31 31 31 31 31 32 32 32 33 33 33 34 34 35 35 36 36 37 37
22 23 23 23 23 24 24 24 25 25 25 26 26 27 27 28 28 29 29 30 30 31 31 32 32 32 32 32 32 33 33 33 33 34 34 34 35 36 36 36 37 37 38
24 25 25 25 25 26 26 27 27 27 27 27 28 28 29 30 30 30 31 31 31 32 32 33 33 33 33 33 33 34 34 34 35 35 35 35 35 36 36 37 37 37 38
27 27 27 27 27 28 28 29 29 29 29 29 29 30 31 31 32 32 32 32 32 33 33 33 33 34 34 34 34 35 35 35 36 36 36 36 36 36 37 37 38 38 38
30 29 29 29 29 29 30 31 31 31 31 31 31 32 32 33 33 33 33 33 33 33 33 34 34 34 35 35 35 36 36 36 37 37 37 37 37 37 38 38 39 39 39
33 32 32 32 32 32 32 32 32 32 33 33 33 33 33 33 33 33 34 34 34 34 34 35 35 35 36 36 37 37 37 37 38 38 38 39 39 39 39 40 40 41 41
35 35 34 34 35 35 34 34 34 34 34 34 34 34 34 34 34 34 34 35 35 35 36 36 36 36 37 38 38 38 38 38 39 39 40 40 41 41 41 42 42 43 43
36 36 36 36 36 36 35 35 35 35 35 35 35 35 35 35 35 35 36 36 36 36 37 37 37 38 38 38 39 39 39 40 40 41 42 42 43 43 43 43 44 44 44
37 37 37 37 37 37 36 36 36 36 36 35 35 36 35 35 35 36 36 36 36 37 38 38 38 38 39 39 39 40 40 41 42 43 43 44 44 45 45 44 45 45 45
38 38 38 38 38 38 38 37 37 37 37 36 36 36 36 36 36 36 36 36 37 38 39 39 39 40 40 41 41 42 42 41 41 42 43 44 45 45 45 45 46 46 47
39 39 39 38 38 38 38 37 37 37 37 37 37 36 36 36 36 36 36 37 38 39 39 39 40 41 41 42 43 43 43 43 43 42 43 44 44 45 46 47 48 48 49
39 39 38 38 38 38 38 38 38 37 37 37 37 37 36 36 36 37 37 38 38 39 40 41 42 42 43 43 43 43 44 44 45 44 43 44 45 46 46 47 48 49 50
38 38 38 38 38 38 38 38 38 37 37 37 37 37 36 36 37 37 38 38 39 39 40 42 42 43 44 44 44 45 45 45 46 46 45 45 45 46 47 48 49 50 50

GEFSSE_500_meanwind_120.txt.gz
Wind_Speed
13 12 12 11 11 10 10 9 9 9 9 9 10 10 11 11 11 11 12 12 13 14 15 15 16 16 17 17 18 18 18 19 20 20 20 21 21 21 22 22 23 23 24
14 13 12 12 11 11 10 10 9 10 10 10 11 11 11 12 12 13 14 14 15 16 17 17 18 18 19 19 19 19 19 20 21 21 21 22 22 22 23 24 24 25 25
14 13 13 12 11 11 10 10 10 10 11 11 11 12 12 12 13 14 15 16 16 17 17 18 18 19 19 19 20 20 21 21 22 22 22 22 23 24 24 25 25 26 26
13 13 12 12 11 11 11 10 10 11 11 11 11 12 12 13 14 15 15 16 16 17 17 18 18 19 20 20 21 21 22 22 23 23 23 24 24 25 25 26 26 27 27
12 12 11 11 11 10 10 10 10 10 11 11 12 13 14 15 15 16 17 17 17 18 19 19 20 20 21 21 22 22 22 23 24 24 25 26 26 26 27 27 27 28 28
11 11 11 11 10 10 10 10 11 11 12 12 13 14 15 16 17 17 18 18 18 19 20 20 21 21 21 22 22 23 24 24 25 26 26 27 27 28 28 28 28 29 29
11 11 10 10 10 10 10 11 12 12 13 14 14 15 16 17 17 18 18 19 19 20 21 21 21 22 22 23 24 24 25 25 26 27 27 28 28 28 29 29 29 29 30
11 10 10 10 10 10 11 12 12 13 13 14 15 16 16 17 18 18 19 20 20 21 21 22 23 23 24 24 25 25 26 27 27 28 28 29 29 29 30 30 30 30 31
11 10 10 11 11 11 12 13 13 14 14 15 16 17 18 18 18 19 20 21 21 22 23 23 24 25 25 26 26 27 27 28 29 29 29 30 30 30 30 31 31 31 32
11 11 11 11 12 12 13 13 14 15 15 16 17 18 18 19 19 20 21 22 22 23 24 25 25 26 26 27 27 28 28 29 29 30 31 31 31 31 31 32 32 32 33
11 11 11 12 12 13 14 14 15 16 17 17 18 18 19 20 21 22 23 23 24 25 25 26 26 27 27 28 29 29 29 30 30 31 31 32 32 32 32 33 33 33 34
13 13 13 13 14 14 15 16 16 17 18 19 19 20 21 22 22 23 24 25 26 26 27 27 28 28 29 29 30 30 31 31 31 32 32 33 33 33 33 34 34 34 35
15 15 14 15 15 16 17 18 18 19 20 20 21 21 22 23 24 25 25 26 27 28 28 28 29 29 30 30 31 31 32 32 33 33 33 34 34 34 35 35 35 36 36
16 16 17 17 17 18 19 19 20 20 21 22 22 23 24 25 26 26 27 28 28 29 30 30 30 31 31 31 32 32 32 33 33 34 34 35 35 35 35 36 36 36 37
18 18 18 19 19 20 20 21 21 21 22 23 24 25 26 27 28 28 29 30 30 30 31 31 31 32 32 32 33 33 33 34 34 34 35 35 36 36 36 37 37 37 38
20 20 21 21 22 22 22 22 23 23 24 25 26 27 28 29 29 30 31 31 31 32 32 32 32 33 33 33 33 34 34 35 35 35 36 36 36 37 37 37 38 38 38
23 23 23 23 23 23 23 24 25 26 27 27 28 29 30 30 30 31 31 31 32 32 33 33 34 34 34 34 35 35 35 36 36 36 36 36 37 37 38 38 39 39 40
26 25 25 25 25 26 26 26 27 27 28 29 30 30 31 31 32 32 32 32 33 33 34 34 34 34 35 35 36 36 36 36 37 37 37 37 38 38 39 40 41 41 41
28 28 27 27 28 28 29 29 29 29 30 31 31 32 32 33 33 33 33 34 34 34 34 35 35 35 36 36 37 37 37 38 38 38 38 39 39 40 41 42 42 42 43
30 30 30 30 31 31 31 31 31 32 32 33 33 33 33 33 34 34 34 35 35 35 35 35 35 36 36 37 38 38 38 38 39 39 39 40 41 41 42 43 43 43 43
32 32 32 33 33 33 33 33 33 33 34 34 34 34 34 34 35 35 35 35 35 35 36 36 36 37 37 38 38 38 39 39 40 40 40 41 43 43 43 43 43 43 43
34 34 34 34 34 34 34 34 34 35 34 34 34 35 36 36 36 36 36 36 36 36 37 37 37 37 38 38 38 39 39 40 40 41 42 43 43 43 43 44 44 44 45
36 36 35 35 35 35 35 35 35 35 35 34 35 36 36 36 36 37 36 37 37 37 37 37 37 38 38 39 39 39 39 40 40 41 42 43 44 44 44 45 45 45 46
36 36 36 36 36 36 35 35 35 35 35 36 36 36 37 37 37 37 37 37 37 37 37 37 38 38 39 39 39 40 41 41 41 41 42 43 44 44 45 45 46 46 47
37 37 36 36 36 36 36 36 36 36 36 36 37 37 37 37 38 38 38 38 38 38 38 38 38 38 39 40 40 41 41 42 42 43 43 43 44 45 45 46 46 47 48
37 36 36 36 36 36 36 36 36 36 36 36 37 37 37 37 38 38 38 38 38 38 38 38 38 39 40 41 41 41 42 43 43 44 44 44 44 45 46 47 48 48 49

GEFSSE_500_meanwind_126.txt.gz
Wind_Speed
17 16 16 14 13 12 12 11 10 10 9 9 9 9 9 8 8 9 9 10 11 12 13 14 15 15 16 16 17 17 17 18 18 18 19 19 20 21 21 22 22 23 24
18 17 16 15 14 13 12 11 11 10 10 9 9 9 9 9 10 11 11 12 13 14 15 15 16 16 16 16 17 17 18 19 19 20 21 21 22 22 23 23 23 24 25
18 17 16 15 14 13 13 12 11 11 10 10 10 10 10 10 11 11 12 13 14 15 15 15 16 16 17 18 18 19 20 20 21 21 22 22 22 23 23 24 25 25 26
18 17 16 15 14 14 13 13 12 12 11 10 10 10 10 11 11 12 13 14 15 15 16 16 16 17 18 19 20 21 21 21 21 22 23 23 23 24 25 25 26 26 27
18 17 17 16 15 14 13 13 12 12 11 10 10 11 11 12 12 13 14 15 15 15 16 17 18 18 19 20 21 21 22 22 23 23 24 25 25 26 26 27 27 27 28
18 17 16 16 15 14 13 13 12 12 11 11 11 11 12 13 13 14 15 15 16 16 17 18 19 19 20 21 21 22 23 24 24 25 25 26 26 27 27 28 28 29 29
17 17 16 15 15 14 14 13 13 12 12 12 12 12 13 14 14 15 15 16 17 17 18 19 19 20 21 22 23 24 25 25 26 26 27 27 28 28 29 29 30 30 30
16 16 15 15 14 14 13 13 13 13 13 13 13 13 14 14 14 15 16 17 17 18 18 19 20 21 22 23 24 25 26 26 27 28 28 29 29 30 30 30 31 31 31
15 15 15 15 14 14 13 13 13 13 13 13 13 13 14 14 15 16 17 17 18 18 19 20 21 22 23 24 25 26 27 27 28 29 29 30 30 31 31 32 32 32 33
15 15 15 14 14 13 13 13 13 14 14 14 14 14 14 15 16 17 18 18 19 20 21 22 23 24 25 26 27 27 28 29 29 30 30 31 31 32 33 33 34 34 34
16 15 15 14 14 14 14 15 14 14 14 14 15 15 16 17 18 18 19 19 20 21 22 23 24 25 26 27 28 28 29 30 31 31 31 32 32 33 34 34 35 35 36
16 16 16 15 15 15 15 15 15 15 15 16 16 17 17 18 19 19 20 21 22 23 24 25 26 27 28 29 29 30 30 31 31 32 33 33 34 34 35 35 36 36 36
17 16 16 16 15 15 15 15 16 16 16 17 17 18 19 19 20 21 22 23 24 25 26 27 28 29 29 30 30 31 31 32 32 33 34 34 35 35 36 36 37 37 37
18 17 17 17 16 16 16 17 17 17 18 18 19 19 20 21 22 23 24 25 26 27 28 28 29 30 30 31 31 32 33 33 34 34 35 35 36 36 37 37 38 38 38
20 19 19 18 18 18 18 19 19 19 19 20 21 21 22 23 24 24 26 27 27 28 29 30 30 31 32 32 33 33 34 35 35 36 36 36 37 37 37 38 38 39 39
22 22 21 20 20 20 20 20 21 21 21 22 22 23 24 24 25 26 27 28 29 29 30 31 31 32 33 33 34 35 35 36 36 37 37 37 38 38 38 39 39 39 39
25 24 23 23 22 22 22 22 22 22 23 23 24 25 26 26 27 28 28 29 30 30 31 32 32 33 34 34 35 36 36 36 37 38 38 38 39 39 39 39 39 39 40
27 26 25 24 24 24 24 23 24 24 25 25 26 27 27 28 28 29 29 30 31 32 32 33 33 34 35 35 36 36 37 37 38 38 39 39 39 39 39 40 40 40 41
29 28 27 27 26 26 26 26 26 26 27 27 28 29 29 29 30 30 31 31 32 33 33 34 35 35 36 36 37 37 37 38 39 39 39 39 39 40 40 40 40 41 41
31 30 30 29 29 29 28 28 28 28 29 29 30 30 30 30 31 31 32 33 33 34 34 35 35 36 37 37 38 38 38 39 39 39 40 40 40 40 40 41 42 42 42
33 32 31 31 31 30 30 30 30 30 30 31 31 32 31 31 32 33 33 33 34 34 35 36 36 37 37 38 38 38 39 39 39 40 41 41 41 41 41 42 42 41 42
35 34 33 33 33 32 32 32 32 32 32 32 33 32 33 33 34 34 34 34 35 35 36 37 37 38 38 38 39 39 39 39 40 41 41 42 42 41 42 42 42 42 43
36 35 35 35 34 34 34 34 34 33 33 33 34 34 35 35 35 35 35 36 36 36 37 37 38 38 38 39 39 39 40 40 40 41 41 42 42 42 42 43 43 43 43
37 37 36 36 36 36 36 36 35 34 34 35 36 36 36 36 36 36 36 36 36 37 38 38 38 39 39 39 40 41 41 41 41 41 41 42 42 43 43 44 44 44 44
39 39 38 37 37 37 36 36 36 35 35 36 37 37 37 37 37 37 37 37 37 38 39 39 39 39 39 40 40 41 41 41 42 42 42 42 43 43 44 44 44 45 46
40 40 39 38 37 37 37 37 36 36 36 37 37 37 38 38 37 37 37 38 38 39 39 39 38 39 39 40 41 41 41 42 42 43 42 43 43 44 44 45 46 47 48

GEFSSE_500_meanwind_132.txt.gz
Wind_Speed
22 21 20 19 18 17 16 15 15 13 13 12 11 10 10 9 9 9 9 9 9 10 11 11 12 13 13 13 13 13 14 15 16 17 18 18 19 20 21 21 22 23 23
23 22 21 20 19 18 17 16 15 14 13 12 12 11 10 10 10 10 10 10 10 11 11 12 12 13 13 13 14 14 15 16 17 18 18 19 20 21 21 22 23 24 25
24 23 22 21 20 19 18 16 15 15 14 13 12 12 11 11 11 10 11 11 11 12 12 13 13 13 14 15 15 16 17 17 18 19 19 20 21 22 23 23 24 25 26
24 23 22 21 20 20 18 17 16 15 14 13 13 12 12 11 11 11 11 11 12 13 13 13 14 14 15 16 17 17 18 19 19 20 21 22 22 23 24 25 26 26 27
23 23 22 21 21 20 19 18 16 15 14 13 13 12 12 12 12 12 12 13 13 13 14 14 15 15 16 17 17 18 19 19 20 21 22 23 24 25 25 26 27 27 28
24 23 22 21 20 19 18 18 17 16 15 14 13 13 13 13 13 13 13 14 14 14 15 15 15 16 17 17 18 18 19 20 21 22 23 24 25 26 26 27 28 28 29
24 23 22 21 20 19 19 18 17 16 15 15 14 14 14 14 14 14 14 14 14 14 15 15 16 17 17 18 19 20 21 22 23 24 25 25 26 26 27 28 29 29 30
25 24 23 22 21 20 19 18 18 17 16 16 15 15 15 15 14 15 15 14 14 15 15 16 17 17 18 19 21 22 23 23 24 25 26 26 27 28 29 29 30 31 31
25 24 23 22 21 20 20 19 19 18 17 16 16 16 15 15 15 15 15 15 15 16 16 17 18 19 20 21 22 23 24 25 26 26 27 28 29 29 30 30 31 32 33
24 24 23 23 22 21 20 19 19 18 18 17 17 16 16 16 15 15 15 16 16 16 17 18 19 20 21 23 23 24 25 26 27 28 28 29 30 30 31 32 32 33 34
23 23 23 22 22 21 20 19 18 18 18 17 17 17 16 16 16 16 16 17 17 18 18 19 21 22 23 24 24 25 26 27 28 29 29 30 31 32 32 33 33 34 35
24 24 23 22 21 20 19 19 18 18 18 18 18 17 17 17 17 17 17 18 19 19 20 21 23 24 24 25 26 26 27 28 29 30 30 31 32 32 33 34 34 35 36
25 24 24 23 21 20 19 19 19 18 18 18 18 18 18 18 18 18 19 20 20 21 22 23 24 25 26 26 27 28 29 29 30 31 32 32 33 34 34 35 35 36 37
25 24 24 23 22 21 20 20 19 19 19 19 19 19 19 19 19 19 20 21 22 23 24 25 25 26 27 27 28 29 30 30 31 32 33 33 34 34 35 35 36 37 37
27 26 25 24 24 23 22 21 20 19 19 19 19 19 19 20 20 21 22 22 23 24 25 26 26 27 28 28 29 30 31 31 32 33 33 34 34 35 35 36 37 37 38
28 27 26 25 24 24 23 22 21 20 20 20 20 20 20 21 21 22 23 23 24 25 26 26 27 27 28 29 30 31 32 32 33 33 34 34 35 35 36 37 37 38 38
30 29 27 26 25 24 24 24 23 22 21 21 21 21 21 22 23 23 24 24 25 26 27 27 28 28 29 30 31 32 32 33 34 34 35 35 36 36 36 37 37 38 39
32 30 29 27 26 26 25 24 24 23 23 23 23 23 23 23 24 24 25 25 26 27 27 28 29 29 30 31 32 33 33 34 35 35 35 36 36 37 37 37 38 39 39
34 32 31 29 28 27 27 26 25 24 24 24 24 24 24 24 25 26 26 27 27 28 29 29 30 30 31 32 33 33 34 35 35 35 36 36 37 37 38 38 39 39 39
36 34 33 32 30 29 28 28 27 26 26 26 26 26 25 26 26 27 27 28 29 29 30 31 31 32 32 33 33 34 35 35 35 36 36 37 38 38 38 39 39 40 40
38 36 34 33 32 31 30 29 29 28 28 28 27 27 27 28 28 28 29 29 30 31 31 32 32 33 33 34 34 35 35 36 36 36 37 38 38 38 39 39 40 40 40
39 38 36 35 34 33 32 31 31 31 30 29 29 29 29 29 29 29 30 31 31 32 32 33 33 33 34 34 35 36 36 36 36 37 38 38 38 39 40 40 41 41 41
42 40 38 37 36 35 34 34 33 32 31 31 31 31 31 31 31 31 32 32 33 33 33 34 34 34 34 35 35 36 36 36 37 38 38 39 39 40 41 41 41 41 42
43 41 40 39 38 37 37 36 35 33 32 32 33 33 33 33 32 33 33 33 34 34 34 34 35 35 35 35 36 36 37 37 37 38 38 39 40 41 41 42 42 42 42
45 43 41 40 40 39 38 37 36 35 34 34 35 35 34 34 34 34 34 34 34 35 35 35 36 36 36 36 36 37 37 38 38 39 39 40 41 42 42 43 43 43 43
47 45 43 42 41 40 39 39 37 36 35 36 36 36 35 35 35 35 35 35 35 35 36 36 36 36 36 37 37 37 37 38 39 39 40 40 41 42 43 44 44 44 45

GEFSSE_500_meanwind_138.txt.gz
Wind_Speed
25 24 23 22 20 19 18 17 16 15 14 13 12 12 11 10 10 9 9 9 9 10 10 11 11 12 12 13 14 14 14 15 15 16 17 18 19 19 20 21 22 23 23
26 26 24 23 22 20 19 18 17 16 15 14 13 13 12 11 11 10 11 11 10 11 11 12 12 13 13 14 14 15 15 16 17 18 18 19 19 20 21 22 23 24 25
27 27 26 24 23 21 20 19 18 17 16 15 14 14 13 12 12 11 11 11 11 11 12 12 13 13 14 14 15 15 16 17 18 18 18 19 20 21 22 23 24 25 25
28 27 27 25 24 22 21 20 19 18 17 16 15 14 13 13 12 12 12 12 12 12 13 13 13 14 14 15 16 16 17 17 18 18 19 20 21 22 23 24 25 25 26
28 28 27 26 25 23 22 21 20 19 18 16 16 15 14 14 13 13 13 13 13 13 13 13 14 15 15 15 16 16 17 18 19 20 21 22 23 24 24 25 26 27 28
29 28 28 27 26 24 23 22 20 20 19 18 17 16 15 14 14 14 13 13 13 13 14 14 15 15 15 16 16 17 18 19 20 21 22 23 24 25 26 27 28 29 30
29 29 28 27 26 25 24 23 22 21 20 19 18 16 15 15 15 14 13 13 13 14 14 15 15 15 16 16 17 18 19 20 22 23 24 24 25 26 27 28 29 30 31
30 29 29 27 26 25 24 23 22 21 20 19 18 17 16 16 15 14 14 14 14 15 15 15 15 16 16 17 18 20 21 22 23 24 24 25 26 27 28 29 30 31 31
30 29 29 27 26 25 24 23 22 21 20 19 18 18 17 16 16 15 15 15 15 15 15 16 16 17 18 19 20 21 22 23 24 24 25 26 27 28 29 30 31 32 32
30 29 29 28 27 26 25 24 23 22 20 19 19 18 17 17 16 16 16 16 16 16 17 17 17 18 19 20 21 22 23 24 24 25 27 28 29 29 30 31 32 33 34
30 30 29 29 28 27 26 25 24 22 21 20 19 19 18 17 17 17 17 17 17 17 18 18 19 20 20 21 22 23 24 25 25 26 28 29 30 31 31 32 33 33 34
31 31 30 29 29 28 27 26 24 23 21 21 20 19 19 18 18 18 18 18 18 18 18 19 19 20 21 22 23 24 25 25 26 27 28 30 31 31 32 33 33 34 34
33 32 31 30 29 29 28 27 25 23 22 22 21 20 19 19 19 19 19 19 19 19 19 19 20 21 22 23 24 25 26 26 27 28 30 31 31 32 33 33 34 34 35
34 33 32 31 29 29 28 27 25 24 23 22 21 21 20 20 20 19 19 19 19 19 19 20 21 22 23 24 25 26 26 27 28 29 30 31 32 33 33 34 35 35 35
34 34 33 31 30 29 28 27 25 24 23 22 21 21 20 20 20 19 19 20 20 20 20 21 22 23 24 24 25 26 27 28 29 30 31 32 33 34 34 35 35 35 36
35 34 33 32 31 30 28 27 26 24 23 22 22 21 21 20 20 20 20 20 20 21 21 22 23 24 24 25 26 27 28 29 30 31 32 33 34 34 35 35 35 36 37
36 35 34 33 31 30 29 28 27 25 24 23 22 21 21 21 20 20 20 20 21 22 23 23 24 24 25 26 27 28 29 30 31 32 33 34 34 35 35 36 36 37 38
38 37 35 34 32 31 30 28 27 26 25 23 23 21 21 21 21 21 21 21 22 23 24 24 25 25 26 27 28 29 30 31 32 33 33 34 35 35 36 36 37 38 38
40 38 37 35 33 32 31 29 28 27 26 24 24 23 22 22 22 22 22 22 23 24 25 25 26 26 27 28 29 30 31 32 33 34 34 35 35 36 36 37 38 38 38
42 40 38 37 35 34 32 30 29 28 27 26 25 24 24 23 23 23 24 24 25 25 26 27 27 28 29 30 30 31 32 33 34 35 35 36 36 37 37 37 38 38 39
45 43 40 38 37 35 33 31 30 29 28 27 26 26 25 25 25 25 26 26 26 27 27 27 28 29 30 31 32 32 33 34 35 35 36 36 37 37 38 38 39 39 40
47 44 42 40 38 36 34 33 32 31 29 28 27 26 26 26 26 26 27 27 28 28 28 29 30 30 31 32 33 33 34 34 35 36 36 37 38 38 38 39 40 40 41
48 46 44 42 40 38 36 35 34 32 31 29 28 28 28 28 28 28 28 29 29 29 30 30 31 31 32 33 34 34 35 35 36 36 37 37 38 38 39 40 41 41 41
50 48 46 44 42 40 39 37 35 34 32 31 30 30 30 30 30 30 30 30 30 31 31 32 32 33 33 34 34 35 36 36 37 37 37 37 38 39 40 41 41 42 43
51 50 48 46 45 42 41 39 37 35 34 33 32 32 31 31 31 31 31 31 31 31 32 33 33 33 34 35 35 36 36 37 38 38 37 38 39 40 41 41 42 43 44
52 51 51 49 47 45 43 41 39 37 36 35 34 34 33 33 32 32 32 32 32 32 33 34 34 34 35 35 36 36 37 38 38 38 39 39 40 41 41 42 43 44 45

GEFSSE_500_meanwind_144.txt.gz
Wind_Speed
27 26 24 23 21 20 19 17 17 16 14 13 12 11 10 10 10 9 9 8 8 8 8 9 10 10 11 11 11 12 13 13 15 15 16 16 16 17 18 19 20 21 21
28 27 26 24 23 22 21 19 18 17 16 14 14 13 12 11 11 10 10 9 9 9 10 10 11 11 11 11 12 12 13 14 15 16 16 16 17 18 19 20 21 22 22
27 28 27 26 25 23 22 21 20 19 17 16 15 14 13 12 12 11 11 11 11 10 10 11 11 11 11 11 12 13 14 15 15 16 16 17 17 19 20 21 22 22 23
28 28 28 27 26 25 24 23 21 20 19 17 16 15 14 14 13 13 12 12 12 11 11 12 12 12 12 13 13 14 15 15 16 16 17 18 19 20 21 22 23 24 25
29 28 29 29 28 27 25 24 23 22 20 19 18 17 15 15 14 14 13 13 13 13 13 12 12 12 13 13 14 15 15 16 17 18 19 20 20 21 22 23 24 25 26
30 29 29 30 29 28 27 25 24 23 21 20 19 18 16 16 15 15 14 14 14 13 13 13 13 13 14 14 15 16 16 17 18 19 20 21 21 22 23 24 25 26 27
31 31 30 30 30 29 28 27 26 24 22 21 20 19 18 17 16 16 15 15 14 14 14 14 14 14 15 15 16 17 17 18 19 20 21 22 22 23 24 25 26 27 28
32 32 31 30 30 30 29 28 27 25 24 22 21 20 19 18 17 17 16 16 15 15 15 15 15 15 15 16 16 17 18 19 20 21 22 22 23 24 25 26 27 28 29
33 33 32 31 31 30 29 29 28 27 25 24 22 21 20 19 19 18 17 16 16 16 16 16 16 16 16 16 17 18 19 20 21 21 22 23 24 25 26 27 28 29 29
34 33 33 32 31 31 30 30 29 28 26 25 24 22 21 20 20 19 18 17 17 17 16 16 16 16 16 17 17 19 20 21 21 22 23 24 25 26 27 28 29 29 30
34 33 33 32 32 31 31 30 30 29 27 26 24 23 22 21 20 19 19 18 17 17 17 17 17 17 17 18 18 20 21 21 22 22 23 24 25 26 28 29 29 30 31
35 34 33 33 32 32 32 31 30 29 27 26 25 24 22 21 21 20 19 19 18 18 18 17 17 17 18 18 19 20 21 21 22 23 24 25 26 27 28 29 30 31 31
36 35 34 34 33 32 32 32 31 29 28 27 26 24 23 22 21 21 20 20 19 19 18 18 18 18 18 19 20 21 21 22 23 24 25 26 27 28 29 30 31 32 32
37 36 35 34 34 33 32 32 31 30 29 28 27 25 24 23 22 22 21 20 20 20 19 19 19 19 19 20 20 21 22 23 24 25 26 27 27 28 29 31 31 32 33
38 37 35 35 35 34 33 32 31 31 30 29 28 26 25 24 24 23 22 21 21 20 19 20 20 20 20 20 21 22 23 23 24 25 26 27 28 29 30 31 32 33 34
39 37 36 36 36 35 34 33 32 31 31 30 29 27 25 25 25 24 23 22 21 20 20 21 21 21 20 21 22 22 23 24 25 26 27 28 29 30 31 32 33 33 34
40 39 38 37 37 36 36 35 33 32 31 31 30 28 27 26 25 24 23 23 22 21 21 21 21 21 21 22 22 23 24 25 27 27 28 29 30 31 32 33 34 34 35
42 40 39 38 37 37 36 35 34 33 32 32 30 29 28 27 26 25 24 23 23 22 22 22 22 22 22 22 23 24 25 26 27 28 29 30 31 32 33 34 35 36 36
44 42 40 39 38 38 37 36 35 34 33 32 31 30 29 27 26 25 24 24 23 23 23 23 22 23 23 23 24 25 26 27 28 29 30 31 32 33 34 35 36 36 37
46 44 42 41 40 39 38 37 36 35 34 32 31 30 29 28 27 25 24 24 24 23 23 23 23 23 23 24 25 26 27 28 29 30 31 32 33 34 35 36 36 37 38
48 46 44 42 41 40 39 37 36 35 34 32 31 31 29 28 27 26 25 25 24 24 23 24 24 24 25 25 26 27 28 29 30 31 32 33 34 35 36 36 37 38 39
50 48 46 45 42 41 39 38 37 36 35 34 33 31 30 29 28 28 27 26 25 25 24 25 25 26 26 27 28 29 29 30 31 31 33 34 35 35 36 37 38 39 40
51 50 48 46 44 42 41 40 39 38 36 34 33 32 31 30 30 29 28 27 26 26 26 26 27 27 28 29 29 30 30 30 31 32 33 34 35 36 37 38 39 40 41
52 51 49 47 45 44 43 42 40 38 36 34 34 33 32 31 30 30 29 28 27 27 27 28 29 29 29 29 30 31 31 32 32 33 34 35 36 37 38 39 40 41 42
53 52 51 49 47 46 45 43 41 39 37 36 35 34 33 32 31 30 30 29 29 29 29 29 29 30 30 30 31 32 32 32 34 34 34 35 36 37 39 40 41 42 43
54 53 52 51 49 48 46 44 43 40 39 38 36 35 34 33 32 31 31 30 29 29 30 30 30 30 31 32 32 32 33 33 34 35 36 36 37 38 40 41 42 43 44

GEFSSE_500_meanwind_150.txt.gz
Wind_Speed
27 27 26 26 24 23 21 20 18 17 15 14 13 12 11 10 8 7 7 6 5 5 6 6 7 8 9 9 10 10 11 12 13 13 14 14 15 15 16 17 18 20 20
28 28 28 27 26 25 23 22 20 19 17 16 15 13 12 11 10 9 8 7 7 7 7 7 8 9 9 10 10 11 12 13 13 14 14 15 16 16 17 18 20 20 21
29 29 29 28 27 27 25 24 22 21 19 18 16 15 14 13 12 11 10 9 8 8 9 9 9 10 10 11 11 12 13 13 14 15 15 16 17 18 18 19 20 21 22
30 30 30 29 29 28 27 26 24 23 21 20 18 17 16 15 14 13 11 10 10 10 10 10 11 11 11 11 12 13 13 14 15 15 16 17 18 19 20 20 21 22 23
31 31 31 30 30 29 29 28 26 25 23 22 20 19 17 16 15 14 13 12 12 12 12 11 12 12 12 12 13 13 14 14 15 16 16 17 18 20 20 21 22 22 23
33 33 32 31 31 31 30 29 28 27 25 23 22 20 19 18 17 16 15 14 13 13 13 12 12 12 13 13 14 14 15 15 16 16 17 18 19 20 21 22 22 23 24
35 34 34 33 32 32 31 30 29 28 27 25 23 22 21 19 18 17 16 15 14 14 14 13 13 13 14 14 14 15 15 16 17 17 18 19 20 21 22 22 23 24 25
37 36 35 34 34 33 33 32 31 30 28 26 25 24 22 21 19 18 17 16 16 15 14 14 14 14 14 14 15 15 16 16 17 18 18 19 20 21 22 23 24 24 26
38 37 36 35 35 34 34 33 33 31 30 28 27 25 24 22 21 20 18 18 17 16 15 15 15 15 15 15 15 15 16 17 17 18 19 20 21 22 23 24 25 26 27
40 39 38 36 36 36 35 35 34 33 31 30 28 27 25 24 22 21 20 19 18 17 16 16 16 16 16 16 16 16 17 17 18 19 20 21 21 23 24 25 26 27 28
41 40 39 38 37 37 36 35 35 34 33 31 30 28 26 25 23 22 21 20 19 18 17 17 17 17 17 17 16 17 17 18 18 19 21 22 22 23 25 26 27 28 29
42 41 40 39 38 38 37 36 35 35 34 32 31 30 28 26 25 23 22 21 20 19 18 18 18 18 18 17 17 18 18 19 19 20 21 22 23 24 25 26 27 28 29
44 42 41 40 39 39 38 37 36 36 35 33 32 31 30 28 26 25 23 22 21 20 19 19 19 18 18 18 18 18 19 20 20 21 22 22 23 25 26 27 28 29 30
46 44 42 41 40 39 38 38 37 37 36 35 33 32 31 30 28 26 24 23 22 21 20 19 19 19 19 19 19 19 20 20 21 21 22 23 24 26 27 28 29 30 31
47 46 44 42 41 40 39 39 38 37 37 36 34 33 32 31 29 27 25 24 23 22 21 20 20 19 19 20 20 21 21 21 21 22 23 24 25 27 28 29 30 31 32
48 47 45 43 41 40 40 39 39 38 37 36 35 34 33 32 30 28 26 25 24 23 22 21 20 20 20 20 21 21 22 22 22 23 24 25 26 27 28 29 30 32 33
49 48 47 45 43 42 41 40 40 39 38 37 36 34 33 32 31 29 27 26 24 23 22 22 21 21 21 21 22 22 23 23 24 24 25 26 27 28 29 30 32 33 34
50 49 47 47 45 43 42 41 40 40 39 37 36 35 34 33 31 29 28 26 25 24 23 22 22 22 22 22 22 23 24 24 25 25 26 27 28 29 30 31 33 34 35
51 50 49 47 46 45 44 43 42 41 39 38 36 35 34 34 32 30 29 28 26 25 24 23 23 23 23 23 23 24 25 25 25 26 26 28 29 30 31 32 33 35 36
53 51 50 49 48 47 46 44 43 42 40 39 37 36 35 34 32 31 30 29 27 26 25 24 24 24 24 24 24 25 26 26 26 27 27 29 30 31 32 33 35 36 37
55 53 51 50 49 48 47 45 43 42 41 40 38 37 36 34 33 32 31 29 28 27 26 26 25 25 25 25 25 26 27 27 27 28 29 30 31 32 33 34 35 36 37
56 54 52 51 51 49 47 46 45 44 43 41 40 39 37 36 34 33 31 30 29 28 27 27 26 26 26 26 26 27 27 27 28 29 30 31 32 34 35 35 36 37 38
57 55 54 52 51 50 48 47 46 45 44 42 40 39 38 37 36 34 32 31 30 29 28 27 27 27 27 27 27 27 28 28 29 30 31 32 33 34 35 36 37 38 39
57 56 55 54 53 51 49 47 46 45 43 42 41 40 39 38 37 35 33 32 32 31 30 29 28 28 28 28 27 28 29 30 30 31 32 33 34 35 36 37 39 39 40
58 57 57 56 54 52 51 48 47 46 44 43 42 41 40 39 37 36 34 33 33 32 30 30 29 29 29 29 29 29 30 31 32 32 32 33 34 36 37 38 39 40 41
60 59 58 57 56 54 52 50 48 46 45 43 42 41 40 39 37 36 35 34 33 32 31 30 30 30 30 29 29 30 30 31 32 33 33 34 35 36 38 39 40 41 42

GEFSSE_500_meanwind_156.txt.gz
Wind_Speed
27 27 26 26 25 25 24 24 23 22 21 20 19 18 17 16 14 14 13 11 10 9 8 7 6 6 6 6 5 6 7 8 9 9 10 11 11 12 13 14 14 15 16
29 29 28 28 27 27 26 26 25 24 23 22 21 20 19 18 17 15 14 13 12 11 10 9 8 7 7 7 7 7 8 9 10 10 10 11 12 13 14 14 15 16 17
31 31 30 29 29 29 28 28 27 26 25 24 23 22 21 20 19 17 16 15 14 13 12 10 9 8 8 8 8 8 9 9 10 10 11 12 13 14 14 15 16 17 17
33 33 32 32 31 30 30 30 29 28 28 27 25 24 23 21 20 19 18 17 15 14 13 12 11 10 9 9 9 9 10 10 11 11 12 13 13 14 15 15 16 17 17
35 35 34 34 33 32 32 31 31 30 30 29 27 26 25 23 22 21 19 18 16 15 14 13 12 11 11 10 10 10 10 11 11 12 13 13 14 14 15 16 17 17 18
37 37 36 35 35 35 34 33 33 32 31 30 29 28 27 25 24 23 21 20 18 17 16 14 14 13 12 12 11 11 11 12 12 13 13 14 14 15 16 16 17 17 18
40 39 38 37 37 37 36 36 35 34 33 32 31 30 28 27 26 24 23 21 20 18 17 16 15 14 13 13 12 12 12 13 13 13 14 14 15 16 16 17 17 18 19
42 42 41 39 38 38 38 38 37 36 35 34 33 32 30 29 27 26 24 23 21 20 19 18 17 16 15 14 13 13 13 14 14 14 15 15 16 16 17 17 18 19 20
45 44 43 42 41 40 40 39 39 38 37 36 34 33 32 31 29 27 26 24 23 21 20 19 18 17 16 15 15 14 14 15 15 15 16 16 16 17 18 18 19 20 21
47 46 45 45 44 43 42 41 41 40 39 38 36 35 34 32 31 29 27 26 24 23 21 20 19 18 17 16 16 15 16 16 15 16 16 17 17 18 18 18 19 20 21
49 48 47 46 46 45 44 43 43 42 41 39 38 37 35 34 32 31 29 27 26 24 23 21 20 19 18 17 17 16 17 16 16 16 17 17 18 18 18 19 20 21 22
50 50 49 48 48 47 46 45 44 44 43 41 40 39 37 35 33 32 30 29 27 25 24 23 21 20 19 18 17 17 17 17 16 17 17 18 18 19 19 20 21 22 23
52 51 51 50 50 49 48 47 46 45 44 43 41 40 38 37 35 33 31 30 29 27 25 24 23 21 20 19 18 18 18 17 17 17 18 18 19 20 20 21 22 23 24
55 53 53 52 52 51 50 49 48 46 45 44 43 41 40 38 36 35 33 31 30 28 26 25 24 23 22 20 19 19 18 18 18 18 19 19 20 21 21 22 23 24 25
57 56 55 54 54 53 52 50 49 47 46 45 44 42 41 39 38 36 34 33 31 29 28 26 25 24 23 22 20 20 19 19 18 19 20 20 21 22 22 23 24 25 26
59 58 57 56 55 54 53 52 50 48 47 46 45 44 42 41 39 38 36 34 32 30 29 28 26 25 24 23 21 20 20 20 20 20 20 21 22 23 24 24 25 26 28
61 60 58 58 57 55 54 53 52 50 48 47 46 45 44 42 40 39 38 36 34 32 30 29 27 26 25 24 22 21 21 21 21 21 21 22 23 24 25 26 26 28 29
62 61 59 58 57 56 55 54 53 51 49 48 47 45 44 43 41 40 39 37 35 33 31 30 28 27 26 24 23 23 22 22 22 22 23 24 24 25 26 27 28 29 30
62 61 60 59 58 57 56 55 53 52 50 49 48 46 44 43 42 40 39 38 36 34 32 31 29 28 27 26 24 23 23 22 23 23 24 25 26 27 27 28 29 30 31
63 62 60 60 58 58 57 56 54 53 51 50 48 47 45 44 43 42 40 38 36 35 33 32 30 29 28 26 25 25 24 24 24 25 25 26 27 27 28 29 30 31 33
62 62 61 60 59 58 58 56 55 53 52 51 50 48 46 45 44 42 40 39 37 35 34 33 31 30 28 27 26 26 25 25 25 26 26 27 28 28 29 30 31 33 34
61 62 62 60 60 59 57 56 55 54 53 52 51 49 47 46 45 43 41 39 38 36 35 33 32 30 29 28 27 27 26 26 26 27 27 28 28 29 29 31 32 34 35
61 62 62 60 60 59 57 56 55 55 54 53 52 50 48 46 45 44 42 41 39 37 36 34 33 32 30 30 29 28 28 27 28 28 28 29 29 30 31 32 34 35 36
60 62 62 61 60 59 57 56 55 55 53 52 51 50 49 48 46 45 44 42 40 38 36 35 35 33 32 31 30 29 29 29 29 29 29 30 30 31 32 33 35 36 37
60 62 62 61 61 59 58 56 55 54 53 53 52 51 50 48 47 46 44 43 41 39 38 36 35 34 33 32 31 31 30 30 30 30 31 31 32 32 33 34 36 37 38
61 61 63 62 60 60 58 57 55 54 53 53 52 52 50 49 48 47 45 44 42 40 39 38 36 35 34 34 33 32 31 31 31 32 32 32 32 33 34 35 36 37 38

GEFSSE_500_meanwind_162.txt.gz
Wind_Speed
25 26 26 26 25 25 25 25 24 24 23 22 21 20 19 18 17 16 15 14 13 12 11 11 10 9 8 8 8 9 8 8 8 9 9 10 10 11 11 12 13 13 14
27 28 28 28 28 28 27 27 26 25 25 24 23 22 21 20 19 18 17 16 16 15 13 12 12 11 10 10 10 10 10 9 9 10 10 11 11 12 12 13 14 14 15
29 29 30 30 30 30 30 29 28 28 27 27 26 25 24 22 21 21 19 19 18 17 15 14 14 13 12 12 11 11 10 10 10 11 11 12 12 12 13 13 14 15 16
31 32 32 32 32 32 32 31 31 30 29 29 28 27 26 25 24 23 22 21 20 19 17 16 15 15 14 13 13 12 12 11 12 12 12 13 13 13 14 14 15 15 16
34 34 35 35 35 34 34 33 33 33 32 31 30 29 28 27 26 25 24 23 22 21 19 18 17 16 15 15 15 14 13 13 13 13 13 13 14 14 15 15 16 16 17
37 36 37 37 37 37 36 35 35 35 34 33 32 31 30 29 28 27 26 25 24 22 21 20 19 18 17 16 16 15 14 14 14 14 14 15 15 15 16 16 16 17 17
39 39 39 40 40 39 38 37 37 37 36 35 34 33 32 31 30 29 28 27 26 24 23 22 21 20 19 18 17 17 16 16 16 15 16 16 16 16 16 17 17 17 18
42 42 42 42 42 41 41 40 39 39 38 38 36 36 34 33 32 31 30 29 28 26 25 24 23 21 21 20 19 18 17 17 16 16 17 17 17 17 17 17 17 18 18
45 45 45 44 44 44 43 42 42 41 40 39 39 38 37 36 34 33 32 31 30 28 27 25 24 23 22 21 20 19 19 18 17 17 17 17 17 17 17 17 18 19 19
47 47 47 47 46 46 45 45 44 43 43 42 41 40 39 38 37 35 34 33 32 30 28 27 26 25 23 23 21 20 20 19 18 18 18 18 18 18 18 18 18 19 19
49 49 49 48 48 48 48 47 46 46 45 44 43 42 41 40 39 37 36 35 33 32 30 29 27 26 25 24 22 21 21 20 19 19 19 19 18 18 19 19 19 19 20
52 51 51 50 50 50 50 49 48 48 47 46 45 44 43 42 40 39 38 36 35 33 32 30 29 27 26 25 23 22 21 21 20 20 20 19 19 19 19 20 20 20 21
54 53 53 53 52 52 51 51 50 50 49 48 47 46 45 43 42 41 39 37 36 35 33 31 30 29 27 26 25 23 22 22 21 21 21 20 20 20 20 20 21 21 22
56 55 55 55 54 54 53 52 51 51 51 50 49 48 47 45 44 42 40 39 37 36 34 33 31 30 29 27 26 24 24 23 23 22 22 21 21 21 21 21 22 23 24
58 57 57 57 56 55 55 54 53 53 52 51 50 50 48 47 45 44 42 41 39 37 36 34 32 31 30 28 27 26 25 24 24 23 23 22 22 22 22 23 24 24 25
59 58 59 59 58 57 56 56 55 54 53 52 51 51 50 48 47 45 44 42 41 39 37 35 34 32 31 30 28 27 26 25 25 24 23 23 23 23 24 24 25 26 27
59 59 59 59 59 59 58 57 57 56 54 54 53 52 52 50 48 47 45 43 42 40 38 37 35 33 32 30 29 28 27 26 25 25 24 24 24 24 25 26 26 27 28
58 59 59 60 60 60 60 59 59 58 56 55 53 53 53 52 49 47 46 44 43 42 40 38 36 35 33 31 30 29 28 28 27 26 25 25 25 25 26 26 27 28 29
55 57 58 58 60 61 61 61 60 59 58 55 54 53 53 52 50 49 47 45 44 43 41 39 37 36 34 32 31 30 29 28 27 27 26 26 26 26 27 27 28 29 30
52 54 57 58 60 61 62 62 61 61 59 56 56 55 54 53 52 51 48 46 45 44 42 40 39 37 35 33 32 31 30 29 28 28 27 27 27 27 28 28 29 30 31
50 53 54 57 59 61 62 63 62 61 59 56 56 55 54 54 52 51 49 47 46 44 43 41 40 39 37 35 33 32 31 30 29 29 28 28 28 28 29 29 30 31 33
49 52 52 55 58 61 62 62 62 61 60 57 56 55 53 53 51 50 50 48 46 45 43 41 40 39 38 37 35 33 32 31 31 30 30 29 29 29 30 31 32 33 34
48 50 52 54 56 59 62 64 63 61 60 58 55 55 55 53 52 50 50 49 47 46 44 42 40 39 38 37 36 34 33 32 32 31 31 31 31 31 31 31 33 34 35
47 49 52 54 55 58 61 63 63 62 60 58 56 54 53 54 52 51 51 49 48 47 45 43 41 39 39 38 37 36 34 33 33 32 32 32 32 32 32 32 34 35 36
46 49 51 53 54 56 59 63 63 61 60 59 56 54 54 55 53 52 51 50 49 48 46 45 43 41 39 39 38 37 35 34 34 33 33 33 33 33 33 34 35 36 36
44 47 49 51 53 55 57 62 62 62 60 60 57 55 55 56 54 53 51 50 49 48 47 46 45 42 40 39 38 37 36 35 34 34 34 34 34 34 34 35 36 37 38

GEFSSE_500_meanwind_168.txt.gz
Wind_Speed
20 20 21 21 21 21 21 20 20 21 21 21 21 20 19 18 17 16 15 15 14 14 13 12 11 11 10 10 10 10 10 10 11 11 11 11 12 12 12 12 13 13 14
21 21 22 22 23 23 23 23 23 23 23 23 23 22 22 21 20 19 18 17 17 16 15 14 13 12 12 11 11 11 11 11 11 12 12 13 13 13 13 13 14 14 14
22 23 23 24 24 24 24 25 25 25 25 25 25 25 24 24 23 22 21 20 19 19 17 16 15 15 14 13 13 12 12 12 13 13 13 14 14 14 14 15 15 15 15
24 25 25 25 26 26 26 26 27 27 27 27 27 27 26 26 26 25 24 23 22 21 20 19 18 17 16 15 15 14 14 13 14 14 14 14 15 15 15 16 16 16 16
27 27 27 28 28 28 28 28 28 29 29 29 29 29 28 28 28 27 26 25 24 23 22 21 20 19 18 17 17 16 15 15 15 15 15 15 15 16 16 17 17 17 17
29 29 30 30 30 31 31 31 30 30 31 31 31 31 30 30 30 29 29 28 27 25 24 23 22 21 20 19 18 18 17 17 17 16 16 16 17 17 17 17 18 18 18
32 32 32 32 33 33 33 33 33 33 33 33 33 33 32 32 32 31 31 30 29 28 26 25 24 23 22 21 20 19 19 18 18 17 17 18 18 18 18 18 18 18 19
35 35 35 35 35 36 36 36 36 36 35 35 35 35 34 34 34 33 33 32 31 30 29 27 26 25 24 23 22 21 20 20 19 18 18 19 19 19 19 19 19 19 19
38 38 38 38 38 38 38 39 39 39 39 38 37 37 37 36 36 36 35 34 33 31 30 29 28 27 25 25 23 22 22 21 20 20 19 20 20 20 20 19 19 19 20
41 41 40 40 40 40 41 41 41 41 41 40 40 39 38 38 38 38 37 36 35 33 32 31 29 28 27 26 25 24 23 22 22 21 21 21 21 21 21 20 20 20 20
45 45 44 44 43 42 43 44 43 43 44 43 43 42 41 40 40 40 39 38 37 35 34 33 31 30 29 28 26 26 25 24 23 22 22 22 22 22 21 21 21 21 21
47 48 48 47 46 45 45 46 46 45 45 46 46 45 44 43 42 41 41 40 39 37 36 34 33 32 30 29 28 27 26 25 24 24 23 23 22 22 22 22 22 22 22
49 50 51 51 50 49 48 48 48 47 47 47 48 47 47 45 44 43 42 41 40 39 37 36 35 33 32 31 30 28 28 26 25 25 24 24 23 23 23 23 23 23 23
52 53 54 53 53 52 51 51 51 50 49 49 50 49 49 48 46 45 43 42 41 40 39 38 36 35 34 32 31 30 29 28 27 26 25 25 24 24 24 24 24 24 24
54 55 56 56 55 55 54 54 53 53 52 51 52 51 51 50 49 48 46 44 43 42 40 39 38 37 36 34 32 31 30 29 28 27 26 26 25 25 25 25 25 25 25
54 55 56 56 57 57 57 56 55 54 54 54 53 54 53 52 50 49 48 46 45 43 42 41 39 38 37 36 34 32 31 30 29 28 27 27 26 26 26 26 26 26 27
53 53 56 57 57 58 58 57 57 56 56 56 55 56 55 55 53 50 49 49 47 45 44 42 41 39 38 37 35 34 33 31 30 29 28 28 27 27 27 27 27 27 27
53 53 55 57 57 58 59 59 58 57 58 58 58 57 57 56 55 52 51 50 49 48 46 44 42 41 39 38 36 35 34 33 31 30 29 29 28 28 28 28 28 28 28
52 52 54 56 57 58 60 60 59 58 59 59 59 59 58 57 56 55 53 50 50 50 47 46 44 42 41 39 38 37 35 34 33 31 31 30 30 29 29 29 29 29 30
50 52 52 53 55 56 58 59 59 59 59 60 60 60 59 59 57 56 54 51 51 50 49 48 46 44 42 41 40 38 36 35 34 33 32 32 31 30 30 30 30 31 31
49 51 51 52 54 55 56 57 59 59 59 60 61 62 61 60 59 58 56 54 53 51 50 50 48 46 44 43 41 39 38 36 35 34 33 33 32 31 31 31 31 32 32
47 48 50 50 51 53 54 55 57 58 58 59 61 62 62 61 60 59 57 56 54 51 51 51 50 48 46 44 42 40 39 38 36 35 34 34 33 33 32 32 33 33 33
44 45 46 48 49 51 53 54 56 58 59 59 61 62 63 63 61 60 58 56 55 52 51 52 51 49 48 45 43 41 40 39 37 36 35 34 34 34 33 33 33 34 35
42 43 44 46 47 49 51 53 54 56 57 58 60 62 62 63 62 60 58 57 55 53 52 52 51 50 49 47 45 43 41 39 38 37 36 35 34 34 34 34 35 35 35
40 40 42 43 44 46 48 50 51 53 54 55 58 59 60 61 63 61 59 57 56 54 53 53 53 51 49 47 45 43 41 40 39 37 36 36 35 35 34 35 35 36 36
38 39 40 42 44 44 47 48 51 52 53 55 56 57 57 59 61 60 58 56 55 54 54 54 53 51 48 47 46 44 42 40 38 37 37 36 36 35 35 35 35 36 36

GEFSSE_500_meanwind_174.txt.gz
Wind_Speed
19 19 19 19 19 19 19 19 18 18 18 18 18 17 17 16 15 15 14 13 12 12 11 11 11 10 10 9 9 9 10 10 10 10 11 11 12 12 13 13 13 14 15
19 19 20 21 21 21 21 20 20 20 20 19 19 19 19 19 18 17 17 16 15 15 14 13 13 12 12 11 11 11 11 11 11 11 12 12 13 13 13 13 14 15 16
21 21 21 22 22 22 22 22 22 22 22 22 21 21 21 21 20 20 20 19 18 17 17 16 16 15 14 13 13 12 12 12 12 12 13 13 13 14 14 14 15 15 16
23 23 23 23 24 24 24 24 24 24 24 24 23 23 23 22 22 22 22 22 21 20 19 19 18 17 16 15 15 14 14 14 14 14 14 14 15 15 15 15 16 16 17
24 25 25 25 26 26 26 25 25 25 25 25 25 25 25 24 24 24 24 24 23 23 22 21 20 20 19 18 17 16 16 16 16 15 15 16 16 16 16 16 17 17 18
27 27 27 27 28 28 29 28 28 27 27 27 27 27 26 26 26 26 25 25 25 25 24 23 23 22 21 20 19 18 18 18 17 17 17 17 17 17 17 17 18 18 19
30 30 30 30 31 31 31 31 30 30 30 29 29 29 28 28 28 27 27 27 26 26 26 25 25 24 23 22 21 20 20 20 19 18 18 18 18 18 18 18 19 19 19
32 33 33 33 33 34 34 34 33 33 32 32 31 31 30 30 29 29 29 28 28 28 27 27 26 26 25 24 23 22 22 21 21 20 20 20 19 19 19 19 20 20 20
36 36 36 35 35 36 36 36 36 36 36 35 34 33 33 32 32 31 31 31 30 30 30 29 28 27 26 25 24 24 23 23 22 22 21 21 21 20 20 20 20 20 21
39 39 39 39 38 38 38 38 38 38 38 38 37 37 36 35 34 34 33 33 32 32 32 31 30 29 28 27 26 26 25 25 24 24 23 22 22 21 21 21 21 21 21
42 42 41 41 41 41 41 41 41 41 40 40 40 40 39 38 37 37 36 36 35 35 34 33 33 32 31 29 28 28 28 27 26 25 25 24 23 22 22 21 22 22 22
44 44 44 44 44 44 44 44 44 44 43 43 42 43 43 42 41 40 39 39 38 38 37 35 34 33 33 31 30 29 29 28 28 27 26 25 24 24 23 22 22 23 23
46 46 46 47 46 47 47 47 47 47 47 46 45 45 45 45 45 44 43 42 41 41 39 38 37 35 34 34 32 31 31 30 29 28 28 26 26 25 24 24 23 24 23
47 48 48 49 49 49 50 50 50 49 50 49 48 48 47 47 47 47 46 45 44 43 42 40 39 38 37 36 34 33 32 32 31 30 29 28 27 26 25 25 25 25 25
49 49 50 51 51 52 52 52 53 52 52 52 51 51 50 49 49 49 49 48 46 46 45 43 42 41 39 38 37 35 34 34 32 31 31 29 28 28 27 26 26 26 26
49 50 51 52 52 53 54 54 54 54 54 54 54 54 53 52 52 52 51 50 49 48 47 46 44 43 42 40 39 37 36 35 34 33 32 31 30 29 28 28 27 27 27
50 51 51 52 53 54 55 56 56 56 56 56 57 56 55 54 54 54 54 53 52 51 50 48 47 46 44 43 41 39 38 37 36 34 34 33 32 31 30 29 29 29 29
51 52 52 53 54 55 56 57 57 58 58 58 59 59 57 56 56 56 56 55 55 54 52 50 49 48 46 45 43 41 40 38 37 36 35 34 33 33 32 31 30 30 31
52 52 53 54 55 56 56 57 58 58 59 59 61 61 60 58 58 58 58 57 57 56 54 52 51 50 48 46 45 43 42 40 39 37 36 35 34 34 33 32 32 32 31
52 52 52 54 55 56 57 58 59 59 59 60 62 62 61 61 60 61 60 59 60 59 57 54 52 51 50 49 47 44 43 42 41 39 37 36 35 35 34 33 33 33 32
52 52 51 54 55 56 57 58 59 59 58 60 61 63 62 62 61 62 62 61 62 61 59 56 53 53 52 51 49 46 45 44 42 40 38 37 36 35 35 34 33 33 33
51 51 51 51 52 55 57 58 58 59 58 59 60 62 63 63 62 61 62 62 63 62 60 58 56 54 53 51 49 48 47 46 44 42 40 38 37 37 36 35 35 34 34
50 50 51 51 52 53 54 56 57 58 58 58 59 61 62 62 62 62 62 63 63 63 62 61 58 55 54 53 51 50 48 45 44 43 41 40 39 38 37 37 36 35 35
50 51 50 50 51 51 52 53 54 55 55 56 57 59 61 62 62 62 62 64 63 63 64 62 59 56 55 54 53 51 49 45 45 43 42 41 39 39 38 38 37 36 35
50 51 50 49 49 50 50 51 50 50 51 53 54 56 59 60 61 61 61 61 61 61 62 62 60 58 56 55 54 52 51 48 45 44 42 42 41 40 39 38 37 36 36
49 48 48 48 47 47 47 48 49 48 48 49 50 53 56 57 59 59 59 59 60 60 61 62 61 60 58 56 54 52 51 50 47 45 42 42 42 40 39 38 37 37 36

GEFSSE_500_meanwind_180.txt.gz
Wind_Speed
17 17 17 17 18 18 18 19 19 19 20 20 19 19 18 18 18 18 17 16 15 14 14 14 13 12 11 10 9 9 9 8 8 8 8 8 8 9 9 10 10 11 11
18 18 18 19 19 20 20 20 20 20 20 21 21 21 21 20 20 20 19 18 17 17 16 16 15 14 13 12 11 11 10 10 10 10 10 10 10 10 10 11 11 12 12
20 20 20 20 20 21 21 21 21 22 22 22 22 22 22 22 22 21 21 21 20 19 18 18 17 17 16 15 14 13 12 12 12 11 11 11 11 11 11 12 12 12 13
21 21 21 21 21 22 22 23 23 23 24 24 24 24 24 23 23 23 23 23 22 21 21 20 19 19 18 17 16 16 15 14 14 13 13 13 13 12 13 13 13 13 14
23 23 23 23 24 24 24 24 24 24 25 25 25 25 25 25 25 25 25 24 24 23 23 22 22 21 21 20 19 18 17 16 16 15 15 15 15 14 14 14 14 15 15
26 26 25 26 26 26 26 26 26 26 26 26 27 27 27 26 27 27 27 26 26 26 25 24 24 23 23 22 22 21 20 19 18 17 17 17 16 16 16 16 16 16 16
28 28 28 28 28 28 28 29 29 29 29 29 29 29 29 28 28 27 28 27 27 27 27 26 26 25 24 24 24 23 22 21 20 20 20 19 19 18 18 17 17 17 17
30 31 31 31 31 31 31 31 31 32 32 32 31 31 31 31 30 29 29 29 29 29 28 28 28 27 26 26 26 25 24 23 23 22 22 21 20 20 19 19 19 18 18
32 32 33 33 33 33 33 33 34 34 34 34 34 34 34 34 33 32 31 31 31 30 30 30 29 28 28 28 28 27 26 25 24 24 24 23 23 22 21 21 21 20 20
35 35 35 36 36 36 36 36 36 36 37 37 37 37 37 37 36 35 34 34 34 33 32 32 31 30 30 30 30 29 28 28 26 26 26 25 24 24 23 23 22 22 21
37 38 38 38 39 39 39 39 39 39 39 39 39 40 39 39 39 39 37 37 36 35 35 34 34 33 33 31 31 31 31 30 29 28 28 27 26 26 25 24 24 23 23
39 40 40 40 40 41 41 42 41 41 42 42 42 42 42 42 42 42 41 40 39 38 38 37 36 36 35 34 33 33 33 32 32 31 30 29 29 28 27 26 26 25 24
41 41 42 42 42 42 43 43 43 43 44 44 45 45 45 45 45 44 44 43 41 41 41 40 40 38 37 37 37 36 35 35 34 33 32 31 31 30 29 28 28 27 26
41 42 43 43 44 44 44 44 45 45 46 46 46 47 47 48 48 47 47 47 44 44 43 43 42 42 40 40 39 39 38 37 36 35 34 34 33 32 31 30 29 29 28
41 42 43 43 44 45 45 46 47 47 48 48 49 49 50 50 50 50 50 50 49 47 46 46 45 45 44 43 43 42 41 40 39 38 37 36 35 34 33 32 31 31 30
42 43 44 45 45 46 47 47 48 48 50 51 51 52 52 52 53 53 52 52 51 50 49 49 48 48 48 46 45 45 44 43 42 41 40 39 37 36 35 34 33 33 32
43 44 45 46 47 48 49 49 50 50 51 52 53 54 54 55 55 55 54 54 54 53 52 51 51 51 51 50 48 48 46 45 44 43 42 41 40 38 37 37 35 34 33
44 45 46 47 48 50 50 51 52 52 53 54 55 56 56 57 57 57 57 56 56 55 54 54 54 54 54 52 51 50 48 47 46 45 44 43 42 41 39 38 37 36 35
45 45 46 48 49 50 52 52 53 53 54 55 56 57 58 59 60 59 59 59 58 58 57 56 56 55 56 54 53 52 51 49 48 46 46 45 43 43 42 40 39 37 37
45 46 47 48 50 51 53 54 54 55 56 56 57 58 60 61 62 62 62 61 60 59 59 59 58 58 58 56 55 55 54 52 50 49 48 46 44 44 43 41 40 39 38
45 47 48 49 51 52 53 54 54 55 56 57 58 59 61 63 63 64 63 62 62 61 61 60 59 59 60 59 58 57 56 54 52 50 50 47 45 45 43 43 42 40 40
46 48 49 50 51 52 53 54 55 56 57 58 59 60 61 63 64 65 64 64 63 63 62 61 61 61 61 61 60 58 58 56 54 53 51 49 48 47 45 44 43 42 41
48 49 50 50 51 53 55 55 56 58 58 59 60 60 61 62 64 65 64 64 64 64 63 63 62 62 61 61 61 60 59 58 56 54 52 50 50 48 46 45 44 43 42
48 50 51 51 52 54 55 56 56 57 58 59 59 59 61 61 63 64 64 65 64 64 63 63 63 62 61 61 61 61 61 58 57 55 54 52 51 50 48 47 46 45 43
49 50 51 52 53 55 55 56 56 56 58 58 58 57 59 59 61 61 62 64 64 63 63 64 64 62 61 61 62 61 61 59 57 56 54 53 52 50 50 49 47 46 44
50 50 51 53 54 54 55 55 55 55 56 57 57 56 56 57 58 59 60 61 61 62 63 63 63 62 61 61 62 61 61 60 58 56 54 53 52 51 50 49 48 47 45

GEFSSE_500_meanwind_186.txt.gz
Wind_Speed
18 19 18 18 18 18 19 19 19 19 19 19 19 18 18 17 17 17 17 17 16 16 16 16 16 16 15 15 14 13 13 12 12 11 10 10 10 10 10 10 10 11 11
20 20 21 21 20 20 20 20 20 20 20 20 20 20 20 20 19 19 19 19 19 19 18 18 18 18 17 17 17 16 15 14 14 13 12 12 12 12 12 12 12 12 12
21 21 22 22 22 22 22 21 21 21 21 21 21 21 21 21 20 20 21 21 21 21 21 20 20 20 19 20 19 18 18 17 16 15 14 14 14 13 14 14 14 14 13
22 22 23 23 23 23 23 23 23 22 22 22 22 22 22 22 22 22 22 22 22 22 22 22 22 22 22 22 22 21 20 19 18 18 17 16 15 15 15 15 16 15 15
23 24 24 24 24 24 24 24 24 24 24 24 24 24 24 24 24 24 24 24 24 24 24 24 24 24 24 24 24 23 23 22 21 20 19 18 17 17 17 17 17 17 17
25 25 25 26 26 26 26 26 26 26 26 26 26 26 26 26 26 26 26 26 26 26 26 26 26 26 26 26 26 26 25 24 23 22 21 20 19 19 19 19 18 18 18
27 27 28 28 28 28 28 28 29 29 28 28 28 28 28 28 28 28 28 28 28 27 27 28 28 27 27 27 27 26 26 26 25 24 23 23 22 21 20 20 20 20 20
29 29 29 30 30 30 30 30 30 31 31 31 30 30 31 30 30 30 30 30 30 30 29 29 29 30 29 29 28 29 28 27 27 26 25 24 23 23 22 22 22 22 21
30 30 30 31 31 32 32 32 33 33 33 33 33 33 33 33 32 32 32 32 32 32 32 32 32 31 31 31 30 30 30 29 28 28 27 26 25 24 24 23 23 23 23
32 32 32 33 33 34 35 35 35 36 36 36 36 36 35 35 35 35 35 35 35 35 35 35 35 34 33 32 31 32 32 31 30 29 28 28 27 27 26 26 25 25 24
33 34 34 35 35 36 37 37 38 38 38 38 38 38 38 38 38 38 38 38 38 37 37 37 37 36 36 35 34 33 33 33 33 31 30 30 30 30 29 28 27 27 27
35 36 36 36 37 37 38 39 39 40 40 40 41 41 41 41 41 41 41 41 40 40 40 39 39 38 38 38 37 36 35 35 34 33 33 33 32 32 31 30 30 29 29
36 37 37 38 38 39 39 40 41 41 42 43 43 43 43 43 43 43 43 43 43 43 43 43 42 41 41 41 40 38 37 37 36 36 35 35 35 34 33 33 32 32 31
37 38 39 40 40 41 41 42 42 43 43 44 44 44 45 45 45 45 45 45 45 45 45 44 44 44 43 43 42 41 39 39 39 38 38 37 37 36 35 35 34 34 33
38 38 39 40 41 42 43 43 43 44 45 46 46 46 46 47 47 47 47 47 47 47 47 47 46 46 45 45 45 44 43 42 41 42 41 40 39 38 37 37 37 36 36
38 39 40 41 42 43 43 44 44 44 45 46 47 48 48 49 50 50 50 50 50 49 49 49 49 49 48 47 47 47 46 45 44 44 43 42 41 40 40 38 39 39 38
39 39 40 41 43 44 44 44 44 45 45 47 48 49 49 51 51 52 52 52 53 52 52 52 52 52 51 50 50 50 48 47 46 46 45 45 44 43 42 41 40 40 40
39 39 40 41 42 43 44 45 46 46 47 48 49 51 52 52 53 54 54 54 54 54 54 54 54 54 53 52 52 52 51 50 49 49 48 47 46 45 44 43 43 43 42
39 40 41 41 42 43 44 46 47 48 49 50 51 53 54 55 56 56 56 56 57 56 56 56 56 56 55 55 54 54 53 52 51 51 51 50 48 47 46 45 44 44 44
40 41 42 42 43 45 46 47 48 50 51 52 53 54 55 56 57 58 58 58 58 58 58 58 58 58 58 57 57 56 56 55 54 53 53 53 51 50 49 48 46 46 45
40 42 43 44 45 46 47 49 50 51 51 53 54 55 56 57 58 59 59 59 60 61 61 61 61 61 61 60 59 58 58 57 57 55 55 54 53 52 51 50 49 48 47
42 43 44 46 47 48 49 50 51 52 52 54 55 56 57 58 58 59 61 62 62 63 63 63 63 63 62 61 60 60 59 59 59 57 56 56 55 54 52 51 51 50 49
43 44 46 47 48 49 50 51 52 53 54 55 56 57 58 59 59 60 62 63 63 64 64 64 64 63 62 62 61 61 61 60 60 58 57 57 56 55 54 53 52 50 48
45 46 47 48 49 51 52 53 54 55 55 56 57 58 59 60 60 61 62 63 64 65 64 63 63 63 63 63 62 61 62 61 60 58 57 57 57 56 55 53 52 50 49
45 46 48 49 50 51 53 54 55 56 57 57 58 59 60 61 61 61 62 63 63 64 64 63 63 63 63 63 63 62 61 61 60 59 57 56 56 56 55 54 52 50 50
46 48 49 50 51 52 54 56 57 58 58 59 59 60 61 61 62 61 62 62 62 62 62 62 62 61 60 61 61 61 61 60 58 57 57 56 56 56 56 54 52 49 49

GEFSSE_500_meanwind_192.txt.gz
Wind_Speed
16 16 16 16 16 16 16 15 16 16 16 16 17 17 17 17 17 17 17 16 16 16 16 16 15 15 16 15 15 15 15 14 14 14 15 14 14 13 13 13 13 13 13
18 18 19 18 18 18 18 17 17 17 17 18 18 18 18 19 19 19 19 19 18 18 18 18 18 18 17 17 17 17 17 17 16 16 16 16 15 15 15 14 14 14 15
19 20 20 20 20 20 20 20 19 19 19 19 19 19 20 20 20 20 20 20 20 19 19 20 19 19 19 19 19 19 19 19 19 19 18 18 18 17 17 17 16 16 16
20 20 21 21 21 21 21 21 21 21 21 21 21 21 21 21 21 22 22 22 22 22 21 21 21 21 21 21 20 20 20 20 21 20 20 19 19 19 19 19 18 18 18
21 22 22 22 22 22 23 23 23 23 23 23 23 23 23 23 23 23 23 23 23 23 23 23 23 23 23 22 22 22 22 22 22 22 22 21 21 21 20 20 20 20 20
23 23 23 23 23 24 24 24 24 25 25 25 25 25 25 25 25 25 25 25 25 25 26 25 25 25 25 24 24 23 23 23 23 23 23 23 23 23 22 22 22 21 21
24 24 24 24 25 25 25 25 25 26 26 26 26 26 27 27 27 27 27 27 27 27 27 27 27 27 26 26 26 25 25 24 24 24 24 24 24 24 24 23 23 23 23
26 26 26 27 27 27 27 27 27 28 28 28 28 28 28 28 28 29 29 29 28 28 28 29 29 29 28 28 28 27 27 27 26 25 25 26 26 26 25 25 25 24 24
28 28 29 29 29 29 30 30 30 30 30 30 30 30 30 30 30 30 31 31 31 31 31 30 30 30 30 30 29 29 30 29 29 28 27 28 27 27 27 27 27 27 26
29 29 30 30 31 31 31 32 32 32 32 32 32 32 32 33 32 32 33 33 34 34 33 33 33 33 33 33 32 32 32 31 31 31 30 30 29 28 28 29 28 29 28
29 29 30 31 31 32 33 33 34 34 34 34 34 34 35 35 35 35 35 36 36 36 36 36 36 36 36 36 36 35 34 34 33 33 32 32 32 32 31 31 30 30 30
30 30 31 32 33 33 34 34 35 36 36 36 36 36 36 37 37 37 37 38 38 38 38 38 39 39 39 38 38 38 37 37 36 35 35 35 35 35 34 34 33 33 32
30 31 32 33 33 34 35 35 36 36 37 38 38 38 39 39 39 39 39 39 40 40 40 40 41 40 41 40 40 40 39 39 39 38 38 38 37 37 37 36 36 35 35
30 31 32 33 34 35 36 36 37 37 38 38 39 39 40 40 40 41 41 41 42 42 42 43 43 43 43 43 42 42 42 41 41 41 41 40 40 39 39 38 37 37 36
30 31 32 33 34 35 36 37 38 39 39 40 41 41 41 42 43 43 44 44 44 44 45 45 45 45 45 45 45 45 45 44 44 43 43 43 42 42 41 40 40 39 39
31 32 33 34 35 36 37 38 38 39 40 41 42 43 44 44 45 45 46 46 46 47 47 48 48 48 49 48 48 48 48 48 47 47 46 46 45 45 43 43 43 42 41
31 32 33 34 35 36 38 39 39 40 41 42 43 44 45 45 46 47 47 47 48 49 49 50 50 50 50 50 50 50 50 50 50 50 49 48 48 47 46 46 46 44 43
32 33 34 35 36 37 38 39 40 41 42 42 44 45 46 47 47 48 48 49 49 50 51 52 52 53 53 53 53 53 53 53 52 52 51 50 50 49 48 48 47 46 46
33 34 35 36 37 37 38 39 40 41 42 43 44 46 47 48 48 49 50 50 51 52 53 54 54 54 55 55 55 55 54 55 54 54 53 52 52 51 50 49 49 48 47
34 35 36 36 37 38 38 39 40 41 42 43 44 45 47 48 49 50 51 51 52 53 54 55 55 56 57 57 56 56 56 56 56 56 56 54 54 53 52 52 50 50 49
35 36 36 37 37 38 39 40 41 42 43 44 46 47 48 49 50 51 52 53 54 55 56 57 57 57 58 59 59 59 59 59 59 58 57 56 55 55 54 54 53 52 52
36 37 38 38 39 39 40 41 42 44 45 46 48 49 50 51 52 52 54 55 56 56 57 58 59 59 59 60 61 61 61 60 59 59 58 58 57 57 56 56 56 55 55
37 38 39 40 40 41 42 43 44 46 47 48 49 50 52 53 54 55 56 57 58 59 59 60 61 61 61 61 62 63 63 62 61 61 61 60 59 59 58 57 58 58 57
39 40 41 41 42 44 45 46 47 48 49 51 51 52 53 55 56 57 58 59 60 61 61 61 62 62 62 62 62 63 64 64 64 62 62 62 61 61 60 59 60 59 58
40 41 42 43 44 45 47 49 50 51 52 52 53 54 56 57 58 59 60 60 61 62 62 62 63 63 63 63 63 63 63 64 65 65 64 63 62 61 60 59 60 60 58
41 42 43 44 45 47 48 50 51 53 54 54 55 56 58 59 60 61 61 61 62 63 63 63 63 64 64 64 64 64 64 64 64 64 64 63 61 59 58 57 58 58 57

GEFSSE_500_meanwind_198.txt.gz
Wind_Speed
17 17 16 16 16 15 15 14 14 14 13 13 13 13 13 13 13 13 13 13 13 13 13 13 13 13 13 13 14 14 14 14 14 14 14 14 14 14 14 14 14 14 14
18 18 18 18 18 17 16 16 16 16 15 15 15 14 14 14 14 14 14 14 15 15 14 14 15 15 15 15 16 16 16 16 16 16 16 16 17 17 16 16 16 15 15
20 20 19 19 19 18 18 18 18 17 17 17 16 16 16 16 16 16 16 16 16 16 16 16 16 16 17 17 17 17 16 17 17 17 17 18 18 18 18 18 18 18 17
21 21 21 20 20 20 19 19 19 19 19 19 18 18 18 18 17 17 18 18 18 18 18 18 18 18 18 18 18 18 18 18 18 19 19 19 19 20 20 20 19 19 19
22 22 22 22 22 21 21 21 21 21 21 21 20 20 20 20 20 19 19 20 20 20 20 20 20 20 20 20 20 19 20 20 20 20 20 20 20 20 21 21 21 21 21
23 23 23 23 22 22 22 22 22 22 22 22 22 22 22 22 21 22 22 22 22 22 22 22 22 22 22 22 22 21 21 22 21 21 21 21 21 21 21 21 22 22 22
24 24 24 24 23 23 23 23 23 24 24 24 24 24 24 24 23 23 23 23 23 23 23 24 23 23 23 23 23 23 23 23 23 22 22 23 23 23 23 23 23 23 23
25 25 25 25 25 25 25 25 26 26 26 26 26 26 26 26 25 25 25 25 25 25 25 25 25 26 26 26 25 25 25 25 25 24 24 25 25 25 25 25 25 25 25
26 26 27 27 27 27 27 27 27 27 27 27 27 28 28 28 28 27 27 27 27 27 27 28 28 28 28 28 28 28 28 28 27 27 27 27 27 27 27 27 27 27 27
28 28 28 28 29 28 29 29 29 28 29 29 29 29 29 29 29 29 29 29 30 30 30 30 30 30 30 31 31 30 30 30 30 30 30 30 30 30 30 30 30 29 29
29 29 29 29 29 29 29 29 30 30 30 30 30 30 31 31 31 31 31 31 31 32 32 32 32 32 32 33 33 33 33 33 33 33 33 33 33 33 33 33 33 32 32
29 29 29 28 29 29 30 30 30 31 31 31 31 31 32 32 32 33 33 33 33 33 33 33 33 34 34 34 34 35 35 35 35 35 35 35 35 35 35 35 36 35 35
29 28 28 28 29 30 30 31 31 32 32 32 33 33 33 33 33 34 34 35 35 35 36 35 36 36 36 36 36 37 37 37 37 37 37 37 37 37 37 38 38 37 38
28 28 29 29 29 30 31 31 32 32 33 34 34 35 35 35 35 36 36 37 37 37 38 38 38 38 38 39 39 39 39 40 40 40 40 40 40 40 40 40 40 40 40
29 29 29 29 30 30 31 32 33 34 34 35 35 36 36 37 37 38 38 38 39 39 39 40 40 40 41 41 41 42 42 42 43 43 43 44 44 44 43 43 43 43 43
28 29 30 30 30 31 32 32 34 35 36 36 36 37 37 38 38 39 39 39 40 40 41 41 42 43 43 43 44 45 46 46 46 46 46 47 47 47 47 46 45 45 45
29 29 30 31 31 32 32 33 34 35 35 36 37 38 38 39 39 40 40 41 41 42 43 43 44 45 46 46 47 47 48 48 48 49 49 49 49 49 48 48 48 47 47
29 30 31 32 32 32 33 34 35 36 36 37 37 38 39 39 40 41 42 42 43 44 45 46 46 47 48 49 49 49 50 50 50 50 51 51 51 51 50 50 50 49 49
30 30 32 32 33 34 34 35 35 36 37 37 38 39 40 41 42 43 44 45 46 47 47 48 49 49 50 51 51 51 51 52 52 52 53 53 53 53 53 53 53 52 51
31 32 32 33 34 35 36 36 37 38 38 39 40 41 42 42 43 44 46 47 48 49 50 50 51 51 52 52 53 53 54 54 55 55 56 56 56 56 56 55 55 55 54
32 33 33 34 35 36 37 38 39 39 40 41 42 43 43 44 45 46 47 48 49 51 51 52 52 53 54 55 56 56 56 57 58 58 58 58 59 59 58 58 58 57 56
33 34 34 35 35 36 38 39 40 41 42 43 44 44 45 45 46 47 48 49 51 52 53 54 55 56 56 57 59 59 59 59 59 60 60 61 61 60 60 60 60 59 58
34 35 36 37 38 39 41 41 42 43 44 44 45 46 47 47 48 49 50 52 52 53 54 56 57 58 58 59 61 62 62 62 61 59 60 60 61 61 61 61 61 60 59
35 37 38 39 40 42 43 44 44 45 46 46 47 48 48 50 51 52 52 53 54 55 56 58 59 60 62 62 63 63 64 64 63 61 60 60 60 61 61 61 61 61 61
37 38 40 41 43 44 45 46 47 47 48 48 49 49 50 51 53 54 55 55 56 57 59 60 62 63 64 65 65 65 65 64 64 65 62 60 59 60 61 61 61 61 62
39 40 41 43 44 46 47 48 48 49 50 50 51 51 52 53 55 56 57 58 60 61 62 63 63 64 65 65 66 66 66 65 64 65 64 62 60 59 59 60 60 61 61

GEFSSE_500_meanwind_204.txt.gz
Wind_Speed
17 17 16 16 16 15 15 14 13 13 12 12 12 12 12 12 11 11 11 11 11 11 11 11 10 10 10 11 11 11 12 12 12 12 12 13 13 13 13 14 14 14 14
18 18 17 17 17 17 16 16 15 15 14 14 13 14 13 13 13 13 13 13 13 13 13 13 13 12 12 13 13 13 13 13 14 14 14 15 15 15 15 15 16 16 15
20 19 19 19 18 18 17 17 17 16 16 16 15 15 15 15 15 15 15 15 15 15 14 14 15 14 14 14 15 15 15 15 15 16 15 16 16 17 17 17 17 17 17
21 21 21 20 20 19 19 18 18 18 18 18 17 17 17 17 16 16 16 17 17 16 17 17 17 17 17 17 17 17 17 17 17 17 18 18 18 18 18 18 18 19 18
22 22 22 22 21 21 20 20 20 20 20 19 19 19 19 19 19 18 18 18 19 19 19 19 19 19 19 19 19 19 19 19 19 19 19 19 19 19 19 19 19 19 19
23 23 22 22 22 22 22 21 21 21 21 21 21 21 21 21 21 21 21 21 21 21 21 21 21 21 21 21 21 21 21 21 21 21 21 21 21 21 21 21 21 21 21
23 23 22 22 22 22 22 22 22 22 22 22 22 22 23 23 23 23 23 23 23 23 23 23 23 23 23 23 23 23 23 23 23 23 23 23 23 23 23 23 23 23 23
23 23 22 22 22 22 23 23 23 23 23 23 23 24 24 24 24 24 24 24 25 25 25 24 25 25 25 25 25 25 26 25 25 25 26 26 26 26 26 25 26 26 26
24 24 23 23 23 23 24 24 24 24 24 24 24 25 25 25 25 25 25 25 25 26 26 26 26 26 27 27 27 28 28 28 28 28 28 28 28 28 28 29 29 28 28
25 25 25 25 25 25 25 25 25 25 25 25 25 25 26 26 26 26 26 26 27 27 27 28 28 28 28 28 29 29 29 29 30 30 30 30 30 30 30 31 31 31 31
26 26 26 26 26 26 26 26 26 26 25 26 26 26 26 27 27 27 27 28 28 28 29 29 30 30 30 30 31 30 30 30 30 31 31 31 32 32 32 32 33 33 34
28 27 28 27 27 27 27 27 27 26 27 27 27 27 27 28 28 29 29 30 30 30 30 31 31 32 32 32 32 32 32 32 32 32 33 33 33 33 34 34 34 35 35
28 28 28 28 28 28 28 28 28 28 28 28 28 29 29 29 30 30 31 31 31 32 32 33 33 34 34 34 34 34 34 34 34 34 35 35 36 36 36 36 37 37 37
29 29 29 29 29 29 29 29 29 29 29 29 30 30 30 30 31 31 32 32 33 33 34 34 35 35 35 35 36 36 36 37 37 37 38 38 38 38 38 39 39 40 40
29 29 29 30 30 30 30 29 30 30 30 30 30 31 31 31 31 31 32 33 34 35 35 35 36 37 37 37 38 38 38 39 40 40 40 40 41 41 41 41 42 42 43
29 29 29 29 29 29 29 29 29 30 30 30 30 31 31 32 32 32 34 35 35 36 36 37 37 38 39 39 40 40 41 42 43 43 43 44 44 44 44 44 44 45 45
28 28 28 29 29 29 29 29 29 30 30 30 31 31 32 32 33 34 35 36 36 37 38 39 39 40 41 42 42 43 44 44 45 45 46 47 47 47 47 47 47 47 47
29 29 29 29 29 30 30 30 30 31 31 31 32 32 33 34 35 36 37 38 38 38 39 40 41 42 42 43 44 44 45 46 47 48 49 49 50 50 50 50 50 50 50
29 29 29 29 30 30 30 31 31 31 31 32 33 33 35 36 37 38 39 39 40 40 41 42 43 44 44 45 46 46 47 48 49 50 51 51 52 53 53 53 53 53 53
29 29 29 30 31 31 31 31 32 32 33 34 34 35 37 38 39 40 40 41 42 43 44 45 46 47 48 48 49 49 50 50 51 53 54 55 55 56 56 57 56 56 56
29 30 30 31 31 32 33 33 33 34 35 36 36 37 38 40 41 42 42 43 44 45 46 47 48 49 50 51 51 52 52 53 54 55 56 58 59 60 60 61 61 60 60
29 30 31 32 32 33 34 34 35 35 36 37 38 39 41 42 42 43 44 45 45 47 47 49 49 50 52 53 54 55 56 56 57 57 58 60 61 61 62 63 64 64 64
30 31 32 32 33 34 35 36 36 37 38 39 40 41 43 44 45 45 46 47 48 48 49 50 51 53 54 56 57 58 59 59 59 58 60 61 62 63 63 64 65 65 66
32 32 33 33 34 35 36 37 38 39 40 41 42 43 44 45 46 47 48 49 49 50 51 53 55 56 57 58 59 60 61 61 62 61 61 62 62 63 63 64 65 66 66
34 34 34 35 35 36 37 38 40 41 41 43 44 45 46 47 47 48 50 51 52 53 54 55 57 58 59 59 60 61 62 62 63 64 63 62 63 63 64 64 65 65 66
35 35 36 36 37 37 38 40 41 42 43 45 46 47 48 48 49 50 52 53 54 56 57 58 59 59 60 60 61 62 63 64 65 65 65 64 63 62 63 63 64 65 65

GEFSSE_500_meanwind_210.txt.gz
Wind_Speed
17 17 16 16 15 14 14 13 13 13 13 12 12 12 12 12 12 12 11 11 11 12 12 12 12 12 12 12 12 12 13 13 13 13 13 13 13 14 14 14 14 14 14
19 18 17 17 17 16 16 15 15 15 14 14 14 14 14 13 13 14 14 13 13 13 13 13 13 13 13 14 14 14 15 15 15 15 15 15 15 16 16 16 16 16 16
20 20 18 18 18 17 17 17 16 16 16 16 15 15 15 15 15 15 15 15 15 15 15 15 15 15 15 15 16 16 16 16 16 17 17 17 17 17 17 17 17 17 18
21 20 20 19 19 19 19 18 18 18 18 18 17 17 17 17 17 17 17 17 17 17 17 18 18 18 18 17 18 18 18 18 18 19 19 19 19 19 19 19 19 19 19
22 21 21 20 20 20 20 20 19 19 19 19 19 19 19 19 19 19 19 19 19 19 19 20 20 20 20 20 20 20 20 20 21 21 21 21 21 21 21 21 21 21 21
23 22 22 22 21 21 21 21 21 21 21 20 20 20 20 20 20 20 20 20 20 20 21 21 21 21 22 22 22 22 22 22 22 23 23 23 23 23 24 24 24 23 24
24 23 23 23 22 22 22 22 22 21 21 21 21 21 21 21 21 21 21 22 22 22 22 22 22 22 23 23 23 24 24 24 24 24 25 25 25 25 26 26 26 25 26
25 24 24 23 23 23 23 23 22 22 21 21 21 21 22 22 22 23 23 23 23 24 24 24 24 24 24 24 24 25 25 26 26 26 26 26 27 27 27 28 27 27 27
26 25 24 24 24 23 23 23 22 22 22 22 22 22 22 22 23 23 24 24 24 24 24 25 25 25 25 25 25 26 26 27 27 28 28 28 29 29 29 29 29 29 29
26 25 25 24 24 24 23 23 23 23 23 23 23 23 23 24 24 24 25 25 25 25 25 26 26 26 26 27 27 28 28 29 29 29 30 30 30 30 30 30 31 31 31
26 26 25 25 25 25 24 24 24 24 24 24 24 24 24 25 25 25 26 26 26 27 27 27 28 28 28 29 29 29 30 30 31 31 31 31 31 32 32 32 32 33 33
27 27 26 26 26 26 26 26 26 25 25 26 26 26 26 26 26 27 27 28 28 29 29 30 30 30 30 31 31 31 32 32 33 33 33 33 33 33 33 33 34 34 35
28 28 27 27 27 27 27 27 27 27 27 27 27 27 27 27 28 28 29 29 30 30 30 31 31 31 31 32 32 32 33 34 34 35 35 35 35 36 36 36 36 37 37
29 29 28 28 28 28 28 29 28 28 29 29 29 29 29 28 29 29 29 30 30 30 31 31 31 32 32 33 33 34 35 35 36 37 37 37 38 38 39 39 39 39 39
29 29 29 29 29 29 29 29 30 30 30 30 30 30 29 29 29 30 30 31 31 31 32 32 32 33 33 34 35 36 37 37 38 38 39 39 39 40 41 41 41 42 42
29 29 30 30 30 30 30 30 30 30 30 30 30 30 30 30 30 30 30 31 32 32 33 34 34 35 35 36 36 37 39 40 40 40 40 41 41 42 42 43 43 43 44
29 29 29 29 30 29 29 29 30 30 30 30 30 30 30 30 30 31 31 32 32 33 34 35 36 37 37 38 39 40 41 41 42 42 43 43 43 44 44 45 45 46 46
29 29 29 29 29 29 29 29 29 29 30 30 30 30 31 31 32 33 33 33 34 35 36 37 38 39 40 41 42 42 43 43 44 44 45 46 46 47 46 48 48 48 49
29 29 30 30 30 30 30 30 30 30 30 31 31 32 33 33 33 34 34 35 36 37 38 40 40 42 43 44 44 45 45 46 47 47 47 47 48 49 49 50 51 51 52
30 29 30 30 31 31 31 31 31 32 32 32 33 34 34 35 35 36 37 38 39 40 41 42 43 45 45 46 46 47 47 48 49 49 49 50 50 50 51 52 53 54 54
30 30 30 30 31 31 32 32 32 33 33 34 34 35 35 36 37 38 39 40 41 42 43 44 45 46 47 48 48 48 48 50 51 51 52 52 52 53 53 54 55 56 56
31 31 31 31 31 32 32 33 33 34 34 35 36 36 37 38 39 40 41 42 43 44 45 46 47 48 48 50 50 51 51 51 52 52 53 54 55 56 56 57 58 59 60
32 32 32 32 32 32 33 33 34 34 35 36 37 38 39 40 41 43 44 44 45 46 47 48 49 50 51 52 53 55 55 55 54 54 55 56 57 58 59 60 61 62 63
33 33 33 33 33 33 33 34 34 35 36 37 38 39 41 42 43 44 45 46 47 48 49 50 51 52 53 54 56 57 57 58 58 57 56 56 58 59 59 61 62 62 62
34 34 34 34 34 34 35 35 36 37 37 38 40 41 42 43 44 45 46 47 48 50 51 51 53 54 55 56 56 57 58 58 60 60 59 57 58 60 61 61 61 61 62
35 35 35 35 35 36 36 37 37 38 39 40 41 42 43 44 45 46 47 48 50 51 52 53 55 56 56 57 57 57 58 59 60 61 61 60 60 60 60 59 59 60 60

GEFSSE_500_meanwind_216.txt.gz
Wind_Speed
15 14 14 13 13 12 12 12 11 11 11 11 11 11 11 11 11 12 11 11 11 11 11 12 12 12 12 13 13 13 13 14 14 15 15 15 16 16 16 16 16 16 16
16 16 15 15 14 14 14 14 13 13 13 13 13 13 13 13 13 13 14 14 13 13 13 14 14 14 14 14 14 14 15 16 16 16 16 17 17 17 17 17 17 17 18
17 17 17 16 16 15 15 15 14 14 14 14 14 14 15 15 15 16 16 16 16 16 16 16 16 16 16 16 17 17 17 17 17 17 18 18 18 18 19 19 19 19 19
19 19 19 18 17 17 17 16 16 15 15 16 16 16 17 17 17 17 17 17 17 17 17 17 18 18 18 19 19 19 19 19 19 19 20 20 20 20 21 21 21 21 21
20 20 20 19 18 18 18 18 18 17 17 17 17 17 18 18 18 18 18 18 18 19 19 19 20 20 20 20 20 20 21 21 21 21 22 22 22 22 23 23 23 23 23
22 21 21 20 20 20 19 19 19 19 19 19 19 19 19 19 19 19 19 19 19 20 20 21 21 21 22 22 22 22 22 23 23 23 23 24 24 24 24 24 25 25 25
23 22 22 22 22 21 21 20 20 20 20 20 20 20 20 20 20 20 20 20 21 21 22 22 23 23 23 23 23 24 23 24 24 24 24 25 25 26 26 26 26 27 27
24 24 23 23 23 23 22 22 21 21 21 21 21 21 21 21 21 21 21 22 22 23 23 23 24 24 24 24 24 25 25 25 25 25 26 26 27 27 28 28 28 28 29
25 25 24 24 24 23 23 23 22 22 22 22 22 22 22 22 22 22 22 23 23 23 23 24 24 24 25 25 25 26 26 26 27 27 28 28 28 29 29 30 30 30 30
26 25 25 25 24 24 23 23 23 23 22 22 22 22 22 22 22 23 23 23 24 24 24 24 25 25 25 26 27 27 28 28 29 29 30 30 30 31 31 31 32 32 32
26 26 25 25 25 24 24 24 24 23 23 23 23 23 23 23 24 24 24 24 25 25 25 26 26 27 27 27 28 29 29 30 30 31 31 31 32 32 33 33 33 34 34
26 26 26 26 25 25 24 24 24 24 24 24 24 24 25 25 25 26 26 26 26 27 27 27 28 28 28 28 29 29 30 30 31 32 32 32 33 33 34 35 35 35 36
26 26 26 26 26 26 25 25 25 25 25 25 25 25 26 26 27 27 27 27 28 28 28 28 28 28 28 29 29 30 31 31 32 32 33 34 34 35 36 36 36 37 37
27 26 26 27 27 27 26 26 26 26 26 26 27 27 27 27 28 28 28 28 28 28 28 28 28 29 29 30 31 32 33 33 34 35 35 36 37 37 38 38 39 40 40
28 27 27 28 28 27 27 27 27 27 27 27 28 28 28 29 29 29 29 29 28 28 28 29 30 31 32 32 33 34 35 36 36 37 38 39 40 40 41 42 42 43 43
29 28 27 27 27 28 28 28 28 28 28 28 29 29 30 30 30 29 29 29 29 30 30 31 32 32 33 34 35 36 37 37 38 39 40 41 42 42 43 44 45 45 46
28 27 28 28 27 27 27 28 29 29 29 29 30 30 30 30 29 29 29 30 30 31 32 32 33 34 35 36 37 38 38 39 40 41 42 42 44 44 45 46 47 47 48
27 27 27 27 27 27 28 28 28 29 29 30 30 30 30 30 30 29 30 31 32 33 33 34 35 36 37 37 38 39 40 41 42 43 44 45 46 47 48 49 49 50 50
28 28 27 27 27 27 28 28 29 29 30 30 31 31 30 31 31 31 32 32 33 34 35 36 37 38 39 39 40 40 42 43 44 46 46 47 48 49 50 50 51 51 52
29 29 29 29 29 28 28 29 29 30 30 30 30 31 31 32 32 33 34 34 35 36 37 38 38 39 40 41 42 42 43 45 46 47 48 49 50 51 51 51 52 53 54
30 30 30 30 30 29 30 30 30 30 30 31 31 32 32 33 33 34 35 36 37 37 38 39 40 41 42 43 44 45 45 46 47 49 50 51 51 52 54 54 55 55 56
30 30 31 31 31 30 30 31 31 31 31 32 33 33 33 34 35 35 36 37 38 39 40 41 42 43 44 46 47 48 47 48 49 50 51 52 52 54 55 56 56 57 57
31 31 31 32 32 32 32 32 32 32 33 33 34 35 35 36 36 37 37 39 40 41 42 43 44 45 46 47 49 51 51 50 50 51 52 53 54 55 56 56 56 57 57
32 32 32 33 33 33 33 33 33 33 34 35 35 36 36 37 38 38 39 40 41 42 43 44 46 47 49 50 51 53 54 54 54 53 52 53 54 54 55 55 56 57 57
33 33 33 33 34 34 34 34 34 35 35 36 36 37 38 38 39 40 41 41 42 44 45 46 48 49 51 52 54 55 55 55 56 56 54 53 53 54 55 56 57 57 58
34 34 34 34 34 35 35 35 35 36 36 37 37 38 39 40 40 41 42 43 44 45 46 48 49 51 53 54 55 55 56 56 56 56 56 55 54 54 55 56 57 58 58

GEFSSE_500_meanwind_222.txt.gz
Wind_Speed
15 14 13 13 12 11 11 10 10 9 8 8 8 8 8 8 8 9 9 10 10 10 11 12 12 12 13 13 13 13 13 14 14 15 15 16 17 17 17 17 17 17 18
16 16 15 14 13 13 13 12 11 11 10 10 10 10 10 10 10 11 11 12 12 13 13 13 13 13 14 14 15 15 15 16 16 17 17 18 18 18 18 19 19 19 19
17 17 17 16 15 14 14 14 13 13 12 12 11 11 12 12 12 13 13 13 14 14 14 15 15 15 16 16 16 17 17 18 18 18 19 19 19 20 20 20 20 21 21
18 18 18 17 16 16 15 15 15 14 14 14 13 13 13 13 14 14 14 15 15 15 15 16 16 17 17 18 18 19 19 19 20 20 20 20 21 21 21 21 21 22 22
19 19 19 19 18 18 17 16 16 15 15 15 15 15 14 15 15 15 15 16 16 16 17 17 17 18 19 19 20 20 21 21 21 21 21 22 22 22 22 23 23 23 24
21 20 20 20 19 19 18 18 17 17 17 16 16 16 16 16 16 16 16 16 17 17 18 18 19 20 20 20 21 21 21 22 22 22 22 23 23 23 24 24 25 25 25
22 21 21 21 21 20 20 19 19 18 18 17 17 17 17 17 17 17 17 17 18 18 19 19 20 20 21 21 21 22 22 23 23 23 24 24 25 25 26 26 26 27 27
23 23 23 22 22 21 21 20 20 19 19 19 18 19 19 18 18 18 18 19 19 19 20 20 20 21 21 22 22 23 23 24 24 25 25 26 26 26 27 27 28 28 29
24 24 23 23 23 23 22 21 21 20 20 20 20 20 20 20 20 20 20 20 20 21 21 21 21 22 22 23 23 24 24 25 25 26 26 27 27 28 28 29 29 30 30
25 25 24 24 24 23 23 22 22 22 22 22 22 21 21 21 21 21 21 21 21 22 22 22 22 23 23 24 24 25 25 26 26 27 27 27 27 28 29 30 30 31 31
26 26 25 25 25 24 24 23 23 23 23 23 23 22 23 22 22 22 22 23 23 23 23 23 24 24 25 25 25 26 26 26 27 27 28 28 29 30 30 31 32 32 32
27 26 26 25 25 25 24 24 24 24 24 24 24 24 24 23 23 23 23 24 24 24 24 24 24 25 26 26 26 26 27 27 28 29 30 31 32 32 33 34 34 34 35
28 27 26 26 26 25 25 25 25 25 25 25 24 24 24 24 24 24 24 24 25 25 25 25 25 26 26 27 27 28 29 30 31 32 33 33 34 34 35 36 36 37 37
28 28 27 27 27 26 26 26 26 26 25 25 25 25 25 25 25 25 25 25 25 26 26 26 26 27 28 28 29 30 31 32 33 34 34 35 36 36 37 37 37 38 39
29 29 28 28 27 26 26 26 26 26 26 26 26 26 26 26 26 26 26 26 26 26 26 27 28 29 29 29 30 31 32 33 34 35 36 36 37 37 38 38 39 40 40
30 30 29 29 28 27 27 26 26 26 26 26 26 26 26 27 27 27 27 27 27 27 28 28 29 29 30 31 32 33 34 35 35 36 37 38 38 39 40 41 41 42 43
31 31 31 30 30 29 28 28 27 27 27 26 27 27 27 28 28 28 28 28 28 29 29 29 30 31 31 32 33 34 35 36 37 38 38 39 40 41 42 43 44 45 46
32 31 31 30 30 29 29 28 28 28 28 28 28 28 28 28 28 28 28 29 30 30 30 31 32 33 33 34 35 36 37 38 39 40 40 41 42 43 45 46 47 47 48
32 31 30 30 30 29 29 29 29 29 28 28 28 29 28 28 29 29 30 30 31 31 32 33 34 35 35 36 37 37 39 40 40 41 42 43 44 46 47 48 49 50 49
32 31 31 31 30 30 29 29 29 29 29 29 29 29 29 29 30 30 31 31 32 33 34 34 36 37 37 38 39 39 40 42 42 43 44 45 46 48 49 49 49 49 49
33 32 32 32 32 31 30 30 30 30 30 30 31 30 30 30 31 31 32 33 33 34 35 36 37 38 39 40 41 41 42 43 44 45 46 47 48 49 49 49 50 49 49
33 33 33 33 33 33 32 32 32 32 32 31 31 31 31 32 32 33 33 34 35 36 37 38 39 39 40 42 43 44 44 44 45 46 48 49 49 50 50 50 50 50 51
34 34 34 34 34 34 34 34 33 33 33 33 33 33 33 33 34 34 35 36 37 37 38 39 40 41 41 43 44 46 47 47 47 47 48 48 49 50 51 51 51 52 53
35 35 35 35 35 35 34 34 34 34 34 34 34 34 35 35 35 36 37 38 38 39 39 40 41 42 43 44 46 47 49 50 50 49 48 48 49 50 51 52 53 54 56
37 37 36 36 36 35 35 35 35 35 35 35 36 36 36 37 37 38 38 39 39 40 40 41 42 44 45 46 47 49 50 51 51 50 48 48 49 51 52 54 55 56 57
38 38 37 37 36 36 36 36 36 36 36 36 37 38 38 38 39 39 40 40 41 41 42 43 44 45 47 48 49 50 51 51 50 51 50 50 51 52 53 54 55 55 56

GEFSSE_500_meanwind_228.txt.gz
Wind_Speed
13 12 11 11 11 10 10 9 9 9 9 9 8 8 8 8 8 8 8 8 8 8 9 9 9 10 10 10 11 11 12 12 13 14 14 14 15 15 15 15 16 16 16
14 13 13 12 12 12 11 11 10 11 10 10 10 10 10 10 9 9 10 10 10 10 11 11 11 11 11 12 12 13 13 14 14 15 15 16 16 16 16 16 16 16 17
16 15 14 14 13 13 13 12 12 12 12 12 12 11 11 11 11 11 11 11 11 12 12 12 12 13 13 13 14 14 15 15 16 16 17 17 17 17 17 17 18 18 18
17 16 16 15 15 14 14 14 14 13 13 13 13 13 13 12 12 13 12 13 13 13 13 13 14 14 14 15 15 16 16 16 17 17 17 17 17 18 18 18 18 19 19
18 18 17 17 16 16 15 15 15 15 15 14 14 14 14 14 14 14 14 14 14 14 14 14 15 15 16 16 16 17 17 17 17 18 18 18 18 18 19 19 20 20 20
19 19 18 18 18 17 17 17 16 16 16 16 15 15 15 15 15 15 15 15 15 15 15 16 16 16 17 17 17 17 17 18 18 19 19 19 19 20 20 21 21 21 21
21 20 20 19 19 19 18 18 17 17 17 17 17 17 17 16 17 16 16 16 16 16 16 16 17 17 17 17 17 18 18 19 19 19 20 20 21 21 21 22 22 23 23
22 22 21 20 20 20 19 19 18 18 18 18 18 17 17 17 17 17 17 17 17 17 17 17 17 18 18 18 19 19 19 20 20 20 21 22 22 22 23 24 24 24 25
24 23 22 22 21 21 21 20 19 19 19 19 19 18 18 18 18 18 18 18 18 18 18 18 18 19 19 20 20 20 20 21 21 21 22 23 23 23 24 25 26 27 27
25 24 23 23 22 22 22 21 21 21 20 20 19 20 20 19 19 19 19 19 19 20 20 20 20 20 20 20 20 21 21 22 22 23 24 24 25 25 26 27 28 28 29
26 25 24 24 23 23 23 22 22 22 22 21 21 21 21 20 20 20 20 20 21 21 21 21 21 21 21 21 22 23 23 23 24 25 25 26 27 27 28 29 30 30 30
27 26 26 25 25 24 24 23 23 23 23 22 22 22 22 22 22 22 22 22 22 22 22 22 22 22 23 23 24 24 24 25 26 26 27 28 29 29 30 31 31 32 32
28 28 27 27 26 25 25 24 24 24 23 24 23 23 23 23 23 23 23 23 23 23 23 23 23 24 24 24 25 25 25 26 27 28 29 30 30 31 32 32 33 33 34
29 29 28 27 27 26 26 25 25 25 24 25 25 24 23 23 23 23 23 23 23 24 24 24 24 25 25 25 26 26 27 28 29 29 30 31 32 32 33 34 34 35 35
31 30 29 29 28 28 27 27 26 26 26 25 25 24 24 24 24 24 24 24 24 24 24 25 25 26 26 27 27 28 29 30 31 32 32 33 33 34 35 35 36 37 37
33 32 31 31 30 30 29 28 27 27 27 26 26 25 25 25 25 25 25 25 25 25 25 26 26 27 28 29 29 30 31 31 32 33 34 34 35 36 37 37 38 39 40
34 33 33 32 32 31 31 30 29 28 28 27 27 26 25 25 25 26 26 26 26 26 27 27 28 29 29 30 31 31 32 33 34 35 36 36 37 38 39 40 40 41 41
35 34 34 33 33 32 31 31 30 30 29 28 27 27 27 27 27 27 27 27 28 28 28 29 29 30 30 31 32 33 34 35 36 36 37 38 39 40 41 41 42 42 43
36 36 35 34 33 33 32 31 30 30 29 29 28 28 28 28 28 28 29 29 29 30 30 30 31 31 32 32 33 34 35 36 37 38 39 40 41 42 42 43 44 45 46
37 36 35 34 34 33 32 31 30 30 30 29 29 29 29 29 30 30 30 30 30 30 31 31 32 33 34 34 35 36 37 38 39 40 41 42 42 43 44 45 46 47 47
38 36 35 34 34 33 32 31 31 31 30 30 30 30 30 30 30 31 31 31 31 31 32 33 33 34 35 36 37 37 38 39 40 41 42 43 44 45 46 47 47 48 48
38 37 36 36 35 34 33 32 32 32 31 31 31 31 31 31 31 32 32 32 32 33 33 34 35 36 37 38 39 39 40 41 41 42 44 45 46 47 47 48 48 48 48
38 38 37 37 36 35 34 34 33 33 32 32 32 32 32 32 33 33 33 34 34 34 35 36 37 38 38 39 40 41 42 43 43 44 45 46 47 47 48 49 50 50 50
39 38 38 37 37 36 35 35 34 34 34 34 34 34 34 34 34 34 35 35 35 36 37 38 39 39 40 40 41 43 44 45 46 46 45 47 48 48 49 50 51 51 52
39 39 39 38 37 37 36 36 35 35 35 35 36 36 35 36 36 36 36 36 37 38 39 40 40 40 41 42 43 44 46 47 47 48 47 47 48 49 50 51 52 52 53
40 40 39 39 38 37 37 37 37 36 36 36 37 37 37 37 37 37 37 38 39 40 40 41 41 42 43 44 45 46 47 48 48 48 48 48 48 49 50 51 52 52 53

GEFSSE_500_meanwind_234.txt.gz
Wind_Speed
13 13 12 12 11 11 10 10 9 9 8 8 8 8 8 8 8 8 8 9 9 9 9 9 10 10 10 11 11 11 12 13 13 14 14 14 15 15 15 15 14 15 15
15 14 13 13 13 12 11 11 11 10 10 10 10 10 10 10 10 10 10 10 11 11 11 11 11 11 12 12 12 13 13 14 14 15 15 15 15 15 16 16 16 16 16
16 15 14 14 13 13 12 12 11 11 11 11 11 11 11 11 11 11 11 11 12 12 12 12 12 13 13 14 14 14 15 15 15 15 16 16 16 16 16 16 16 16 17
17 16 15 15 14 14 13 13 13 12 12 12 12 12 12 12 12 12 12 13 13 13 13 14 14 14 14 15 15 15 15 16 16 16 16 16 16 16 16 16 17 18 18
18 18 17 16 15 15 15 14 14 14 14 13 13 13 13 13 13 13 14 14 14 14 14 15 15 15 15 15 15 15 16 16 16 17 17 17 17 18 18 18 19 19 19
20 19 19 18 17 16 16 16 15 15 15 14 14 14 14 14 14 15 15 15 15 15 15 15 15 15 15 15 16 16 17 17 18 18 18 18 18 19 19 19 19 20 21
22 21 20 19 18 17 17 17 17 16 16 15 15 15 15 15 15 16 16 15 16 16 16 16 16 16 16 16 17 18 18 18 18 18 18 19 19 19 20 20 21 22 22
24 23 22 20 20 19 18 18 18 18 17 16 16 16 16 16 17 17 17 16 16 16 16 16 16 17 17 17 18 19 19 19 19 19 19 20 20 20 21 22 23 24 24
25 24 23 22 21 20 20 19 19 19 18 18 17 17 17 17 18 17 17 17 17 17 18 18 18 18 19 19 19 20 20 20 20 20 21 21 22 22 23 24 25 25 26
27 26 24 23 22 22 21 21 20 20 19 19 19 18 18 18 18 18 18 18 18 19 19 19 19 20 20 20 20 21 21 21 22 22 23 23 24 24 25 26 26 27 27
28 27 26 25 24 23 22 22 21 21 21 20 20 20 19 19 19 19 19 19 19 20 20 20 20 21 21 21 21 22 23 23 23 24 24 25 26 26 27 27 28 28 29
29 28 27 26 26 25 24 23 22 22 22 21 21 21 21 20 20 20 20 20 20 21 21 21 21 22 22 22 23 23 24 24 25 26 26 27 27 28 29 29 29 30 30
31 30 29 28 27 26 25 24 23 23 22 22 22 22 22 22 21 21 21 21 22 22 22 22 22 22 23 24 24 24 25 25 26 27 28 28 29 30 30 30 30 31 32
32 31 30 29 28 27 26 25 25 24 23 23 23 23 23 23 23 23 22 23 23 23 23 23 23 24 25 25 25 25 26 27 28 28 29 30 30 31 31 31 32 33 34
33 32 31 30 29 28 28 27 26 25 25 24 24 24 24 24 24 24 24 24 24 23 23 23 24 25 25 26 26 27 27 28 29 30 30 31 32 32 32 33 34 35 36
35 34 32 32 31 30 29 28 27 27 26 26 26 25 25 25 25 25 25 24 24 24 24 24 25 25 26 26 27 28 29 30 30 31 31 32 33 33 33 34 36 37 38
36 35 34 33 32 31 30 29 29 28 27 27 26 26 26 26 26 26 25 25 25 25 26 26 26 27 27 28 29 30 31 31 32 32 33 33 34 35 35 36 37 38 39
37 36 35 35 34 32 32 31 30 29 28 28 27 27 27 27 27 26 26 26 26 26 26 27 28 28 29 30 31 32 32 33 33 33 34 34 35 36 37 39 39 40 41
38 37 37 36 35 34 33 33 32 30 30 29 29 28 28 28 28 28 27 28 28 27 28 28 29 30 31 32 32 33 33 34 34 35 36 36 37 38 39 40 41 42 43
39 38 38 37 36 35 34 34 33 32 31 31 30 29 30 29 29 29 29 29 28 29 29 30 31 32 32 33 33 33 34 35 36 37 38 39 39 40 41 42 42 43 45
40 39 39 38 37 36 36 35 34 33 32 31 30 30 30 30 30 30 30 30 30 31 31 32 33 33 33 33 34 34 35 36 37 38 39 40 41 42 42 43 43 44 45
41 40 40 39 38 37 37 36 35 34 33 32 31 30 30 30 30 30 31 31 32 33 33 33 34 34 34 35 36 36 37 37 38 39 40 41 42 42 43 44 45 46 46
41 41 40 40 39 38 37 37 36 35 34 33 32 31 31 30 30 31 32 32 33 34 34 35 35 35 36 36 38 39 39 40 39 39 40 41 42 43 44 45 47 47 47
42 41 41 41 40 39 38 37 36 35 34 33 33 33 32 32 32 32 33 34 34 35 35 36 36 37 37 38 39 41 41 41 41 40 41 42 43 44 46 47 48 48 49
42 41 41 41 40 39 39 37 37 36 35 35 35 34 34 33 34 34 34 35 35 36 37 37 37 38 39 40 41 42 42 42 43 44 43 43 44 46 48 49 49 50 50
42 41 41 41 40 40 39 38 38 37 36 36 36 36 36 35 35 36 36 36 36 37 37 38 38 39 40 41 42 42 43 44 45 45 46 46 46 47 49 50 51 51 51